<?xml version='1.0' encoding='UTF-8'?>
<gpx version="1.1" creator="https://www.komoot.de" xmlns="http://www.topografix.com/GPX/1/1" xmlns:xsi="http://www.w3.org/2001/XMLSchema-instance" xsi:schemaLocation="http://www.topografix.com/GPX/1/1 http://www.topografix.com/GPX/1/1/gpx.xsd">
  <metadata>
    <name>56_650WiesletSchlaechtenh</name>
    <author>
      <link href="https://www.komoot.de">
        <text>komoot</text>
        <type>text/html</type>
      </link>
    </author>
  </metadata>
  <trk>
    <name>56_650WiesletSchlaechtenh</name>
    <trkseg>
      <trkpt lat="47.541521" lon="7.870517">
        <ele>339.022574</ele>
        <time>2021-11-14T16:35:11.963Z</time>
      </trkpt>
      <trkpt lat="47.541521" lon="7.870517">
        <ele>339.022574</ele>
        <time>2021-11-14T16:35:11.987Z</time>
      </trkpt>
      <trkpt lat="47.541606" lon="7.870424">
        <ele>339.022574</ele>
        <time>2021-11-14T16:35:13.726Z</time>
      </trkpt>
      <trkpt lat="47.541910" lon="7.870106">
        <ele>339.022574</ele>
        <time>2021-11-14T16:35:19.587Z</time>
      </trkpt>
      <trkpt lat="47.542014" lon="7.870126">
        <ele>339.022574</ele>
        <time>2021-11-14T16:35:21.183Z</time>
      </trkpt>
      <trkpt lat="47.542118" lon="7.870135">
        <ele>339.022574</ele>
        <time>2021-11-14T16:35:22.846Z</time>
      </trkpt>
      <trkpt lat="47.542181" lon="7.870131">
        <ele>339.022574</ele>
        <time>2021-11-14T16:35:23.733Z</time>
      </trkpt>
      <trkpt lat="47.542317" lon="7.870012">
        <ele>339.012286</ele>
        <time>2021-11-14T16:35:25.985Z</time>
      </trkpt>
      <trkpt lat="47.542348" lon="7.869983">
        <ele>338.968231</ele>
        <time>2021-11-14T16:35:26.444Z</time>
      </trkpt>
      <trkpt lat="47.542329" lon="7.869820">
        <ele>338.834061</ele>
        <time>2021-11-14T16:35:28.135Z</time>
      </trkpt>
      <trkpt lat="47.542372" lon="7.869746">
        <ele>338.754863</ele>
        <time>2021-11-14T16:35:28.967Z</time>
      </trkpt>
      <trkpt lat="47.542657" lon="7.869354">
        <ele>338.287562</ele>
        <time>2021-11-14T16:35:33.831Z</time>
      </trkpt>
      <trkpt lat="47.542696" lon="7.869257">
        <ele>338.195985</ele>
        <time>2021-11-14T16:35:34.766Z</time>
      </trkpt>
      <trkpt lat="47.542722" lon="7.869201">
        <ele>338.140856</ele>
        <time>2021-11-14T16:35:35.357Z</time>
      </trkpt>
      <trkpt lat="47.543049" lon="7.868759">
        <ele>337.608958</ele>
        <time>2021-11-14T16:35:40.270Z</time>
      </trkpt>
      <trkpt lat="47.543105" lon="7.868711">
        <ele>337.531217</ele>
        <time>2021-11-14T16:35:41.008Z</time>
      </trkpt>
      <trkpt lat="47.543201" lon="7.868657">
        <ele>337.407830</ele>
        <time>2021-11-14T16:35:42.087Z</time>
      </trkpt>
      <trkpt lat="47.543657" lon="7.868359">
        <ele>336.816356</ele>
        <time>2021-11-14T16:35:47.882Z</time>
      </trkpt>
      <trkpt lat="47.543801" lon="7.868269">
        <ele>336.655063</ele>
        <time>2021-11-14T16:35:50.362Z</time>
      </trkpt>
      <trkpt lat="47.544214" lon="7.867988">
        <ele>336.186042</ele>
        <time>2021-11-14T16:35:57.978Z</time>
      </trkpt>
      <trkpt lat="47.544246" lon="7.867967">
        <ele>336.149923</ele>
        <time>2021-11-14T16:35:58.575Z</time>
      </trkpt>
      <trkpt lat="47.544410" lon="7.867825">
        <ele>335.953886</ele>
        <time>2021-11-14T16:36:01.828Z</time>
      </trkpt>
      <trkpt lat="47.544469" lon="7.867776">
        <ele>335.884082</ele>
        <time>2021-11-14T16:36:02.850Z</time>
      </trkpt>
      <trkpt lat="47.544568" lon="7.867693">
        <ele>335.766687</ele>
        <time>2021-11-14T16:36:04.777Z</time>
      </trkpt>
      <trkpt lat="47.545003" lon="7.867278">
        <ele>335.232732</ele>
        <time>2021-11-14T16:36:13.625Z</time>
      </trkpt>
      <trkpt lat="47.545160" lon="7.866985">
        <ele>335.031796</ele>
        <time>2021-11-14T16:36:18.276Z</time>
      </trkpt>
      <trkpt lat="47.545240" lon="7.866887">
        <ele>335.118278</ele>
        <time>2021-11-14T16:36:20.549Z</time>
      </trkpt>
      <trkpt lat="47.546096" lon="7.866147">
        <ele>335.943953</ele>
        <time>2021-11-14T16:36:45.619Z</time>
      </trkpt>
      <trkpt lat="47.546327" lon="7.865959">
        <ele>336.163528</ele>
        <time>2021-11-14T16:36:52.040Z</time>
      </trkpt>
      <trkpt lat="47.546510" lon="7.865766">
        <ele>336.350672</ele>
        <time>2021-11-14T16:36:58.426Z</time>
      </trkpt>
      <trkpt lat="47.546819" lon="7.865489">
        <ele>336.458391</ele>
        <time>2021-11-14T16:37:06.579Z</time>
      </trkpt>
      <trkpt lat="47.546889" lon="7.865225">
        <ele>336.409644</ele>
        <time>2021-11-14T16:37:10.366Z</time>
      </trkpt>
      <trkpt lat="47.546894" lon="7.864837">
        <ele>336.342949</ele>
        <time>2021-11-14T16:37:15.543Z</time>
      </trkpt>
      <trkpt lat="47.546885" lon="7.864500">
        <ele>336.284986</ele>
        <time>2021-11-14T16:37:21.182Z</time>
      </trkpt>
      <trkpt lat="47.546974" lon="7.864423">
        <ele>336.258744</ele>
        <time>2021-11-14T16:37:22.769Z</time>
      </trkpt>
      <trkpt lat="47.547320" lon="7.863864">
        <ele>336.128395</ele>
        <time>2021-11-14T16:37:32.695Z</time>
      </trkpt>
      <trkpt lat="47.547568" lon="7.863151">
        <ele>335.680327</ele>
        <time>2021-11-14T16:37:41.708Z</time>
      </trkpt>
      <trkpt lat="47.547930" lon="7.861711">
        <ele>333.929368</ele>
        <time>2021-11-14T16:37:58.082Z</time>
      </trkpt>
      <trkpt lat="47.548049" lon="7.860929">
        <ele>333.015935</ele>
        <time>2021-11-14T16:38:06.781Z</time>
      </trkpt>
      <trkpt lat="47.548334" lon="7.859801">
        <ele>332.192439</ele>
        <time>2021-11-14T16:38:20.263Z</time>
      </trkpt>
      <trkpt lat="47.548611" lon="7.858381">
        <ele>331.192849</ele>
        <time>2021-11-14T16:38:38.219Z</time>
      </trkpt>
      <trkpt lat="47.548686" lon="7.857973">
        <ele>331.179071</ele>
        <time>2021-11-14T16:38:43.608Z</time>
      </trkpt>
      <trkpt lat="47.548701" lon="7.857893">
        <ele>331.176366</ele>
        <time>2021-11-14T16:38:44.729Z</time>
      </trkpt>
      <trkpt lat="47.548743" lon="7.857692">
        <ele>331.169510</ele>
        <time>2021-11-14T16:38:47.503Z</time>
      </trkpt>
      <trkpt lat="47.548887" lon="7.857308">
        <ele>331.155197</ele>
        <time>2021-11-14T16:38:53.536Z</time>
      </trkpt>
      <trkpt lat="47.549362" lon="7.855774">
        <ele>331.007858</ele>
        <time>2021-11-14T16:39:17.581Z</time>
      </trkpt>
      <trkpt lat="47.549566" lon="7.855225">
        <ele>330.683423</ele>
        <time>2021-11-14T16:39:26.199Z</time>
      </trkpt>
      <trkpt lat="47.549883" lon="7.854434">
        <ele>330.207189</ele>
        <time>2021-11-14T16:39:37.653Z</time>
      </trkpt>
      <trkpt lat="47.550221" lon="7.853833">
        <ele>329.802210</ele>
        <time>2021-11-14T16:39:44.046Z</time>
      </trkpt>
      <trkpt lat="47.551516" lon="7.851950">
        <ele>325.015284</ele>
        <time>2021-11-14T16:40:02.873Z</time>
      </trkpt>
      <trkpt lat="47.551660" lon="7.851725">
        <ele>324.385580</ele>
        <time>2021-11-14T16:40:04.894Z</time>
      </trkpt>
      <trkpt lat="47.551830" lon="7.851603">
        <ele>323.784851</ele>
        <time>2021-11-14T16:40:06.834Z</time>
      </trkpt>
      <trkpt lat="47.551925" lon="7.851845">
        <ele>323.183936</ele>
        <time>2021-11-14T16:40:08.666Z</time>
      </trkpt>
      <trkpt lat="47.552042" lon="7.852007">
        <ele>322.674656</ele>
        <time>2021-11-14T16:40:10.330Z</time>
      </trkpt>
      <trkpt lat="47.552097" lon="7.852063">
        <ele>322.462421</ele>
        <time>2021-11-14T16:40:10.964Z</time>
      </trkpt>
      <trkpt lat="47.552272" lon="7.852167">
        <ele>321.862771</ele>
        <time>2021-11-14T16:40:12.854Z</time>
      </trkpt>
      <trkpt lat="47.552449" lon="7.852231">
        <ele>321.283341</ele>
        <time>2021-11-14T16:40:14.670Z</time>
      </trkpt>
      <trkpt lat="47.552656" lon="7.851758">
        <ele>320.073328</ele>
        <time>2021-11-14T16:40:18.558Z</time>
      </trkpt>
      <trkpt lat="47.552678" lon="7.851709">
        <ele>319.947007</ele>
        <time>2021-11-14T16:40:18.945Z</time>
      </trkpt>
      <trkpt lat="47.552876" lon="7.851300">
        <ele>318.950358</ele>
        <time>2021-11-14T16:40:22.511Z</time>
      </trkpt>
      <trkpt lat="47.553283" lon="7.850634">
        <ele>317.820755</ele>
        <time>2021-11-14T16:40:29.185Z</time>
      </trkpt>
      <trkpt lat="47.553344" lon="7.850525">
        <ele>317.642727</ele>
        <time>2021-11-14T16:40:30.287Z</time>
      </trkpt>
      <trkpt lat="47.553380" lon="7.850453">
        <ele>317.530069</ele>
        <time>2021-11-14T16:40:30.932Z</time>
      </trkpt>
      <trkpt lat="47.553537" lon="7.849904">
        <ele>316.780423</ele>
        <time>2021-11-14T16:40:35.415Z</time>
      </trkpt>
      <trkpt lat="47.553605" lon="7.849629">
        <ele>316.412200</ele>
        <time>2021-11-14T16:40:37.668Z</time>
      </trkpt>
      <trkpt lat="47.553725" lon="7.849291">
        <ele>315.932035</ele>
        <time>2021-11-14T16:40:40.608Z</time>
      </trkpt>
      <trkpt lat="47.554055" lon="7.848586">
        <ele>315.056901</ele>
        <time>2021-11-14T16:40:47.509Z</time>
      </trkpt>
      <trkpt lat="47.554209" lon="7.848300">
        <ele>314.705186</ele>
        <time>2021-11-14T16:40:50.446Z</time>
      </trkpt>
      <trkpt lat="47.554269" lon="7.848188">
        <ele>314.567725</ele>
        <time>2021-11-14T16:40:51.541Z</time>
      </trkpt>
      <trkpt lat="47.554351" lon="7.848049">
        <ele>314.390253</ele>
        <time>2021-11-14T16:40:52.987Z</time>
      </trkpt>
      <trkpt lat="47.554465" lon="7.847858">
        <ele>314.145144</ele>
        <time>2021-11-14T16:40:55.007Z</time>
      </trkpt>
      <trkpt lat="47.554618" lon="7.847626">
        <ele>313.833325</ele>
        <time>2021-11-14T16:40:57.506Z</time>
      </trkpt>
      <trkpt lat="47.554759" lon="7.847388">
        <ele>313.528893</ele>
        <time>2021-11-14T16:40:59.923Z</time>
      </trkpt>
      <trkpt lat="47.554892" lon="7.847148">
        <ele>313.230372</ele>
        <time>2021-11-14T16:41:02.355Z</time>
      </trkpt>
      <trkpt lat="47.554995" lon="7.846915">
        <ele>312.996981</ele>
        <time>2021-11-14T16:41:04.511Z</time>
      </trkpt>
      <trkpt lat="47.555068" lon="7.846672">
        <ele>312.786691</ele>
        <time>2021-11-14T16:41:06.572Z</time>
      </trkpt>
      <trkpt lat="47.555199" lon="7.846687">
        <ele>312.632772</ele>
        <time>2021-11-14T16:41:08.053Z</time>
      </trkpt>
      <trkpt lat="47.555727" lon="7.846715">
        <ele>312.013841</ele>
        <time>2021-11-14T16:41:14.511Z</time>
      </trkpt>
      <trkpt lat="47.555855" lon="7.846815">
        <ele>311.844328</ele>
        <time>2021-11-14T16:41:16.173Z</time>
      </trkpt>
      <trkpt lat="47.555892" lon="7.846856">
        <ele>311.790205</ele>
        <time>2021-11-14T16:41:16.730Z</time>
      </trkpt>
      <trkpt lat="47.555966" lon="7.846932">
        <ele>311.684729</ele>
        <time>2021-11-14T16:41:17.880Z</time>
      </trkpt>
      <trkpt lat="47.555990" lon="7.846965">
        <ele>311.646374</ele>
        <time>2021-11-14T16:41:18.312Z</time>
      </trkpt>
      <trkpt lat="47.556060" lon="7.846859">
        <ele>311.529125</ele>
        <time>2021-11-14T16:41:19.506Z</time>
      </trkpt>
      <trkpt lat="47.556636" lon="7.845928">
        <ele>310.766499</ele>
        <time>2021-11-14T16:41:29.892Z</time>
      </trkpt>
      <trkpt lat="47.557134" lon="7.845095">
        <ele>310.286990</ele>
        <time>2021-11-14T16:41:39.711Z</time>
      </trkpt>
      <trkpt lat="47.557282" lon="7.844832">
        <ele>310.139439</ele>
        <time>2021-11-14T16:41:42.850Z</time>
      </trkpt>
      <trkpt lat="47.557560" lon="7.844433">
        <ele>309.900954</ele>
        <time>2021-11-14T16:41:48.031Z</time>
      </trkpt>
      <trkpt lat="47.557715" lon="7.843940">
        <ele>309.908401</ele>
        <time>2021-11-14T16:41:53.036Z</time>
      </trkpt>
      <trkpt lat="47.557759" lon="7.843839">
        <ele>309.910047</ele>
        <time>2021-11-14T16:41:54.213Z</time>
      </trkpt>
      <trkpt lat="47.557846" lon="7.843756">
        <ele>309.912147</ele>
        <time>2021-11-14T16:41:55.560Z</time>
      </trkpt>
      <trkpt lat="47.557967" lon="7.843683">
        <ele>309.914798</ele>
        <time>2021-11-14T16:41:57.600Z</time>
      </trkpt>
      <trkpt lat="47.558136" lon="7.843582">
        <ele>309.918495</ele>
        <time>2021-11-14T16:42:00.282Z</time>
      </trkpt>
      <trkpt lat="47.558405" lon="7.843371">
        <ele>309.924671</ele>
        <time>2021-11-14T16:42:05.149Z</time>
      </trkpt>
      <trkpt lat="47.558471" lon="7.843365">
        <ele>309.926013</ele>
        <time>2021-11-14T16:42:05.999Z</time>
      </trkpt>
      <trkpt lat="47.558555" lon="7.843392">
        <ele>309.927757</ele>
        <time>2021-11-14T16:42:07.279Z</time>
      </trkpt>
      <trkpt lat="47.558588" lon="7.843436">
        <ele>309.928658</ele>
        <time>2021-11-14T16:42:08.031Z</time>
      </trkpt>
      <trkpt lat="47.558884" lon="7.843836">
        <ele>309.936786</ele>
        <time>2021-11-14T16:42:14.564Z</time>
      </trkpt>
      <trkpt lat="47.559060" lon="7.844197">
        <ele>309.917877</ele>
        <time>2021-11-14T16:42:19.389Z</time>
      </trkpt>
      <trkpt lat="47.559109" lon="7.844229">
        <ele>309.914197</ele>
        <time>2021-11-14T16:42:20.438Z</time>
      </trkpt>
      <trkpt lat="47.559158" lon="7.844233">
        <ele>309.910824</ele>
        <time>2021-11-14T16:42:21.384Z</time>
      </trkpt>
      <trkpt lat="47.559583" lon="7.843813">
        <ele>309.875715</ele>
        <time>2021-11-14T16:42:29.361Z</time>
      </trkpt>
      <trkpt lat="47.559847" lon="7.843604">
        <ele>309.855144</ele>
        <time>2021-11-14T16:42:33.761Z</time>
      </trkpt>
      <trkpt lat="47.560139" lon="7.843433">
        <ele>309.833565</ele>
        <time>2021-11-14T16:42:37.987Z</time>
      </trkpt>
      <trkpt lat="47.560209" lon="7.843393">
        <ele>309.828408</ele>
        <time>2021-11-14T16:42:38.939Z</time>
      </trkpt>
      <trkpt lat="47.560338" lon="7.843341">
        <ele>309.819220</ele>
        <time>2021-11-14T16:42:40.605Z</time>
      </trkpt>
      <trkpt lat="47.560430" lon="7.843341">
        <ele>309.802471</ele>
        <time>2021-11-14T16:42:42.147Z</time>
      </trkpt>
      <trkpt lat="47.560515" lon="7.843379">
        <ele>309.701282</ele>
        <time>2021-11-14T16:42:43.181Z</time>
      </trkpt>
      <trkpt lat="47.560812" lon="7.843560">
        <ele>309.335278</ele>
        <time>2021-11-14T16:42:47.240Z</time>
      </trkpt>
      <trkpt lat="47.560934" lon="7.843550">
        <ele>309.196020</ele>
        <time>2021-11-14T16:42:48.763Z</time>
      </trkpt>
      <trkpt lat="47.561038" lon="7.843502">
        <ele>309.071873</ele>
        <time>2021-11-14T16:42:50.051Z</time>
      </trkpt>
      <trkpt lat="47.561434" lon="7.843181">
        <ele>308.557434</ele>
        <time>2021-11-14T16:42:55.492Z</time>
      </trkpt>
      <trkpt lat="47.561498" lon="7.843130">
        <ele>308.474615</ele>
        <time>2021-11-14T16:42:56.256Z</time>
      </trkpt>
      <trkpt lat="47.562179" lon="7.842500">
        <ele>307.557462</ele>
        <time>2021-11-14T16:43:05.513Z</time>
      </trkpt>
      <trkpt lat="47.562300" lon="7.842326">
        <ele>307.363244</ele>
        <time>2021-11-14T16:43:07.463Z</time>
      </trkpt>
      <trkpt lat="47.562385" lon="7.842183">
        <ele>307.215114</ele>
        <time>2021-11-14T16:43:08.876Z</time>
      </trkpt>
      <trkpt lat="47.562440" lon="7.842083">
        <ele>307.114834</ele>
        <time>2021-11-14T16:43:09.990Z</time>
      </trkpt>
      <trkpt lat="47.562574" lon="7.841873">
        <ele>306.890175</ele>
        <time>2021-11-14T16:43:12.385Z</time>
      </trkpt>
      <trkpt lat="47.562904" lon="7.841632">
        <ele>306.466388</ele>
        <time>2021-11-14T16:43:16.874Z</time>
      </trkpt>
      <trkpt lat="47.562965" lon="7.841597">
        <ele>306.391038</ele>
        <time>2021-11-14T16:43:17.666Z</time>
      </trkpt>
      <trkpt lat="47.563016" lon="7.841568">
        <ele>306.328113</ele>
        <time>2021-11-14T16:43:18.366Z</time>
      </trkpt>
      <trkpt lat="47.563300" lon="7.841391">
        <ele>305.973214</ele>
        <time>2021-11-14T16:43:22.105Z</time>
      </trkpt>
      <trkpt lat="47.563483" lon="7.841269">
        <ele>305.742064</ele>
        <time>2021-11-14T16:43:24.659Z</time>
      </trkpt>
      <trkpt lat="47.563659" lon="7.841150">
        <ele>305.524259</ele>
        <time>2021-11-14T16:43:26.989Z</time>
      </trkpt>
      <trkpt lat="47.563805" lon="7.841046">
        <ele>305.343109</ele>
        <time>2021-11-14T16:43:29.048Z</time>
      </trkpt>
      <trkpt lat="47.563941" lon="7.840948">
        <ele>305.173997</ele>
        <time>2021-11-14T16:43:30.902Z</time>
      </trkpt>
      <trkpt lat="47.563986" lon="7.840916">
        <ele>305.118182</ele>
        <time>2021-11-14T16:43:31.523Z</time>
      </trkpt>
      <trkpt lat="47.564094" lon="7.840838">
        <ele>304.983829</ele>
        <time>2021-11-14T16:43:32.990Z</time>
      </trkpt>
      <trkpt lat="47.564463" lon="7.840580">
        <ele>304.527565</ele>
        <time>2021-11-14T16:43:37.981Z</time>
      </trkpt>
      <trkpt lat="47.564534" lon="7.840532">
        <ele>304.440296</ele>
        <time>2021-11-14T16:43:38.888Z</time>
      </trkpt>
      <trkpt lat="47.564558" lon="7.840516">
        <ele>304.410867</ele>
        <time>2021-11-14T16:43:39.212Z</time>
      </trkpt>
      <trkpt lat="47.564936" lon="7.840261">
        <ele>303.946423</ele>
        <time>2021-11-14T16:43:44.113Z</time>
      </trkpt>
      <trkpt lat="47.565057" lon="7.840213">
        <ele>303.806348</ele>
        <time>2021-11-14T16:43:45.526Z</time>
      </trkpt>
      <trkpt lat="47.565168" lon="7.840179">
        <ele>303.679625</ele>
        <time>2021-11-14T16:43:46.868Z</time>
      </trkpt>
      <trkpt lat="47.565233" lon="7.840176">
        <ele>303.609882</ele>
        <time>2021-11-14T16:43:47.603Z</time>
      </trkpt>
      <trkpt lat="47.565343" lon="7.840185">
        <ele>303.491733</ele>
        <time>2021-11-14T16:43:48.863Z</time>
      </trkpt>
      <trkpt lat="47.565906" lon="7.840272">
        <ele>302.884673</ele>
        <time>2021-11-14T16:43:55.530Z</time>
      </trkpt>
      <trkpt lat="47.566081" lon="7.840309">
        <ele>302.695094</ele>
        <time>2021-11-14T16:43:57.645Z</time>
      </trkpt>
      <trkpt lat="47.566142" lon="7.840322">
        <ele>302.629002</ele>
        <time>2021-11-14T16:43:58.380Z</time>
      </trkpt>
      <trkpt lat="47.566221" lon="7.840340">
        <ele>302.543284</ele>
        <time>2021-11-14T16:43:59.520Z</time>
      </trkpt>
      <trkpt lat="47.566350" lon="7.840350">
        <ele>302.404749</ele>
        <time>2021-11-14T16:44:01.134Z</time>
      </trkpt>
      <trkpt lat="47.566450" lon="7.840326">
        <ele>302.296107</ele>
        <time>2021-11-14T16:44:02.384Z</time>
      </trkpt>
      <trkpt lat="47.566515" lon="7.840312">
        <ele>302.225666</ele>
        <time>2021-11-14T16:44:03.180Z</time>
      </trkpt>
      <trkpt lat="47.566592" lon="7.840279">
        <ele>302.139704</ele>
        <time>2021-11-14T16:44:04.295Z</time>
      </trkpt>
      <trkpt lat="47.566826" lon="7.840179">
        <ele>301.878527</ele>
        <time>2021-11-14T16:44:07.244Z</time>
      </trkpt>
      <trkpt lat="47.567111" lon="7.839998">
        <ele>301.609723</ele>
        <time>2021-11-14T16:44:11.176Z</time>
      </trkpt>
      <trkpt lat="47.567406" lon="7.839778">
        <ele>301.365449</ele>
        <time>2021-11-14T16:44:15.335Z</time>
      </trkpt>
      <trkpt lat="47.567481" lon="7.839664">
        <ele>301.285984</ele>
        <time>2021-11-14T16:44:16.630Z</time>
      </trkpt>
      <trkpt lat="47.567510" lon="7.839548">
        <ele>301.224244</ele>
        <time>2021-11-14T16:44:17.786Z</time>
      </trkpt>
      <trkpt lat="47.567530" lon="7.839459">
        <ele>301.177428</ele>
        <time>2021-11-14T16:44:18.592Z</time>
      </trkpt>
      <trkpt lat="47.567564" lon="7.839283">
        <ele>301.086060</ele>
        <time>2021-11-14T16:44:20.157Z</time>
      </trkpt>
      <trkpt lat="47.567626" lon="7.839064">
        <ele>300.967530</ele>
        <time>2021-11-14T16:44:22.270Z</time>
      </trkpt>
      <trkpt lat="47.567634" lon="7.839037">
        <ele>300.952813</ele>
        <time>2021-11-14T16:44:22.499Z</time>
      </trkpt>
      <trkpt lat="47.567823" lon="7.838648">
        <ele>300.713575</ele>
        <time>2021-11-14T16:44:26.806Z</time>
      </trkpt>
      <trkpt lat="47.567846" lon="7.838609">
        <ele>300.687723</ele>
        <time>2021-11-14T16:44:27.230Z</time>
      </trkpt>
      <trkpt lat="47.567936" lon="7.838380">
        <ele>300.555460</ele>
        <time>2021-11-14T16:44:29.586Z</time>
      </trkpt>
      <trkpt lat="47.568042" lon="7.838436">
        <ele>300.472221</ele>
        <time>2021-11-14T16:44:31.675Z</time>
      </trkpt>
      <trkpt lat="47.568160" lon="7.838415">
        <ele>300.357255</ele>
        <time>2021-11-14T16:44:33.820Z</time>
      </trkpt>
      <trkpt lat="47.568420" lon="7.838300">
        <ele>300.008315</ele>
        <time>2021-11-14T16:44:38.609Z</time>
      </trkpt>
      <trkpt lat="47.568988" lon="7.838054">
        <ele>299.247301</ele>
        <time>2021-11-14T16:44:48.432Z</time>
      </trkpt>
      <trkpt lat="47.569310" lon="7.837922">
        <ele>298.817651</ele>
        <time>2021-11-14T16:44:53.939Z</time>
      </trkpt>
      <trkpt lat="47.569522" lon="7.837844">
        <ele>298.536738</ele>
        <time>2021-11-14T16:44:57.531Z</time>
      </trkpt>
      <trkpt lat="47.569665" lon="7.837789">
        <ele>298.346744</ele>
        <time>2021-11-14T16:44:59.969Z</time>
      </trkpt>
      <trkpt lat="47.569814" lon="7.837733">
        <ele>298.149061</ele>
        <time>2021-11-14T16:45:02.505Z</time>
      </trkpt>
      <trkpt lat="47.569907" lon="7.837696">
        <ele>298.029823</ele>
        <time>2021-11-14T16:45:04.081Z</time>
      </trkpt>
      <trkpt lat="47.570038" lon="7.837643">
        <ele>297.864908</ele>
        <time>2021-11-14T16:45:06.333Z</time>
      </trkpt>
      <trkpt lat="47.570298" lon="7.837528">
        <ele>297.535388</ele>
        <time>2021-11-14T16:45:10.784Z</time>
      </trkpt>
      <trkpt lat="47.570872" lon="7.837307">
        <ele>296.815151</ele>
        <time>2021-11-14T16:45:20.647Z</time>
      </trkpt>
      <trkpt lat="47.570985" lon="7.837265">
        <ele>296.673668</ele>
        <time>2021-11-14T16:45:22.574Z</time>
      </trkpt>
      <trkpt lat="47.571254" lon="7.837161">
        <ele>296.336047</ele>
        <time>2021-11-14T16:45:27.287Z</time>
      </trkpt>
      <trkpt lat="47.571771" lon="7.836971">
        <ele>295.819295</ele>
        <time>2021-11-14T16:45:36.793Z</time>
      </trkpt>
      <trkpt lat="47.571871" lon="7.836932">
        <ele>295.763469</ele>
        <time>2021-11-14T16:45:38.729Z</time>
      </trkpt>
      <trkpt lat="47.572139" lon="7.836834">
        <ele>295.614442</ele>
        <time>2021-11-14T16:45:43.925Z</time>
      </trkpt>
      <trkpt lat="47.572296" lon="7.836777">
        <ele>295.527175</ele>
        <time>2021-11-14T16:45:47.003Z</time>
      </trkpt>
      <trkpt lat="47.572760" lon="7.836606">
        <ele>295.269042</ele>
        <time>2021-11-14T16:45:56.020Z</time>
      </trkpt>
      <trkpt lat="47.573348" lon="7.836386">
        <ele>294.947589</ele>
        <time>2021-11-14T16:46:07.175Z</time>
      </trkpt>
      <trkpt lat="47.573815" lon="7.836215">
        <ele>294.831670</ele>
        <time>2021-11-14T16:46:15.986Z</time>
      </trkpt>
      <trkpt lat="47.574158" lon="7.836106">
        <ele>294.747137</ele>
        <time>2021-11-14T16:46:22.558Z</time>
      </trkpt>
      <trkpt lat="47.574568" lon="7.836025">
        <ele>294.647463</ele>
        <time>2021-11-14T16:46:28.249Z</time>
      </trkpt>
      <trkpt lat="47.575033" lon="7.835907">
        <ele>294.533779</ele>
        <time>2021-11-14T16:46:35.254Z</time>
      </trkpt>
      <trkpt lat="47.575959" lon="7.835718">
        <ele>295.247564</ele>
        <time>2021-11-14T16:46:50.870Z</time>
      </trkpt>
      <trkpt lat="47.576219" lon="7.835650">
        <ele>295.467852</ele>
        <time>2021-11-14T16:46:56.028Z</time>
      </trkpt>
      <trkpt lat="47.579073" lon="7.834987">
        <ele>298.554540</ele>
        <time>2021-11-14T16:47:54.864Z</time>
      </trkpt>
      <trkpt lat="47.580667" lon="7.834627">
        <ele>298.679204</ele>
        <time>2021-11-14T16:48:18.714Z</time>
      </trkpt>
      <trkpt lat="47.580816" lon="7.834599">
        <ele>298.492330</ele>
        <time>2021-11-14T16:48:20.810Z</time>
      </trkpt>
      <trkpt lat="47.582828" lon="7.834117">
        <ele>294.991423</ele>
        <time>2021-11-14T16:48:43.858Z</time>
      </trkpt>
      <trkpt lat="47.583163" lon="7.833942">
        <ele>294.007300</ele>
        <time>2021-11-14T16:48:47.687Z</time>
      </trkpt>
      <trkpt lat="47.583327" lon="7.833750">
        <ele>293.428307</ele>
        <time>2021-11-14T16:48:49.845Z</time>
      </trkpt>
      <trkpt lat="47.583401" lon="7.833658">
        <ele>293.160724</ele>
        <time>2021-11-14T16:48:50.777Z</time>
      </trkpt>
      <trkpt lat="47.583523" lon="7.833509">
        <ele>292.722770</ele>
        <time>2021-11-14T16:48:52.452Z</time>
      </trkpt>
      <trkpt lat="47.583696" lon="7.833171">
        <ele>291.929813</ele>
        <time>2021-11-14T16:48:55.290Z</time>
      </trkpt>
      <trkpt lat="47.583849" lon="7.832883">
        <ele>290.979246</ele>
        <time>2021-11-14T16:48:57.610Z</time>
      </trkpt>
      <trkpt lat="47.584029" lon="7.832543">
        <ele>289.755045</ele>
        <time>2021-11-14T16:49:00.345Z</time>
      </trkpt>
      <trkpt lat="47.584156" lon="7.832334">
        <ele>288.958292</ele>
        <time>2021-11-14T16:49:02.124Z</time>
      </trkpt>
      <trkpt lat="47.584367" lon="7.832247">
        <ele>288.038648</ele>
        <time>2021-11-14T16:49:04.184Z</time>
      </trkpt>
      <trkpt lat="47.584717" lon="7.832264">
        <ele>286.568164</ele>
        <time>2021-11-14T16:49:07.573Z</time>
      </trkpt>
      <trkpt lat="47.585027" lon="7.832425">
        <ele>285.188874</ele>
        <time>2021-11-14T16:49:10.836Z</time>
      </trkpt>
      <trkpt lat="47.585195" lon="7.832588">
        <ele>284.345785</ele>
        <time>2021-11-14T16:49:12.892Z</time>
      </trkpt>
      <trkpt lat="47.585247" lon="7.832651">
        <ele>284.129268</ele>
        <time>2021-11-14T16:49:13.540Z</time>
      </trkpt>
      <trkpt lat="47.585278" lon="7.832688">
        <ele>284.038661</ele>
        <time>2021-11-14T16:49:13.922Z</time>
      </trkpt>
      <trkpt lat="47.586276" lon="7.833601">
        <ele>281.368744</ele>
        <time>2021-11-14T16:49:25.939Z</time>
      </trkpt>
      <trkpt lat="47.586496" lon="7.833050">
        <ele>280.385485</ele>
        <time>2021-11-14T16:49:31.176Z</time>
      </trkpt>
      <trkpt lat="47.587848" lon="7.834235">
        <ele>280.773924</ele>
        <time>2021-11-14T16:49:55.628Z</time>
      </trkpt>
      <trkpt lat="47.587792" lon="7.834667">
        <ele>280.909378</ele>
        <time>2021-11-14T16:50:01.794Z</time>
      </trkpt>
      <trkpt lat="47.587746" lon="7.835024">
        <ele>281.506952</ele>
        <time>2021-11-14T16:50:07.328Z</time>
      </trkpt>
      <trkpt lat="47.587628" lon="7.835942">
        <ele>283.376296</ele>
        <time>2021-11-14T16:50:23.448Z</time>
      </trkpt>
      <trkpt lat="47.587903" lon="7.836007">
        <ele>284.202191</ele>
        <time>2021-11-14T16:50:31.175Z</time>
      </trkpt>
      <trkpt lat="47.588272" lon="7.836090">
        <ele>285.309094</ele>
        <time>2021-11-14T16:50:42.153Z</time>
      </trkpt>
      <trkpt lat="47.589181" lon="7.835983">
        <ele>288.964725</ele>
        <time>2021-11-14T16:51:09.628Z</time>
      </trkpt>
      <trkpt lat="47.590263" lon="7.835856">
        <ele>293.937380</ele>
        <time>2021-11-14T16:51:44.881Z</time>
      </trkpt>
      <trkpt lat="47.590166" lon="7.836338">
        <ele>296.579911</ele>
        <time>2021-11-14T16:51:56.056Z</time>
      </trkpt>
      <trkpt lat="47.591704" lon="7.836354">
        <ele>311.421415</ele>
        <time>2021-11-14T16:53:27.350Z</time>
      </trkpt>
      <trkpt lat="47.591953" lon="7.836379">
        <ele>314.742593</ele>
        <time>2021-11-14T16:53:50.384Z</time>
      </trkpt>
      <trkpt lat="47.592110" lon="7.836372">
        <ele>316.962205</ele>
        <time>2021-11-14T16:54:00.023Z</time>
      </trkpt>
      <trkpt lat="47.592182" lon="7.836371">
        <ele>317.979702</ele>
        <time>2021-11-14T16:54:06.358Z</time>
      </trkpt>
      <trkpt lat="47.592250" lon="7.836371">
        <ele>318.940628</ele>
        <time>2021-11-14T16:54:14.126Z</time>
      </trkpt>
      <trkpt lat="47.592897" lon="7.836379">
        <ele>328.083878</ele>
        <time>2021-11-14T16:55:03.585Z</time>
      </trkpt>
      <trkpt lat="47.593173" lon="7.836468">
        <ele>332.075268</ele>
        <time>2021-11-14T16:55:26.251Z</time>
      </trkpt>
      <trkpt lat="47.593342" lon="7.836538">
        <ele>334.554874</ele>
        <time>2021-11-14T16:55:44.414Z</time>
      </trkpt>
      <trkpt lat="47.593826" lon="7.836849">
        <ele>340.052601</ele>
        <time>2021-11-14T16:56:19.651Z</time>
      </trkpt>
      <trkpt lat="47.594385" lon="7.837297">
        <ele>345.316286</ele>
        <time>2021-11-14T16:56:55.128Z</time>
      </trkpt>
      <trkpt lat="47.594966" lon="7.837645">
        <ele>350.506966</ele>
        <time>2021-11-14T16:57:23.959Z</time>
      </trkpt>
      <trkpt lat="47.595487" lon="7.838131">
        <ele>353.462480</ele>
        <time>2021-11-14T16:57:45.066Z</time>
      </trkpt>
      <trkpt lat="47.595964" lon="7.838747">
        <ele>355.423357</ele>
        <time>2021-11-14T16:58:04.655Z</time>
      </trkpt>
      <trkpt lat="47.596578" lon="7.839929">
        <ele>358.594619</ele>
        <time>2021-11-14T16:58:35.308Z</time>
      </trkpt>
      <trkpt lat="47.596993" lon="7.840544">
        <ele>360.534085</ele>
        <time>2021-11-14T16:58:54.755Z</time>
      </trkpt>
      <trkpt lat="47.597263" lon="7.840840">
        <ele>361.644046</ele>
        <time>2021-11-14T16:59:06.085Z</time>
      </trkpt>
      <trkpt lat="47.597727" lon="7.841333">
        <ele>363.530959</ele>
        <time>2021-11-14T16:59:25.727Z</time>
      </trkpt>
      <trkpt lat="47.597842" lon="7.841614">
        <ele>364.410901</ele>
        <time>2021-11-14T16:59:33.745Z</time>
      </trkpt>
      <trkpt lat="47.598058" lon="7.842175">
        <ele>366.228677</ele>
        <time>2021-11-14T16:59:49.611Z</time>
      </trkpt>
      <trkpt lat="47.598238" lon="7.842763">
        <ele>368.045732</ele>
        <time>2021-11-14T17:00:05.436Z</time>
      </trkpt>
      <trkpt lat="47.598536" lon="7.843376">
        <ele>370.172121</ele>
        <time>2021-11-14T17:00:24.253Z</time>
      </trkpt>
      <trkpt lat="47.598696" lon="7.843499">
        <ele>370.924150</ele>
        <time>2021-11-14T17:00:31.035Z</time>
      </trkpt>
      <trkpt lat="47.598937" lon="7.843561">
        <ele>372.238159</ele>
        <time>2021-11-14T17:00:40.634Z</time>
      </trkpt>
      <trkpt lat="47.599568" lon="7.843496">
        <ele>375.928171</ele>
        <time>2021-11-14T17:01:06.824Z</time>
      </trkpt>
      <trkpt lat="47.599763" lon="7.843535">
        <ele>377.076065</ele>
        <time>2021-11-14T17:01:15.358Z</time>
      </trkpt>
      <trkpt lat="47.600072" lon="7.843673">
        <ele>378.958682</ele>
        <time>2021-11-14T17:01:30.014Z</time>
      </trkpt>
      <trkpt lat="47.600807" lon="7.843916">
        <ele>383.815569</ele>
        <time>2021-11-14T17:02:05.789Z</time>
      </trkpt>
      <trkpt lat="47.602198" lon="7.844937">
        <ele>395.503352</ele>
        <time>2021-11-14T17:03:24.309Z</time>
      </trkpt>
      <trkpt lat="47.602253" lon="7.845252">
        <ele>397.685262</ele>
        <time>2021-11-14T17:03:35.451Z</time>
      </trkpt>
      <trkpt lat="47.602229" lon="7.845655">
        <ele>400.398109</ele>
        <time>2021-11-14T17:03:49.176Z</time>
      </trkpt>
      <trkpt lat="47.602243" lon="7.846717">
        <ele>407.520739</ele>
        <time>2021-11-14T17:04:34.753Z</time>
      </trkpt>
      <trkpt lat="47.602236" lon="7.847007">
        <ele>409.466587</ele>
        <time>2021-11-14T17:04:48.781Z</time>
      </trkpt>
      <trkpt lat="47.602282" lon="7.847374">
        <ele>411.969672</ele>
        <time>2021-11-14T17:05:04.562Z</time>
      </trkpt>
      <trkpt lat="47.602400" lon="7.847680">
        <ele>414.415160</ele>
        <time>2021-11-14T17:05:18.551Z</time>
      </trkpt>
      <trkpt lat="47.602486" lon="7.847821">
        <ele>415.769929</ele>
        <time>2021-11-14T17:05:27.745Z</time>
      </trkpt>
      <trkpt lat="47.602606" lon="7.848016">
        <ele>417.651104</ele>
        <time>2021-11-14T17:05:39.370Z</time>
      </trkpt>
      <trkpt lat="47.603736" lon="7.848907">
        <ele>431.175479</ele>
        <time>2021-11-14T17:07:02.354Z</time>
      </trkpt>
      <trkpt lat="47.604551" lon="7.849629">
        <ele>437.804625</ele>
        <time>2021-11-14T17:07:49.830Z</time>
      </trkpt>
      <trkpt lat="47.604823" lon="7.849877">
        <ele>439.926797</ele>
        <time>2021-11-14T17:08:03.992Z</time>
      </trkpt>
      <trkpt lat="47.605011" lon="7.850048">
        <ele>441.392625</ele>
        <time>2021-11-14T17:08:13.228Z</time>
      </trkpt>
      <trkpt lat="47.605181" lon="7.850167">
        <ele>442.642073</ele>
        <time>2021-11-14T17:08:20.897Z</time>
      </trkpt>
      <trkpt lat="47.605584" lon="7.850507">
        <ele>444.715099</ele>
        <time>2021-11-14T17:08:38.802Z</time>
      </trkpt>
      <trkpt lat="47.605922" lon="7.850724">
        <ele>445.738011</ele>
        <time>2021-11-14T17:08:51.834Z</time>
      </trkpt>
      <trkpt lat="47.606259" lon="7.850845">
        <ele>446.701009</ele>
        <time>2021-11-14T17:09:02.944Z</time>
      </trkpt>
      <trkpt lat="47.606432" lon="7.850826">
        <ele>447.182803</ele>
        <time>2021-11-14T17:09:07.925Z</time>
      </trkpt>
      <trkpt lat="47.606642" lon="7.850761">
        <ele>447.778609</ele>
        <time>2021-11-14T17:09:14.097Z</time>
      </trkpt>
      <trkpt lat="47.606841" lon="7.850541">
        <ele>448.467937</ele>
        <time>2021-11-14T17:09:21.091Z</time>
      </trkpt>
      <trkpt lat="47.607206" lon="7.849906">
        <ele>448.563811</ele>
        <time>2021-11-14T17:09:34.459Z</time>
      </trkpt>
      <trkpt lat="47.607512" lon="7.849734">
        <ele>448.195732</ele>
        <time>2021-11-14T17:09:40.458Z</time>
      </trkpt>
      <trkpt lat="47.607779" lon="7.849458">
        <ele>447.829667</ele>
        <time>2021-11-14T17:09:45.901Z</time>
      </trkpt>
      <trkpt lat="47.608193" lon="7.849027">
        <ele>447.260738</ele>
        <time>2021-11-14T17:09:53.885Z</time>
      </trkpt>
      <trkpt lat="47.608499" lon="7.848767">
        <ele>446.627926</ele>
        <time>2021-11-14T17:09:59.137Z</time>
      </trkpt>
      <trkpt lat="47.608647" lon="7.848750">
        <ele>446.064171</ele>
        <time>2021-11-14T17:10:01.252Z</time>
      </trkpt>
      <trkpt lat="47.608958" lon="7.849213">
        <ele>444.390736</ele>
        <time>2021-11-14T17:10:07.428Z</time>
      </trkpt>
      <trkpt lat="47.609180" lon="7.849407">
        <ele>443.412183</ele>
        <time>2021-11-14T17:10:10.997Z</time>
      </trkpt>
      <trkpt lat="47.609671" lon="7.849581">
        <ele>441.494988</ele>
        <time>2021-11-14T17:10:17.893Z</time>
      </trkpt>
      <trkpt lat="47.609900" lon="7.849721">
        <ele>440.554320</ele>
        <time>2021-11-14T17:10:21.353Z</time>
      </trkpt>
      <trkpt lat="47.610164" lon="7.850132">
        <ele>439.565196</ele>
        <time>2021-11-14T17:10:26.909Z</time>
      </trkpt>
      <trkpt lat="47.610866" lon="7.850970">
        <ele>437.683244</ele>
        <time>2021-11-14T17:10:40.916Z</time>
      </trkpt>
      <trkpt lat="47.611197" lon="7.851511">
        <ele>436.654597</ele>
        <time>2021-11-14T17:10:49.917Z</time>
      </trkpt>
      <trkpt lat="47.611373" lon="7.852022">
        <ele>435.343282</ele>
        <time>2021-11-14T17:10:56.600Z</time>
      </trkpt>
      <trkpt lat="47.611487" lon="7.852197">
        <ele>434.674874</ele>
        <time>2021-11-14T17:10:59.387Z</time>
      </trkpt>
      <trkpt lat="47.611909" lon="7.852604">
        <ele>432.624072</ele>
        <time>2021-11-14T17:11:06.733Z</time>
      </trkpt>
      <trkpt lat="47.612224" lon="7.852925">
        <ele>431.067013</ele>
        <time>2021-11-14T17:11:11.873Z</time>
      </trkpt>
      <trkpt lat="47.612366" lon="7.853056">
        <ele>430.385709</ele>
        <time>2021-11-14T17:11:14.095Z</time>
      </trkpt>
      <trkpt lat="47.612473" lon="7.853153">
        <ele>429.874799</ele>
        <time>2021-11-14T17:11:15.748Z</time>
      </trkpt>
      <trkpt lat="47.612894" lon="7.853499">
        <ele>426.688146</ele>
        <time>2021-11-14T17:11:21.927Z</time>
      </trkpt>
      <trkpt lat="47.613147" lon="7.853586">
        <ele>424.486411</ele>
        <time>2021-11-14T17:11:25.139Z</time>
      </trkpt>
      <trkpt lat="47.613350" lon="7.853629">
        <ele>422.747981</ele>
        <time>2021-11-14T17:11:27.682Z</time>
      </trkpt>
      <trkpt lat="47.613558" lon="7.853788">
        <ele>420.764255</ele>
        <time>2021-11-14T17:11:30.561Z</time>
      </trkpt>
      <trkpt lat="47.613564" lon="7.854464">
        <ele>416.900546</ele>
        <time>2021-11-14T17:11:36.133Z</time>
      </trkpt>
      <trkpt lat="47.613607" lon="7.854572">
        <ele>416.183708</ele>
        <time>2021-11-14T17:11:37.144Z</time>
      </trkpt>
      <trkpt lat="47.613659" lon="7.854700">
        <ele>415.329618</ele>
        <time>2021-11-14T17:11:38.438Z</time>
      </trkpt>
      <trkpt lat="47.613792" lon="7.854776">
        <ele>414.121319</ele>
        <time>2021-11-14T17:11:40.235Z</time>
      </trkpt>
      <trkpt lat="47.613988" lon="7.854392">
        <ele>411.986753</ele>
        <time>2021-11-14T17:11:44.282Z</time>
      </trkpt>
      <trkpt lat="47.614100" lon="7.854196">
        <ele>410.891691</ele>
        <time>2021-11-14T17:11:46.416Z</time>
      </trkpt>
      <trkpt lat="47.614301" lon="7.854162">
        <ele>409.612701</ele>
        <time>2021-11-14T17:11:49.234Z</time>
      </trkpt>
      <trkpt lat="47.614553" lon="7.854369">
        <ele>407.791568</ele>
        <time>2021-11-14T17:11:52.934Z</time>
      </trkpt>
      <trkpt lat="47.614629" lon="7.854431">
        <ele>407.243220</ele>
        <time>2021-11-14T17:11:54.085Z</time>
      </trkpt>
      <trkpt lat="47.614801" lon="7.854465">
        <ele>406.146197</ele>
        <time>2021-11-14T17:11:56.270Z</time>
      </trkpt>
      <trkpt lat="47.615213" lon="7.854374">
        <ele>403.512752</ele>
        <time>2021-11-14T17:12:01.934Z</time>
      </trkpt>
      <trkpt lat="47.615794" lon="7.854262">
        <ele>402.268454</ele>
        <time>2021-11-14T17:12:10.108Z</time>
      </trkpt>
      <trkpt lat="47.615857" lon="7.854262">
        <ele>402.244151</ele>
        <time>2021-11-14T17:12:11.127Z</time>
      </trkpt>
      <trkpt lat="47.615860" lon="7.854339">
        <ele>402.224094</ele>
        <time>2021-11-14T17:12:11.954Z</time>
      </trkpt>
      <trkpt lat="47.616057" lon="7.854419">
        <ele>402.145302</ele>
        <time>2021-11-14T17:12:15.221Z</time>
      </trkpt>
      <trkpt lat="47.616180" lon="7.854590">
        <ele>402.080273</ele>
        <time>2021-11-14T17:12:18.758Z</time>
      </trkpt>
      <trkpt lat="47.616213" lon="7.854635">
        <ele>402.062982</ele>
        <time>2021-11-14T17:12:19.531Z</time>
      </trkpt>
      <trkpt lat="47.616419" lon="7.854648">
        <ele>401.983442</ele>
        <time>2021-11-14T17:12:24.109Z</time>
      </trkpt>
      <trkpt lat="47.616561" lon="7.854545">
        <ele>401.922466</ele>
        <time>2021-11-14T17:12:27.768Z</time>
      </trkpt>
      <trkpt lat="47.616730" lon="7.854154">
        <ele>401.801684</ele>
        <time>2021-11-14T17:12:36.930Z</time>
      </trkpt>
      <trkpt lat="47.616902" lon="7.854158">
        <ele>401.735324</ele>
        <time>2021-11-14T17:12:41.834Z</time>
      </trkpt>
      <trkpt lat="47.617121" lon="7.853582">
        <ele>404.398392</ele>
        <time>2021-11-14T17:12:56.465Z</time>
      </trkpt>
      <trkpt lat="47.617174" lon="7.853374">
        <ele>405.298761</ele>
        <time>2021-11-14T17:13:02.272Z</time>
      </trkpt>
      <trkpt lat="47.617401" lon="7.852985">
        <ele>407.382061</ele>
        <time>2021-11-14T17:13:16.659Z</time>
      </trkpt>
      <trkpt lat="47.617505" lon="7.852663">
        <ele>408.827791</ele>
        <time>2021-11-14T17:13:27.273Z</time>
      </trkpt>
      <trkpt lat="47.617527" lon="7.851427">
        <ele>413.673817</ele>
        <time>2021-11-14T17:14:05.568Z</time>
      </trkpt>
      <trkpt lat="47.618006" lon="7.850183">
        <ele>418.756809</ele>
        <time>2021-11-14T17:14:41.528Z</time>
      </trkpt>
      <trkpt lat="47.618035" lon="7.849984">
        <ele>419.479161</ele>
        <time>2021-11-14T17:14:46.117Z</time>
      </trkpt>
      <trkpt lat="47.618004" lon="7.848291">
        <ele>423.677147</ele>
        <time>2021-11-14T17:15:18.287Z</time>
      </trkpt>
      <trkpt lat="47.617988" lon="7.848055">
        <ele>424.081079</ele>
        <time>2021-11-14T17:15:22.284Z</time>
      </trkpt>
      <trkpt lat="47.617998" lon="7.847811">
        <ele>424.497375</ele>
        <time>2021-11-14T17:15:25.845Z</time>
      </trkpt>
      <trkpt lat="47.618233" lon="7.846599">
        <ele>426.658360</ele>
        <time>2021-11-14T17:15:44.298Z</time>
      </trkpt>
      <trkpt lat="47.618223" lon="7.845325">
        <ele>429.130340</ele>
        <time>2021-11-14T17:16:05.028Z</time>
      </trkpt>
      <trkpt lat="47.618134" lon="7.844973">
        <ele>429.859755</ele>
        <time>2021-11-14T17:16:11.526Z</time>
      </trkpt>
      <trkpt lat="47.617988" lon="7.844483">
        <ele>430.899193</ele>
        <time>2021-11-14T17:16:21.658Z</time>
      </trkpt>
      <trkpt lat="47.617607" lon="7.843840">
        <ele>433.064422</ele>
        <time>2021-11-14T17:16:39.696Z</time>
      </trkpt>
      <trkpt lat="47.617368" lon="7.843216">
        <ele>435.299371</ele>
        <time>2021-11-14T17:16:56.340Z</time>
      </trkpt>
      <trkpt lat="47.617228" lon="7.842570">
        <ele>437.412473</ele>
        <time>2021-11-14T17:17:12.711Z</time>
      </trkpt>
      <trkpt lat="47.617103" lon="7.841209">
        <ele>441.403834</ele>
        <time>2021-11-14T17:17:43.570Z</time>
      </trkpt>
      <trkpt lat="47.616766" lon="7.839183">
        <ele>446.778191</ele>
        <time>2021-11-14T17:18:25.118Z</time>
      </trkpt>
      <trkpt lat="47.616796" lon="7.838812">
        <ele>447.616784</ele>
        <time>2021-11-14T17:18:31.900Z</time>
      </trkpt>
      <trkpt lat="47.617290" lon="7.837217">
        <ele>451.465421</ele>
        <time>2021-11-14T17:19:04.293Z</time>
      </trkpt>
      <trkpt lat="47.617841" lon="7.835706">
        <ele>455.548018</ele>
        <time>2021-11-14T17:19:37.073Z</time>
      </trkpt>
      <trkpt lat="47.618319" lon="7.834959">
        <ele>458.094734</ele>
        <time>2021-11-14T17:19:58.227Z</time>
      </trkpt>
      <trkpt lat="47.618582" lon="7.834417">
        <ele>459.739330</ele>
        <time>2021-11-14T17:20:11.923Z</time>
      </trkpt>
      <trkpt lat="47.618883" lon="7.833744">
        <ele>461.702256</ele>
        <time>2021-11-14T17:20:28.446Z</time>
      </trkpt>
      <trkpt lat="47.619543" lon="7.832548">
        <ele>465.458784</ele>
        <time>2021-11-14T17:20:59.090Z</time>
      </trkpt>
      <trkpt lat="47.621202" lon="7.830405">
        <ele>472.144993</ele>
        <time>2021-11-14T17:21:56.134Z</time>
      </trkpt>
      <trkpt lat="47.621427" lon="7.829933">
        <ele>473.632890</ele>
        <time>2021-11-14T17:22:06.737Z</time>
      </trkpt>
      <trkpt lat="47.621534" lon="7.829734">
        <ele>474.288056</ele>
        <time>2021-11-14T17:22:11.564Z</time>
      </trkpt>
      <trkpt lat="47.621800" lon="7.829109">
        <ele>476.190446</ele>
        <time>2021-11-14T17:22:26.512Z</time>
      </trkpt>
      <trkpt lat="47.621973" lon="7.828724">
        <ele>477.381323</ele>
        <time>2021-11-14T17:22:36.376Z</time>
      </trkpt>
      <trkpt lat="47.622611" lon="7.827681">
        <ele>482.980517</ele>
        <time>2021-11-14T17:23:12.903Z</time>
      </trkpt>
      <trkpt lat="47.622929" lon="7.827233">
        <ele>485.714578</ele>
        <time>2021-11-14T17:23:32.144Z</time>
      </trkpt>
      <trkpt lat="47.623357" lon="7.826769">
        <ele>489.019503</ele>
        <time>2021-11-14T17:23:54.616Z</time>
      </trkpt>
      <trkpt lat="47.623651" lon="7.826499">
        <ele>490.779216</ele>
        <time>2021-11-14T17:24:08.525Z</time>
      </trkpt>
      <trkpt lat="47.624085" lon="7.826125">
        <ele>493.311074</ele>
        <time>2021-11-14T17:24:27.347Z</time>
      </trkpt>
      <trkpt lat="47.624738" lon="7.825514">
        <ele>497.205544</ele>
        <time>2021-11-14T17:24:53.649Z</time>
      </trkpt>
      <trkpt lat="47.625432" lon="7.824606">
        <ele>500.278772</ele>
        <time>2021-11-14T17:25:17.132Z</time>
      </trkpt>
      <trkpt lat="47.626017" lon="7.823389">
        <ele>503.170465</ele>
        <time>2021-11-14T17:25:42.629Z</time>
      </trkpt>
      <trkpt lat="47.626214" lon="7.823154">
        <ele>503.933244</ele>
        <time>2021-11-14T17:25:49.531Z</time>
      </trkpt>
      <trkpt lat="47.626961" lon="7.822577">
        <ele>506.511447</ele>
        <time>2021-11-14T17:26:13.702Z</time>
      </trkpt>
      <trkpt lat="47.627230" lon="7.822262">
        <ele>507.560537</ele>
        <time>2021-11-14T17:26:22.977Z</time>
      </trkpt>
      <trkpt lat="47.627436" lon="7.821903">
        <ele>508.533350</ele>
        <time>2021-11-14T17:26:31.216Z</time>
      </trkpt>
      <trkpt lat="47.627644" lon="7.821437">
        <ele>509.222868</ele>
        <time>2021-11-14T17:26:40.694Z</time>
      </trkpt>
      <trkpt lat="47.627725" lon="7.821287">
        <ele>509.401458</ele>
        <time>2021-11-14T17:26:43.801Z</time>
      </trkpt>
      <trkpt lat="47.628068" lon="7.820705">
        <ele>510.119809</ele>
        <time>2021-11-14T17:26:55.953Z</time>
      </trkpt>
      <trkpt lat="47.628223" lon="7.820316">
        <ele>510.539685</ele>
        <time>2021-11-14T17:27:02.693Z</time>
      </trkpt>
      <trkpt lat="47.628382" lon="7.819690">
        <ele>511.161253</ele>
        <time>2021-11-14T17:27:10.091Z</time>
      </trkpt>
      <trkpt lat="47.628652" lon="7.819012">
        <ele>510.076900</ele>
        <time>2021-11-14T17:27:16.542Z</time>
      </trkpt>
      <trkpt lat="47.628903" lon="7.818442">
        <ele>508.694934</ele>
        <time>2021-11-14T17:27:21.648Z</time>
      </trkpt>
      <trkpt lat="47.629046" lon="7.818276">
        <ele>508.148136</ele>
        <time>2021-11-14T17:27:23.493Z</time>
      </trkpt>
      <trkpt lat="47.629850" lon="7.816905">
        <ele>502.311674</ele>
        <time>2021-11-14T17:27:35.052Z</time>
      </trkpt>
      <trkpt lat="47.630743" lon="7.815987">
        <ele>494.181136</ele>
        <time>2021-11-14T17:27:44.558Z</time>
      </trkpt>
      <trkpt lat="47.631021" lon="7.815514">
        <ele>490.897632</ele>
        <time>2021-11-14T17:27:48.277Z</time>
      </trkpt>
      <trkpt lat="47.631083" lon="7.815420">
        <ele>490.179436</ele>
        <time>2021-11-14T17:27:49.060Z</time>
      </trkpt>
      <trkpt lat="47.631227" lon="7.815205">
        <ele>488.524287</ele>
        <time>2021-11-14T17:27:50.845Z</time>
      </trkpt>
      <trkpt lat="47.631677" lon="7.814692">
        <ele>483.926410</ele>
        <time>2021-11-14T17:27:55.829Z</time>
      </trkpt>
      <trkpt lat="47.631707" lon="7.814641">
        <ele>483.556772</ele>
        <time>2021-11-14T17:27:56.215Z</time>
      </trkpt>
      <trkpt lat="47.632099" lon="7.813963">
        <ele>478.678955</ele>
        <time>2021-11-14T17:28:01.576Z</time>
      </trkpt>
      <trkpt lat="47.632179" lon="7.813790">
        <ele>477.578165</ele>
        <time>2021-11-14T17:28:02.797Z</time>
      </trkpt>
      <trkpt lat="47.632515" lon="7.813155">
        <ele>473.755408</ele>
        <time>2021-11-14T17:28:07.798Z</time>
      </trkpt>
      <trkpt lat="47.632573" lon="7.813067">
        <ele>473.172581</ele>
        <time>2021-11-14T17:28:08.514Z</time>
      </trkpt>
      <trkpt lat="47.632601" lon="7.813004">
        <ele>472.815249</ele>
        <time>2021-11-14T17:28:08.952Z</time>
      </trkpt>
      <trkpt lat="47.632790" lon="7.812277">
        <ele>469.125734</ele>
        <time>2021-11-14T17:28:13.768Z</time>
      </trkpt>
      <trkpt lat="47.632845" lon="7.812246">
        <ele>468.712353</ele>
        <time>2021-11-14T17:28:14.303Z</time>
      </trkpt>
      <trkpt lat="47.632938" lon="7.812283">
        <ele>468.035834</ele>
        <time>2021-11-14T17:28:15.122Z</time>
      </trkpt>
      <trkpt lat="47.633151" lon="7.812590">
        <ele>465.949517</ele>
        <time>2021-11-14T17:28:17.847Z</time>
      </trkpt>
      <trkpt lat="47.633391" lon="7.813533">
        <ele>460.660915</ele>
        <time>2021-11-14T17:28:23.920Z</time>
      </trkpt>
      <trkpt lat="47.633759" lon="7.814194">
        <ele>456.085019</ele>
        <time>2021-11-14T17:28:28.928Z</time>
      </trkpt>
      <trkpt lat="47.633899" lon="7.814255">
        <ele>454.929443</ele>
        <time>2021-11-14T17:28:30.266Z</time>
      </trkpt>
      <trkpt lat="47.634025" lon="7.814248">
        <ele>453.930851</ele>
        <time>2021-11-14T17:28:31.358Z</time>
      </trkpt>
      <trkpt lat="47.634267" lon="7.814103">
        <ele>451.863934</ele>
        <time>2021-11-14T17:28:33.721Z</time>
      </trkpt>
      <trkpt lat="47.634603" lon="7.813838">
        <ele>448.904065</ele>
        <time>2021-11-14T17:28:37.098Z</time>
      </trkpt>
      <trkpt lat="47.634638" lon="7.813802">
        <ele>448.575264</ele>
        <time>2021-11-14T17:28:37.456Z</time>
      </trkpt>
      <trkpt lat="47.634810" lon="7.813677">
        <ele>447.096549</ele>
        <time>2021-11-14T17:28:39.170Z</time>
      </trkpt>
      <trkpt lat="47.635241" lon="7.813237">
        <ele>443.057407</ele>
        <time>2021-11-14T17:28:43.770Z</time>
      </trkpt>
      <trkpt lat="47.635461" lon="7.813093">
        <ele>441.200893</ele>
        <time>2021-11-14T17:28:45.910Z</time>
      </trkpt>
      <trkpt lat="47.635537" lon="7.813043">
        <ele>440.559017</ele>
        <time>2021-11-14T17:28:46.650Z</time>
      </trkpt>
      <trkpt lat="47.635617" lon="7.812948">
        <ele>439.767924</ele>
        <time>2021-11-14T17:28:47.551Z</time>
      </trkpt>
      <trkpt lat="47.635678" lon="7.812872">
        <ele>439.152965</ele>
        <time>2021-11-14T17:28:48.271Z</time>
      </trkpt>
      <trkpt lat="47.635984" lon="7.812598">
        <ele>436.405164</ele>
        <time>2021-11-14T17:28:51.475Z</time>
      </trkpt>
      <trkpt lat="47.636234" lon="7.812469">
        <ele>434.395051</ele>
        <time>2021-11-14T17:28:53.869Z</time>
      </trkpt>
      <trkpt lat="47.636362" lon="7.812419">
        <ele>433.389846</ele>
        <time>2021-11-14T17:28:55.073Z</time>
      </trkpt>
      <trkpt lat="47.636514" lon="7.812384">
        <ele>432.221673</ele>
        <time>2021-11-14T17:28:56.432Z</time>
      </trkpt>
      <trkpt lat="47.637056" lon="7.812257">
        <ele>428.054473</ele>
        <time>2021-11-14T17:29:01.350Z</time>
      </trkpt>
      <trkpt lat="47.637370" lon="7.812117">
        <ele>425.564513</ele>
        <time>2021-11-14T17:29:04.255Z</time>
      </trkpt>
      <trkpt lat="47.637893" lon="7.811811">
        <ele>421.359911</ele>
        <time>2021-11-14T17:29:09.136Z</time>
      </trkpt>
      <trkpt lat="47.638511" lon="7.811552">
        <ele>416.630321</ele>
        <time>2021-11-14T17:29:14.850Z</time>
      </trkpt>
      <trkpt lat="47.638925" lon="7.811482">
        <ele>413.561474</ele>
        <time>2021-11-14T17:29:18.556Z</time>
      </trkpt>
      <trkpt lat="47.638925" lon="7.811482">
        <ele>413.561474</ele>
        <time>2021-11-14T17:29:18.566Z</time>
      </trkpt>
      <trkpt lat="47.639195" lon="7.811442">
        <ele>411.563033</ele>
        <time>2021-11-14T17:29:21.023Z</time>
      </trkpt>
      <trkpt lat="47.639796" lon="7.811469">
        <ele>408.602430</ele>
        <time>2021-11-14T17:29:26.605Z</time>
      </trkpt>
      <trkpt lat="47.639913" lon="7.811500">
        <ele>408.147052</ele>
        <time>2021-11-14T17:29:27.708Z</time>
      </trkpt>
      <trkpt lat="47.640114" lon="7.811584">
        <ele>407.346964</ele>
        <time>2021-11-14T17:29:29.741Z</time>
      </trkpt>
      <trkpt lat="47.640311" lon="7.811772">
        <ele>406.449577</ele>
        <time>2021-11-14T17:29:32.055Z</time>
      </trkpt>
      <trkpt lat="47.640406" lon="7.811979">
        <ele>405.802993</ele>
        <time>2021-11-14T17:29:33.814Z</time>
      </trkpt>
      <trkpt lat="47.640965" lon="7.814694">
        <ele>399.259147</ele>
        <time>2021-11-14T17:29:54.347Z</time>
      </trkpt>
      <trkpt lat="47.641246" lon="7.815390">
        <ele>397.470175</ele>
        <time>2021-11-14T17:29:59.639Z</time>
      </trkpt>
      <trkpt lat="47.641404" lon="7.815775">
        <ele>395.209189</ele>
        <time>2021-11-14T17:30:02.428Z</time>
      </trkpt>
      <trkpt lat="47.641514" lon="7.816229">
        <ele>392.789377</ele>
        <time>2021-11-14T17:30:05.332Z</time>
      </trkpt>
      <trkpt lat="47.641687" lon="7.816751">
        <ele>389.871680</ele>
        <time>2021-11-14T17:30:08.793Z</time>
      </trkpt>
      <trkpt lat="47.641819" lon="7.816919">
        <ele>388.577265</ele>
        <time>2021-11-14T17:30:10.305Z</time>
      </trkpt>
      <trkpt lat="47.641916" lon="7.816921">
        <ele>387.855125</ele>
        <time>2021-11-14T17:30:11.152Z</time>
      </trkpt>
      <trkpt lat="47.642138" lon="7.816906">
        <ele>386.200841</ele>
        <time>2021-11-14T17:30:13.092Z</time>
      </trkpt>
      <trkpt lat="47.642758" lon="7.816795">
        <ele>381.992464</ele>
        <time>2021-11-14T17:30:18.569Z</time>
      </trkpt>
      <trkpt lat="47.642952" lon="7.816765">
        <ele>380.787350</ele>
        <time>2021-11-14T17:30:20.288Z</time>
      </trkpt>
      <trkpt lat="47.643638" lon="7.816626">
        <ele>376.509598</ele>
        <time>2021-11-14T17:30:26.520Z</time>
      </trkpt>
      <trkpt lat="47.643909" lon="7.816574">
        <ele>374.821295</ele>
        <time>2021-11-14T17:30:29.131Z</time>
      </trkpt>
      <trkpt lat="47.644357" lon="7.816478">
        <ele>372.831527</ele>
        <time>2021-11-14T17:30:33.717Z</time>
      </trkpt>
      <trkpt lat="47.644797" lon="7.816399">
        <ele>372.291993</ele>
        <time>2021-11-14T17:30:38.855Z</time>
      </trkpt>
      <trkpt lat="47.644927" lon="7.816376">
        <ele>372.132619</ele>
        <time>2021-11-14T17:30:40.454Z</time>
      </trkpt>
      <trkpt lat="47.645154" lon="7.816347">
        <ele>371.855261</ele>
        <time>2021-11-14T17:30:43.323Z</time>
      </trkpt>
      <trkpt lat="47.645328" lon="7.816364">
        <ele>371.642985</ele>
        <time>2021-11-14T17:30:45.623Z</time>
      </trkpt>
      <trkpt lat="47.645421" lon="7.816394">
        <ele>371.527130</ele>
        <time>2021-11-14T17:30:46.907Z</time>
      </trkpt>
      <trkpt lat="47.645433" lon="7.816418">
        <ele>371.502618</ele>
        <time>2021-11-14T17:30:47.189Z</time>
      </trkpt>
      <trkpt lat="47.645449" lon="7.816438">
        <ele>371.477154</ele>
        <time>2021-11-14T17:30:47.474Z</time>
      </trkpt>
      <trkpt lat="47.645479" lon="7.816460">
        <ele>371.436420</ele>
        <time>2021-11-14T17:30:47.938Z</time>
      </trkpt>
      <trkpt lat="47.645574" lon="7.816439">
        <ele>371.319497</ele>
        <time>2021-11-14T17:30:49.261Z</time>
      </trkpt>
      <trkpt lat="47.645598" lon="7.816405">
        <ele>371.279110</ele>
        <time>2021-11-14T17:30:49.732Z</time>
      </trkpt>
      <trkpt lat="47.645612" lon="7.816369">
        <ele>371.245019</ele>
        <time>2021-11-14T17:30:50.120Z</time>
      </trkpt>
      <trkpt lat="47.645701" lon="7.816302">
        <ele>371.123538</ele>
        <time>2021-11-14T17:30:51.486Z</time>
      </trkpt>
      <trkpt lat="47.645797" lon="7.816274">
        <ele>371.004438</ele>
        <time>2021-11-14T17:30:52.850Z</time>
      </trkpt>
      <trkpt lat="47.645844" lon="7.816242">
        <ele>370.941491</ele>
        <time>2021-11-14T17:30:53.561Z</time>
      </trkpt>
      <trkpt lat="47.645949" lon="7.816228">
        <ele>370.837773</ele>
        <time>2021-11-14T17:30:55.068Z</time>
      </trkpt>
      <trkpt lat="47.646346" lon="7.816173">
        <ele>370.798199</ele>
        <time>2021-11-14T17:31:00.876Z</time>
      </trkpt>
      <trkpt lat="47.646609" lon="7.816150">
        <ele>370.772051</ele>
        <time>2021-11-14T17:31:04.665Z</time>
      </trkpt>
      <trkpt lat="47.646940" lon="7.816087">
        <ele>370.738930</ele>
        <time>2021-11-14T17:31:09.356Z</time>
      </trkpt>
      <trkpt lat="47.647306" lon="7.815996">
        <ele>370.702098</ele>
        <time>2021-11-14T17:31:14.607Z</time>
      </trkpt>
      <trkpt lat="47.647662" lon="7.815885">
        <ele>370.665993</ele>
        <time>2021-11-14T17:31:20.065Z</time>
      </trkpt>
      <trkpt lat="47.647716" lon="7.815862">
        <ele>370.664241</ele>
        <time>2021-11-14T17:31:20.955Z</time>
      </trkpt>
      <trkpt lat="47.647785" lon="7.815818">
        <ele>370.684628</ele>
        <time>2021-11-14T17:31:22.118Z</time>
      </trkpt>
      <trkpt lat="47.647894" lon="7.815775">
        <ele>370.715247</ele>
        <time>2021-11-14T17:31:23.825Z</time>
      </trkpt>
      <trkpt lat="47.647965" lon="7.815741">
        <ele>370.735500</ele>
        <time>2021-11-14T17:31:25.000Z</time>
      </trkpt>
      <trkpt lat="47.648042" lon="7.815683">
        <ele>370.758942</ele>
        <time>2021-11-14T17:31:26.391Z</time>
      </trkpt>
      <trkpt lat="47.648065" lon="7.815705">
        <ele>370.766370</ele>
        <time>2021-11-14T17:31:26.787Z</time>
      </trkpt>
      <trkpt lat="47.648144" lon="7.815719">
        <ele>370.787969</ele>
        <time>2021-11-14T17:31:28.056Z</time>
      </trkpt>
      <trkpt lat="47.648170" lon="7.815706">
        <ele>370.795417</ele>
        <time>2021-11-14T17:31:28.436Z</time>
      </trkpt>
      <trkpt lat="47.648257" lon="7.815774">
        <ele>370.822110</ele>
        <time>2021-11-14T17:31:29.979Z</time>
      </trkpt>
      <trkpt lat="47.648299" lon="7.815806">
        <ele>370.834927</ele>
        <time>2021-11-14T17:31:30.740Z</time>
      </trkpt>
      <trkpt lat="47.648460" lon="7.816084">
        <ele>370.901975</ele>
        <time>2021-11-14T17:31:34.505Z</time>
      </trkpt>
      <trkpt lat="47.648601" lon="7.816406">
        <ele>370.972213</ele>
        <time>2021-11-14T17:31:38.775Z</time>
      </trkpt>
      <trkpt lat="47.648715" lon="7.816710">
        <ele>371.035845</ele>
        <time>2021-11-14T17:31:42.581Z</time>
      </trkpt>
      <trkpt lat="47.648734" lon="7.816774">
        <ele>371.048636</ele>
        <time>2021-11-14T17:31:43.392Z</time>
      </trkpt>
      <trkpt lat="47.648907" lon="7.817325">
        <ele>371.175414</ele>
        <time>2021-11-14T17:31:50.138Z</time>
      </trkpt>
      <trkpt lat="47.649039" lon="7.817840">
        <ele>371.432181</ele>
        <time>2021-11-14T17:31:56.447Z</time>
      </trkpt>
      <trkpt lat="47.649051" lon="7.817919">
        <ele>371.469918</ele>
        <time>2021-11-14T17:31:57.270Z</time>
      </trkpt>
      <trkpt lat="47.649066" lon="7.818016">
        <ele>371.516294</ele>
        <time>2021-11-14T17:31:58.397Z</time>
      </trkpt>
      <trkpt lat="47.649107" lon="7.818248">
        <ele>371.628061</ele>
        <time>2021-11-14T17:32:01.242Z</time>
      </trkpt>
      <trkpt lat="47.649130" lon="7.818388">
        <ele>371.695211</ele>
        <time>2021-11-14T17:32:02.914Z</time>
      </trkpt>
      <trkpt lat="47.649183" lon="7.818814">
        <ele>371.897078</ele>
        <time>2021-11-14T17:32:08.034Z</time>
      </trkpt>
      <trkpt lat="47.649190" lon="7.818874">
        <ele>371.925453</ele>
        <time>2021-11-14T17:32:08.767Z</time>
      </trkpt>
      <trkpt lat="47.649291" lon="7.819778">
        <ele>372.352458</ele>
        <time>2021-11-14T17:32:19.833Z</time>
      </trkpt>
      <trkpt lat="47.649334" lon="7.820073">
        <ele>372.484257</ele>
        <time>2021-11-14T17:32:23.545Z</time>
      </trkpt>
      <trkpt lat="47.649375" lon="7.820216">
        <ele>372.550218</ele>
        <time>2021-11-14T17:32:26.215Z</time>
      </trkpt>
      <trkpt lat="47.649395" lon="7.820289">
        <ele>372.583666</ele>
        <time>2021-11-14T17:32:27.547Z</time>
      </trkpt>
      <trkpt lat="47.649426" lon="7.820396">
        <ele>372.633102</ele>
        <time>2021-11-14T17:32:29.448Z</time>
      </trkpt>
      <trkpt lat="47.649484" lon="7.820580">
        <ele>372.719323</ele>
        <time>2021-11-14T17:32:32.933Z</time>
      </trkpt>
      <trkpt lat="47.649728" lon="7.821232">
        <ele>373.035882</ele>
        <time>2021-11-14T17:32:45.049Z</time>
      </trkpt>
      <trkpt lat="47.649921" lon="7.821701">
        <ele>373.269139</ele>
        <time>2021-11-14T17:32:53.033Z</time>
      </trkpt>
      <trkpt lat="47.650014" lon="7.821990">
        <ele>373.405074</ele>
        <time>2021-11-14T17:32:57.437Z</time>
      </trkpt>
      <trkpt lat="47.650051" lon="7.822186">
        <ele>373.491466</ele>
        <time>2021-11-14T17:33:00.319Z</time>
      </trkpt>
      <trkpt lat="47.650127" lon="7.822807">
        <ele>373.495191</ele>
        <time>2021-11-14T17:33:09.239Z</time>
      </trkpt>
      <trkpt lat="47.650206" lon="7.823190">
        <ele>373.471847</ele>
        <time>2021-11-14T17:33:14.626Z</time>
      </trkpt>
      <trkpt lat="47.650224" lon="7.823253">
        <ele>373.467859</ele>
        <time>2021-11-14T17:33:15.651Z</time>
      </trkpt>
      <trkpt lat="47.650269" lon="7.823413">
        <ele>373.457754</ele>
        <time>2021-11-14T17:33:18.279Z</time>
      </trkpt>
      <trkpt lat="47.650368" lon="7.823542">
        <ele>373.446358</ele>
        <time>2021-11-14T17:33:20.691Z</time>
      </trkpt>
      <trkpt lat="47.650610" lon="7.823497">
        <ele>373.425259</ele>
        <time>2021-11-14T17:33:25.979Z</time>
      </trkpt>
      <trkpt lat="47.650952" lon="7.823452">
        <ele>373.395556</ele>
        <time>2021-11-14T17:33:32.606Z</time>
      </trkpt>
      <trkpt lat="47.651083" lon="7.823437">
        <ele>373.384189</ele>
        <time>2021-11-14T17:33:34.755Z</time>
      </trkpt>
      <trkpt lat="47.651188" lon="7.823521">
        <ele>373.373870</ele>
        <time>2021-11-14T17:33:37.010Z</time>
      </trkpt>
      <trkpt lat="47.651424" lon="7.824011">
        <ele>373.398805</ele>
        <time>2021-11-14T17:33:42.160Z</time>
      </trkpt>
      <trkpt lat="47.651700" lon="7.824581">
        <ele>373.432974</ele>
        <time>2021-11-14T17:33:49.092Z</time>
      </trkpt>
      <trkpt lat="47.651748" lon="7.824704">
        <ele>373.439893</ele>
        <time>2021-11-14T17:33:50.357Z</time>
      </trkpt>
      <trkpt lat="47.651735" lon="7.824721">
        <ele>373.441145</ele>
        <time>2021-11-14T17:33:50.656Z</time>
      </trkpt>
      <trkpt lat="47.651725" lon="7.824741">
        <ele>373.442357</ele>
        <time>2021-11-14T17:33:50.939Z</time>
      </trkpt>
      <trkpt lat="47.651712" lon="7.824812">
        <ele>373.445939</ele>
        <time>2021-11-14T17:33:51.792Z</time>
      </trkpt>
      <trkpt lat="47.651715" lon="7.824847">
        <ele>373.447656</ele>
        <time>2021-11-14T17:33:52.194Z</time>
      </trkpt>
      <trkpt lat="47.651720" lon="7.824865">
        <ele>373.448604</ele>
        <time>2021-11-14T17:33:52.356Z</time>
      </trkpt>
      <trkpt lat="47.651777" lon="7.824939">
        <ele>373.454076</ele>
        <time>2021-11-14T17:33:53.771Z</time>
      </trkpt>
      <trkpt lat="47.651852" lon="7.824922">
        <ele>373.459558</ele>
        <time>2021-11-14T17:33:55.153Z</time>
      </trkpt>
      <trkpt lat="47.651867" lon="7.824904">
        <ele>373.460951</ele>
        <time>2021-11-14T17:33:55.396Z</time>
      </trkpt>
      <trkpt lat="47.651910" lon="7.824975">
        <ele>373.465599</ele>
        <time>2021-11-14T17:33:56.299Z</time>
      </trkpt>
      <trkpt lat="47.652129" lon="7.825338">
        <ele>373.489318</ele>
        <time>2021-11-14T17:34:02.119Z</time>
      </trkpt>
      <trkpt lat="47.652752" lon="7.826545">
        <ele>374.276121</ele>
        <time>2021-11-14T17:34:19.754Z</time>
      </trkpt>
      <trkpt lat="47.652860" lon="7.826738">
        <ele>374.428999</ele>
        <time>2021-11-14T17:34:22.581Z</time>
      </trkpt>
      <trkpt lat="47.652994" lon="7.826927">
        <ele>374.596188</ele>
        <time>2021-11-14T17:34:26.193Z</time>
      </trkpt>
      <trkpt lat="47.653183" lon="7.827196">
        <ele>374.833019</ele>
        <time>2021-11-14T17:34:31.442Z</time>
      </trkpt>
      <trkpt lat="47.653415" lon="7.827515">
        <ele>375.119051</ele>
        <time>2021-11-14T17:34:37.770Z</time>
      </trkpt>
      <trkpt lat="47.653907" lon="7.828156">
        <ele>376.021539</ele>
        <time>2021-11-14T17:34:51.169Z</time>
      </trkpt>
      <trkpt lat="47.654070" lon="7.828370">
        <ele>376.323184</ele>
        <time>2021-11-14T17:34:55.689Z</time>
      </trkpt>
      <trkpt lat="47.654075" lon="7.828375">
        <ele>376.331541</ele>
        <time>2021-11-14T17:34:55.808Z</time>
      </trkpt>
      <trkpt lat="47.654190" lon="7.828544">
        <ele>376.555859</ele>
        <time>2021-11-14T17:34:58.989Z</time>
      </trkpt>
      <trkpt lat="47.654262" lon="7.828656">
        <ele>376.700427</ele>
        <time>2021-11-14T17:35:01.115Z</time>
      </trkpt>
      <trkpt lat="47.654358" lon="7.828807">
        <ele>376.894313</ele>
        <time>2021-11-14T17:35:03.953Z</time>
      </trkpt>
      <trkpt lat="47.654444" lon="7.828940">
        <ele>377.066466</ele>
        <time>2021-11-14T17:35:06.397Z</time>
      </trkpt>
      <trkpt lat="47.654588" lon="7.829170">
        <ele>377.359680</ele>
        <time>2021-11-14T17:35:10.801Z</time>
      </trkpt>
      <trkpt lat="47.654726" lon="7.829362">
        <ele>377.621873</ele>
        <time>2021-11-14T17:35:14.679Z</time>
      </trkpt>
      <trkpt lat="47.654782" lon="7.829439">
        <ele>377.736019</ele>
        <time>2021-11-14T17:35:16.332Z</time>
      </trkpt>
      <trkpt lat="47.654883" lon="7.829540">
        <ele>377.918129</ele>
        <time>2021-11-14T17:35:18.890Z</time>
      </trkpt>
      <trkpt lat="47.654985" lon="7.829643">
        <ele>378.102606</ele>
        <time>2021-11-14T17:35:21.439Z</time>
      </trkpt>
      <trkpt lat="47.655209" lon="7.829806">
        <ele>378.475660</ele>
        <time>2021-11-14T17:35:26.762Z</time>
      </trkpt>
      <trkpt lat="47.655222" lon="7.829815">
        <ele>378.497111</ele>
        <time>2021-11-14T17:35:27.066Z</time>
      </trkpt>
      <trkpt lat="47.655374" lon="7.829968">
        <ele>378.771740</ele>
        <time>2021-11-14T17:35:30.919Z</time>
      </trkpt>
      <trkpt lat="47.655408" lon="7.830008">
        <ele>378.836614</ele>
        <time>2021-11-14T17:35:31.871Z</time>
      </trkpt>
      <trkpt lat="47.655408" lon="7.830008">
        <ele>378.836614</ele>
        <time>2021-11-14T17:35:31.889Z</time>
      </trkpt>
      <trkpt lat="47.655442" lon="7.830047">
        <ele>378.900868</ele>
        <time>2021-11-14T17:35:32.799Z</time>
      </trkpt>
      <trkpt lat="47.655515" lon="7.830187">
        <ele>379.079207</ele>
        <time>2021-11-14T17:35:35.346Z</time>
      </trkpt>
      <trkpt lat="47.655554" lon="7.830341">
        <ele>379.244934</ele>
        <time>2021-11-14T17:35:37.673Z</time>
      </trkpt>
      <trkpt lat="47.655653" lon="7.830727">
        <ele>379.660986</ele>
        <time>2021-11-14T17:35:43.702Z</time>
      </trkpt>
      <trkpt lat="47.655840" lon="7.831150">
        <ele>380.170648</ele>
        <time>2021-11-14T17:35:50.743Z</time>
      </trkpt>
      <trkpt lat="47.656104" lon="7.831597">
        <ele>380.680528</ele>
        <time>2021-11-14T17:35:58.466Z</time>
      </trkpt>
      <trkpt lat="47.656204" lon="7.831766">
        <ele>380.863109</ele>
        <time>2021-11-14T17:36:01.424Z</time>
      </trkpt>
      <trkpt lat="47.656353" lon="7.831972">
        <ele>381.108450</ele>
        <time>2021-11-14T17:36:05.296Z</time>
      </trkpt>
      <trkpt lat="47.656381" lon="7.832009">
        <ele>381.153619</ele>
        <time>2021-11-14T17:36:06.017Z</time>
      </trkpt>
      <trkpt lat="47.656646" lon="7.832178">
        <ele>381.501156</ele>
        <time>2021-11-14T17:36:11.570Z</time>
      </trkpt>
      <trkpt lat="47.656858" lon="7.832309">
        <ele>381.777859</ele>
        <time>2021-11-14T17:36:16.274Z</time>
      </trkpt>
      <trkpt lat="47.656918" lon="7.832343">
        <ele>381.855246</ele>
        <time>2021-11-14T17:36:17.523Z</time>
      </trkpt>
      <trkpt lat="47.657265" lon="7.832541">
        <ele>382.303197</ele>
        <time>2021-11-14T17:36:24.908Z</time>
      </trkpt>
      <trkpt lat="47.657510" lon="7.832688">
        <ele>382.588059</ele>
        <time>2021-11-14T17:36:30.092Z</time>
      </trkpt>
      <trkpt lat="47.657731" lon="7.832916">
        <ele>382.836124</ele>
        <time>2021-11-14T17:36:35.125Z</time>
      </trkpt>
      <trkpt lat="47.657918" lon="7.833307">
        <ele>383.133852</ele>
        <time>2021-11-14T17:36:40.997Z</time>
      </trkpt>
      <trkpt lat="47.657971" lon="7.833428">
        <ele>383.223464</ele>
        <time>2021-11-14T17:36:42.845Z</time>
      </trkpt>
      <trkpt lat="47.658041" lon="7.833588">
        <ele>383.341918</ele>
        <time>2021-11-14T17:36:45.115Z</time>
      </trkpt>
      <trkpt lat="47.658080" lon="7.833668">
        <ele>383.403231</ele>
        <time>2021-11-14T17:36:46.392Z</time>
      </trkpt>
      <trkpt lat="47.658206" lon="7.833785">
        <ele>383.540219</ele>
        <time>2021-11-14T17:36:49.022Z</time>
      </trkpt>
      <trkpt lat="47.658404" lon="7.833911">
        <ele>383.738787</ele>
        <time>2021-11-14T17:36:52.958Z</time>
      </trkpt>
      <trkpt lat="47.658531" lon="7.833970">
        <ele>383.861448</ele>
        <time>2021-11-14T17:36:55.345Z</time>
      </trkpt>
      <trkpt lat="47.658687" lon="7.834028">
        <ele>384.009684</ele>
        <time>2021-11-14T17:36:58.264Z</time>
      </trkpt>
      <trkpt lat="47.658899" lon="7.834108">
        <ele>384.206306</ele>
        <time>2021-11-14T17:37:02.278Z</time>
      </trkpt>
      <trkpt lat="47.658993" lon="7.834108">
        <ele>384.287134</ele>
        <time>2021-11-14T17:37:03.958Z</time>
      </trkpt>
      <trkpt lat="47.659242" lon="7.834106">
        <ele>384.501245</ele>
        <time>2021-11-14T17:37:08.505Z</time>
      </trkpt>
      <trkpt lat="47.659432" lon="7.834106">
        <ele>384.664621</ele>
        <time>2021-11-14T17:37:11.994Z</time>
      </trkpt>
      <trkpt lat="47.659461" lon="7.834102">
        <ele>384.689665</ele>
        <time>2021-11-14T17:37:12.558Z</time>
      </trkpt>
      <trkpt lat="47.659633" lon="7.834077">
        <ele>384.838270</ele>
        <time>2021-11-14T17:37:15.481Z</time>
      </trkpt>
      <trkpt lat="47.659714" lon="7.834064">
        <ele>384.908325</ele>
        <time>2021-11-14T17:37:16.885Z</time>
      </trkpt>
      <trkpt lat="47.659735" lon="7.834061">
        <ele>384.926466</ele>
        <time>2021-11-14T17:37:17.276Z</time>
      </trkpt>
      <trkpt lat="47.659852" lon="7.834084">
        <ele>385.027949</ele>
        <time>2021-11-14T17:37:19.332Z</time>
      </trkpt>
      <trkpt lat="47.659990" lon="7.834167">
        <ele>385.155978</ele>
        <time>2021-11-14T17:37:21.973Z</time>
      </trkpt>
      <trkpt lat="47.660216" lon="7.834301">
        <ele>385.365232</ele>
        <time>2021-11-14T17:37:26.340Z</time>
      </trkpt>
      <trkpt lat="47.660300" lon="7.834365">
        <ele>385.446417</ele>
        <time>2021-11-14T17:37:28.202Z</time>
      </trkpt>
      <trkpt lat="47.660593" lon="7.834555">
        <ele>385.744690</ele>
        <time>2021-11-14T17:37:34.290Z</time>
      </trkpt>
      <trkpt lat="47.660968" lon="7.834797">
        <ele>386.312490</ele>
        <time>2021-11-14T17:37:42.554Z</time>
      </trkpt>
      <trkpt lat="47.661464" lon="7.835156">
        <ele>387.078734</ele>
        <time>2021-11-14T17:37:53.625Z</time>
      </trkpt>
      <trkpt lat="47.661488" lon="7.835209">
        <ele>387.138465</ele>
        <time>2021-11-14T17:37:54.493Z</time>
      </trkpt>
      <trkpt lat="47.661534" lon="7.835353">
        <ele>387.287523</ele>
        <time>2021-11-14T17:37:56.915Z</time>
      </trkpt>
      <trkpt lat="47.661603" lon="7.835641">
        <ele>387.573412</ele>
        <time>2021-11-14T17:38:01.028Z</time>
      </trkpt>
      <trkpt lat="47.661745" lon="7.835965">
        <ele>387.934944</ele>
        <time>2021-11-14T17:38:06.497Z</time>
      </trkpt>
      <trkpt lat="47.661816" lon="7.836129">
        <ele>388.117281</ele>
        <time>2021-11-14T17:38:09.246Z</time>
      </trkpt>
      <trkpt lat="47.661824" lon="7.836169">
        <ele>388.156305</ele>
        <time>2021-11-14T17:38:09.904Z</time>
      </trkpt>
      <trkpt lat="47.661824" lon="7.836203">
        <ele>388.187673</ele>
        <time>2021-11-14T17:38:10.426Z</time>
      </trkpt>
      <trkpt lat="47.661824" lon="7.836259">
        <ele>388.236857</ele>
        <time>2021-11-14T17:38:11.386Z</time>
      </trkpt>
      <trkpt lat="47.661497" lon="7.837504">
        <ele>389.410533</ele>
        <time>2021-11-14T17:38:29.977Z</time>
      </trkpt>
      <trkpt lat="47.661452" lon="7.837714">
        <ele>389.604085</ele>
        <time>2021-11-14T17:38:33.076Z</time>
      </trkpt>
      <trkpt lat="47.661437" lon="7.837781">
        <ele>389.666097</ele>
        <time>2021-11-14T17:38:34.212Z</time>
      </trkpt>
      <trkpt lat="47.661405" lon="7.837779">
        <ele>389.707863</ele>
        <time>2021-11-14T17:38:34.870Z</time>
      </trkpt>
      <trkpt lat="47.661347" lon="7.837817">
        <ele>389.790535</ele>
        <time>2021-11-14T17:38:35.987Z</time>
      </trkpt>
      <trkpt lat="47.661326" lon="7.837853">
        <ele>389.832364</ele>
        <time>2021-11-14T17:38:36.543Z</time>
      </trkpt>
      <trkpt lat="47.661313" lon="7.837897">
        <ele>389.874564</ele>
        <time>2021-11-14T17:38:37.184Z</time>
      </trkpt>
      <trkpt lat="47.661325" lon="7.837985">
        <ele>389.953422</ele>
        <time>2021-11-14T17:38:38.368Z</time>
      </trkpt>
      <trkpt lat="47.661332" lon="7.838033">
        <ele>389.996557</ele>
        <time>2021-11-14T17:38:39.012Z</time>
      </trkpt>
      <trkpt lat="47.661355" lon="7.838066">
        <ele>390.038266</ele>
        <time>2021-11-14T17:38:39.690Z</time>
      </trkpt>
      <trkpt lat="47.661387" lon="7.838089">
        <ele>390.084628</ele>
        <time>2021-11-14T17:38:40.460Z</time>
      </trkpt>
      <trkpt lat="47.661422" lon="7.838095">
        <ele>390.130573</ele>
        <time>2021-11-14T17:38:41.281Z</time>
      </trkpt>
      <trkpt lat="47.661457" lon="7.838084">
        <ele>390.177227</ele>
        <time>2021-11-14T17:38:41.985Z</time>
      </trkpt>
      <trkpt lat="47.661487" lon="7.838057">
        <ele>390.222974</ele>
        <time>2021-11-14T17:38:42.572Z</time>
      </trkpt>
      <trkpt lat="47.661509" lon="7.838016">
        <ele>390.269015</ele>
        <time>2021-11-14T17:38:43.176Z</time>
      </trkpt>
      <trkpt lat="47.661522" lon="7.837967">
        <ele>390.315270</ele>
        <time>2021-11-14T17:38:43.784Z</time>
      </trkpt>
      <trkpt lat="47.661603" lon="7.837979">
        <ele>390.421423</ele>
        <time>2021-11-14T17:38:45.339Z</time>
      </trkpt>
      <trkpt lat="47.661684" lon="7.837994">
        <ele>390.526770</ele>
        <time>2021-11-14T17:38:46.937Z</time>
      </trkpt>
      <trkpt lat="47.661749" lon="7.838001">
        <ele>390.540415</ele>
        <time>2021-11-14T17:38:48.242Z</time>
      </trkpt>
      <trkpt lat="47.662429" lon="7.838073">
        <ele>390.683150</ele>
        <time>2021-11-14T17:39:00.005Z</time>
      </trkpt>
      <trkpt lat="47.662483" lon="7.838090">
        <ele>390.694707</ele>
        <time>2021-11-14T17:39:01.014Z</time>
      </trkpt>
      <trkpt lat="47.662658" lon="7.838144">
        <ele>390.732130</ele>
        <time>2021-11-14T17:39:03.607Z</time>
      </trkpt>
      <trkpt lat="47.663000" lon="7.838251">
        <ele>390.805308</ele>
        <time>2021-11-14T17:39:08.585Z</time>
      </trkpt>
      <trkpt lat="47.663261" lon="7.838349">
        <ele>390.861675</ele>
        <time>2021-11-14T17:39:12.256Z</time>
      </trkpt>
      <trkpt lat="47.664640" lon="7.838771">
        <ele>390.517254</ele>
        <time>2021-11-14T17:39:31.133Z</time>
      </trkpt>
      <trkpt lat="47.665225" lon="7.838833">
        <ele>390.330197</ele>
        <time>2021-11-14T17:39:38.992Z</time>
      </trkpt>
      <trkpt lat="47.666547" lon="7.839224">
        <ele>390.760102</ele>
        <time>2021-11-14T17:40:01.570Z</time>
      </trkpt>
      <trkpt lat="47.666858" lon="7.839350">
        <ele>390.863258</ele>
        <time>2021-11-14T17:40:06.838Z</time>
      </trkpt>
      <trkpt lat="47.667237" lon="7.839925">
        <ele>390.965887</ele>
        <time>2021-11-14T17:40:15.296Z</time>
      </trkpt>
      <trkpt lat="47.667349" lon="7.840185">
        <ele>390.996640</ele>
        <time>2021-11-14T17:40:18.776Z</time>
      </trkpt>
      <trkpt lat="47.667418" lon="7.840394">
        <ele>391.019832</ele>
        <time>2021-11-14T17:40:21.109Z</time>
      </trkpt>
      <trkpt lat="47.667481" lon="7.840513">
        <ele>391.034915</ele>
        <time>2021-11-14T17:40:22.825Z</time>
      </trkpt>
      <trkpt lat="47.667557" lon="7.840605">
        <ele>391.049423</ele>
        <time>2021-11-14T17:40:24.414Z</time>
      </trkpt>
      <trkpt lat="47.667775" lon="7.840353">
        <ele>391.090299</ele>
        <time>2021-11-14T17:40:28.537Z</time>
      </trkpt>
      <trkpt lat="47.667849" lon="7.840278">
        <ele>391.103555</ele>
        <time>2021-11-14T17:40:29.938Z</time>
      </trkpt>
      <trkpt lat="47.668017" lon="7.840123">
        <ele>391.132819</ele>
        <time>2021-11-14T17:40:32.726Z</time>
      </trkpt>
      <trkpt lat="47.668277" lon="7.839973">
        <ele>391.174584</ele>
        <time>2021-11-14T17:40:36.803Z</time>
      </trkpt>
      <trkpt lat="47.668503" lon="7.839859">
        <ele>391.215855</ele>
        <time>2021-11-14T17:40:40.391Z</time>
      </trkpt>
      <trkpt lat="47.668742" lon="7.839785">
        <ele>391.258070</ele>
        <time>2021-11-14T17:40:43.796Z</time>
      </trkpt>
      <trkpt lat="47.668951" lon="7.839749">
        <ele>391.294451</ele>
        <time>2021-11-14T17:40:46.839Z</time>
      </trkpt>
      <trkpt lat="47.669145" lon="7.839725">
        <ele>391.328112</ele>
        <time>2021-11-14T17:40:49.598Z</time>
      </trkpt>
      <trkpt lat="47.669342" lon="7.839732">
        <ele>391.362186</ele>
        <time>2021-11-14T17:40:52.737Z</time>
      </trkpt>
      <trkpt lat="47.669504" lon="7.839746">
        <ele>391.390245</ele>
        <time>2021-11-14T17:40:55.322Z</time>
      </trkpt>
      <trkpt lat="47.670095" lon="7.839887">
        <ele>391.536809</ele>
        <time>2021-11-14T17:41:05.458Z</time>
      </trkpt>
      <trkpt lat="47.670198" lon="7.839918">
        <ele>391.622555</ele>
        <time>2021-11-14T17:41:07.206Z</time>
      </trkpt>
      <trkpt lat="47.670329" lon="7.839958">
        <ele>391.731673</ele>
        <time>2021-11-14T17:41:09.586Z</time>
      </trkpt>
      <trkpt lat="47.671099" lon="7.840326">
        <ele>392.391643</ele>
        <time>2021-11-14T17:41:23.853Z</time>
      </trkpt>
      <trkpt lat="47.673448" lon="7.841874">
        <ele>395.157854</ele>
        <time>2021-11-14T17:42:13.005Z</time>
      </trkpt>
      <trkpt lat="47.673479" lon="7.841894">
        <ele>395.206054</ele>
        <time>2021-11-14T17:42:14.344Z</time>
      </trkpt>
      <trkpt lat="47.675580" lon="7.843077">
        <ele>398.568561</ele>
        <time>2021-11-14T17:43:00.504Z</time>
      </trkpt>
      <trkpt lat="47.676217" lon="7.843482">
        <ele>399.749185</ele>
        <time>2021-11-14T17:43:15.475Z</time>
      </trkpt>
      <trkpt lat="47.676707" lon="7.843807">
        <ele>400.663481</ele>
        <time>2021-11-14T17:43:27.670Z</time>
      </trkpt>
      <trkpt lat="47.676955" lon="7.843987">
        <ele>401.079805</ele>
        <time>2021-11-14T17:43:34.146Z</time>
      </trkpt>
      <trkpt lat="47.677265" lon="7.844281">
        <ele>401.634559</ele>
        <time>2021-11-14T17:43:42.585Z</time>
      </trkpt>
      <trkpt lat="47.677760" lon="7.845024">
        <ele>402.696020</ele>
        <time>2021-11-14T17:43:57.523Z</time>
      </trkpt>
      <trkpt lat="47.677882" lon="7.845190">
        <ele>402.945572</ele>
        <time>2021-11-14T17:44:01.284Z</time>
      </trkpt>
      <trkpt lat="47.678030" lon="7.845350">
        <ele>403.221666</ele>
        <time>2021-11-14T17:44:04.657Z</time>
      </trkpt>
      <trkpt lat="47.678288" lon="7.845521">
        <ele>403.299884</ele>
        <time>2021-11-14T17:44:09.514Z</time>
      </trkpt>
      <trkpt lat="47.678498" lon="7.845590">
        <ele>403.209305</ele>
        <time>2021-11-14T17:44:12.746Z</time>
      </trkpt>
      <trkpt lat="47.679308" lon="7.845804">
        <ele>402.862821</ele>
        <time>2021-11-14T17:44:23.337Z</time>
      </trkpt>
      <trkpt lat="47.679502" lon="7.845853">
        <ele>402.779945</ele>
        <time>2021-11-14T17:44:25.683Z</time>
      </trkpt>
      <trkpt lat="47.679620" lon="7.845305">
        <ele>402.617239</ele>
        <time>2021-11-14T17:44:30.376Z</time>
      </trkpt>
      <trkpt lat="47.679662" lon="7.845129">
        <ele>402.579302</ele>
        <time>2021-11-14T17:44:31.895Z</time>
      </trkpt>
      <trkpt lat="47.679678" lon="7.845046">
        <ele>402.561761</ele>
        <time>2021-11-14T17:44:32.603Z</time>
      </trkpt>
      <trkpt lat="47.679758" lon="7.844433">
        <ele>402.434901</ele>
        <time>2021-11-14T17:44:37.928Z</time>
      </trkpt>
      <trkpt lat="47.679763" lon="7.844400">
        <ele>402.428028</ele>
        <time>2021-11-14T17:44:38.242Z</time>
      </trkpt>
      <trkpt lat="47.679766" lon="7.844373">
        <ele>402.422469</ele>
        <time>2021-11-14T17:44:38.516Z</time>
      </trkpt>
      <trkpt lat="47.679804" lon="7.844243">
        <ele>402.393675</ele>
        <time>2021-11-14T17:44:39.795Z</time>
      </trkpt>
      <trkpt lat="47.679816" lon="7.844207">
        <ele>402.385513</ele>
        <time>2021-11-14T17:44:40.168Z</time>
      </trkpt>
      <trkpt lat="47.679923" lon="7.843948">
        <ele>402.323776</ele>
        <time>2021-11-14T17:44:42.813Z</time>
      </trkpt>
      <trkpt lat="47.679996" lon="7.843847">
        <ele>402.293671</ele>
        <time>2021-11-14T17:44:44.284Z</time>
      </trkpt>
      <trkpt lat="47.680182" lon="7.843369">
        <ele>402.181504</ele>
        <time>2021-11-14T17:44:49.297Z</time>
      </trkpt>
      <trkpt lat="47.680373" lon="7.842875">
        <ele>402.107559</ele>
        <time>2021-11-14T17:44:55.777Z</time>
      </trkpt>
      <trkpt lat="47.680461" lon="7.842649">
        <ele>402.280710</ele>
        <time>2021-11-14T17:44:59.040Z</time>
      </trkpt>
      <trkpt lat="47.680579" lon="7.842331">
        <ele>402.521526</ele>
        <time>2021-11-14T17:45:03.688Z</time>
      </trkpt>
      <trkpt lat="47.680621" lon="7.842206">
        <ele>402.614179</ele>
        <time>2021-11-14T17:45:05.557Z</time>
      </trkpt>
      <trkpt lat="47.680661" lon="7.842117">
        <ele>402.685149</ele>
        <time>2021-11-14T17:45:06.957Z</time>
      </trkpt>
      <trkpt lat="47.680719" lon="7.842030">
        <ele>402.766350</ele>
        <time>2021-11-14T17:45:08.554Z</time>
      </trkpt>
      <trkpt lat="47.680749" lon="7.841945">
        <ele>402.830000</ele>
        <time>2021-11-14T17:45:09.793Z</time>
      </trkpt>
      <trkpt lat="47.680808" lon="7.841634">
        <ele>403.044293</ele>
        <time>2021-11-14T17:45:13.973Z</time>
      </trkpt>
      <trkpt lat="47.680845" lon="7.841405">
        <ele>403.200482</ele>
        <time>2021-11-14T17:45:16.868Z</time>
      </trkpt>
      <trkpt lat="47.680868" lon="7.841268">
        <ele>403.294125</ele>
        <time>2021-11-14T17:45:18.588Z</time>
      </trkpt>
      <trkpt lat="47.680912" lon="7.841226">
        <ele>403.345648</ele>
        <time>2021-11-14T17:45:19.756Z</time>
      </trkpt>
      <trkpt lat="47.681025" lon="7.841248">
        <ele>403.457914</ele>
        <time>2021-11-14T17:45:21.899Z</time>
      </trkpt>
      <trkpt lat="47.681200" lon="7.841340">
        <ele>403.640783</ele>
        <time>2021-11-14T17:45:25.264Z</time>
      </trkpt>
      <trkpt lat="47.681466" lon="7.840319">
        <ele>404.874258</ele>
        <time>2021-11-14T17:45:40.316Z</time>
      </trkpt>
      <trkpt lat="47.681588" lon="7.839751">
        <ele>405.655890</ele>
        <time>2021-11-14T17:45:48.917Z</time>
      </trkpt>
      <trkpt lat="47.681625" lon="7.839729">
        <ele>405.733498</ele>
        <time>2021-11-14T17:45:49.877Z</time>
      </trkpt>
      <trkpt lat="47.682010" lon="7.839763">
        <ele>406.484526</ele>
        <time>2021-11-14T17:45:58.748Z</time>
      </trkpt>
      <trkpt lat="47.682121" lon="7.839775">
        <ele>406.701247</ele>
        <time>2021-11-14T17:46:00.939Z</time>
      </trkpt>
      <trkpt lat="47.682152" lon="7.839703">
        <ele>406.813290</ele>
        <time>2021-11-14T17:46:02.533Z</time>
      </trkpt>
      <trkpt lat="47.682536" lon="7.838851">
        <ele>409.263240</ele>
        <time>2021-11-14T17:46:20.529Z</time>
      </trkpt>
      <trkpt lat="47.682678" lon="7.838656">
        <ele>410.155453</ele>
        <time>2021-11-14T17:46:27.348Z</time>
      </trkpt>
      <trkpt lat="47.682812" lon="7.838508">
        <ele>410.925854</ele>
        <time>2021-11-14T17:46:31.481Z</time>
      </trkpt>
      <trkpt lat="47.682841" lon="7.838433">
        <ele>411.194494</ele>
        <time>2021-11-14T17:46:33.476Z</time>
      </trkpt>
      <trkpt lat="47.682847" lon="7.838364">
        <ele>411.410591</ele>
        <time>2021-11-14T17:46:35.700Z</time>
      </trkpt>
      <trkpt lat="47.682785" lon="7.837857">
        <ele>413.011117</ele>
        <time>2021-11-14T17:46:47.050Z</time>
      </trkpt>
      <trkpt lat="47.682694" lon="7.837415">
        <ele>414.446747</ele>
        <time>2021-11-14T17:46:57.475Z</time>
      </trkpt>
      <trkpt lat="47.682664" lon="7.837273">
        <ele>414.909011</ele>
        <time>2021-11-14T17:47:02.687Z</time>
      </trkpt>
      <trkpt lat="47.682614" lon="7.836961">
        <ele>416.151798</ele>
        <time>2021-11-14T17:47:10.333Z</time>
      </trkpt>
      <trkpt lat="47.682672" lon="7.836018">
        <ele>421.914278</ele>
        <time>2021-11-14T17:47:40.451Z</time>
      </trkpt>
      <trkpt lat="47.682654" lon="7.835513">
        <ele>424.991734</ele>
        <time>2021-11-14T17:47:57.842Z</time>
      </trkpt>
      <trkpt lat="47.682434" lon="7.834532">
        <ele>431.284072</ele>
        <time>2021-11-14T17:48:38.542Z</time>
      </trkpt>
      <trkpt lat="47.682434" lon="7.834307">
        <ele>432.616660</ele>
        <time>2021-11-14T17:48:47.439Z</time>
      </trkpt>
      <trkpt lat="47.682434" lon="7.834262">
        <ele>432.877075</ele>
        <time>2021-11-14T17:48:49.377Z</time>
      </trkpt>
      <trkpt lat="47.682516" lon="7.834067">
        <ele>434.207581</ele>
        <time>2021-11-14T17:48:59.611Z</time>
      </trkpt>
      <trkpt lat="47.683294" lon="7.833102">
        <ele>442.920109</ele>
        <time>2021-11-14T17:49:48.850Z</time>
      </trkpt>
      <trkpt lat="47.683348" lon="7.832943">
        <ele>443.950677</ele>
        <time>2021-11-14T17:49:57.353Z</time>
      </trkpt>
      <trkpt lat="47.683345" lon="7.832813">
        <ele>444.703416</ele>
        <time>2021-11-14T17:50:00.018Z</time>
      </trkpt>
      <trkpt lat="47.683234" lon="7.832564">
        <ele>446.431613</ele>
        <time>2021-11-14T17:50:07.103Z</time>
      </trkpt>
      <trkpt lat="47.683133" lon="7.832512">
        <ele>447.350457</ele>
        <time>2021-11-14T17:50:13.514Z</time>
      </trkpt>
      <trkpt lat="47.682996" lon="7.832511">
        <ele>448.218555</ele>
        <time>2021-11-14T17:50:16.865Z</time>
      </trkpt>
      <trkpt lat="47.682916" lon="7.832511">
        <ele>448.722913</ele>
        <time>2021-11-14T17:50:18.737Z</time>
      </trkpt>
      <trkpt lat="47.682399" lon="7.832581">
        <ele>451.995835</ele>
        <time>2021-11-14T17:50:41.226Z</time>
      </trkpt>
      <trkpt lat="47.682223" lon="7.832462">
        <ele>453.214972</ele>
        <time>2021-11-14T17:50:45.173Z</time>
      </trkpt>
      <trkpt lat="47.682050" lon="7.832161">
        <ele>454.894783</ele>
        <time>2021-11-14T17:50:57.121Z</time>
      </trkpt>
      <trkpt lat="47.681811" lon="7.830472">
        <ele>464.154427</ele>
        <time>2021-11-14T17:51:45.463Z</time>
      </trkpt>
      <trkpt lat="47.681445" lon="7.829227">
        <ele>473.094402</ele>
        <time>2021-11-14T17:52:42.458Z</time>
      </trkpt>
      <trkpt lat="47.681460" lon="7.827706">
        <ele>480.120259</ele>
        <time>2021-11-14T17:53:39.408Z</time>
      </trkpt>
      <trkpt lat="47.681448" lon="7.827447">
        <ele>481.080794</ele>
        <time>2021-11-14T17:53:48.270Z</time>
      </trkpt>
      <trkpt lat="47.681412" lon="7.827153">
        <ele>482.186404</ele>
        <time>2021-11-14T17:53:54.013Z</time>
      </trkpt>
      <trkpt lat="47.681374" lon="7.826845">
        <ele>483.344945</ele>
        <time>2021-11-14T17:54:00.979Z</time>
      </trkpt>
      <trkpt lat="47.681357" lon="7.826420">
        <ele>484.920170</ele>
        <time>2021-11-14T17:54:08.288Z</time>
      </trkpt>
      <trkpt lat="47.681396" lon="7.826266">
        <ele>485.528929</ele>
        <time>2021-11-14T17:54:09.525Z</time>
      </trkpt>
      <trkpt lat="47.681571" lon="7.825612">
        <ele>483.895995</ele>
        <time>2021-11-14T17:54:15.085Z</time>
      </trkpt>
      <trkpt lat="47.681600" lon="7.824099">
        <ele>477.396904</ele>
        <time>2021-11-14T17:54:24.208Z</time>
      </trkpt>
      <trkpt lat="47.681517" lon="7.823246">
        <ele>472.947748</ele>
        <time>2021-11-14T17:54:29.187Z</time>
      </trkpt>
      <trkpt lat="47.681574" lon="7.822940">
        <ele>470.568501</ele>
        <time>2021-11-14T17:54:31.011Z</time>
      </trkpt>
      <trkpt lat="47.681665" lon="7.822699">
        <ele>468.497852</ele>
        <time>2021-11-14T17:54:32.596Z</time>
      </trkpt>
      <trkpt lat="47.681817" lon="7.822473">
        <ele>466.103970</ele>
        <time>2021-11-14T17:54:34.420Z</time>
      </trkpt>
      <trkpt lat="47.681887" lon="7.822212">
        <ele>463.998624</ele>
        <time>2021-11-14T17:54:36.027Z</time>
      </trkpt>
      <trkpt lat="47.681766" lon="7.821422">
        <ele>457.927303</ele>
        <time>2021-11-14T17:54:40.647Z</time>
      </trkpt>
      <trkpt lat="47.681877" lon="7.819910">
        <ele>447.100066</ele>
        <time>2021-11-14T17:54:49.362Z</time>
      </trkpt>
      <trkpt lat="47.682010" lon="7.819020">
        <ele>440.746469</ele>
        <time>2021-11-14T17:54:54.621Z</time>
      </trkpt>
      <trkpt lat="47.681897" lon="7.817699">
        <ele>432.560699</ele>
        <time>2021-11-14T17:55:02.457Z</time>
      </trkpt>
      <trkpt lat="47.681888" lon="7.817577">
        <ele>431.909107</ele>
        <time>2021-11-14T17:55:03.160Z</time>
      </trkpt>
      <trkpt lat="47.681841" lon="7.816950">
        <ele>428.559706</ele>
        <time>2021-11-14T17:55:06.927Z</time>
      </trkpt>
      <trkpt lat="47.681635" lon="7.816064">
        <ele>423.583188</ele>
        <time>2021-11-14T17:55:12.566Z</time>
      </trkpt>
      <trkpt lat="47.681633" lon="7.815463">
        <ele>420.634981</ele>
        <time>2021-11-14T17:55:16.184Z</time>
      </trkpt>
      <trkpt lat="47.681582" lon="7.815018">
        <ele>418.629963</ele>
        <time>2021-11-14T17:55:18.964Z</time>
      </trkpt>
      <trkpt lat="47.681333" lon="7.813912">
        <ele>413.449965</ele>
        <time>2021-11-14T17:55:26.077Z</time>
      </trkpt>
      <trkpt lat="47.681213" lon="7.813581">
        <ele>411.780123</ele>
        <time>2021-11-14T17:55:28.368Z</time>
      </trkpt>
      <trkpt lat="47.680853" lon="7.813173">
        <ele>408.925841</ele>
        <time>2021-11-14T17:55:32.510Z</time>
      </trkpt>
      <trkpt lat="47.680720" lon="7.813097">
        <ele>408.088505</ele>
        <time>2021-11-14T17:55:33.787Z</time>
      </trkpt>
      <trkpt lat="47.680673" lon="7.813069">
        <ele>407.790951</ele>
        <time>2021-11-14T17:55:34.265Z</time>
      </trkpt>
      <trkpt lat="47.680556" lon="7.813008">
        <ele>407.062346</ele>
        <time>2021-11-14T17:55:35.405Z</time>
      </trkpt>
      <trkpt lat="47.680106" lon="7.812771">
        <ele>404.256879</ele>
        <time>2021-11-14T17:55:39.794Z</time>
      </trkpt>
      <trkpt lat="47.679997" lon="7.812644">
        <ele>403.442856</ele>
        <time>2021-11-14T17:55:41.069Z</time>
      </trkpt>
      <trkpt lat="47.679881" lon="7.812508">
        <ele>402.574490</ele>
        <time>2021-11-14T17:55:42.451Z</time>
      </trkpt>
      <trkpt lat="47.679652" lon="7.811961">
        <ele>400.026270</ele>
        <time>2021-11-14T17:55:46.442Z</time>
      </trkpt>
      <trkpt lat="47.679497" lon="7.811387">
        <ele>397.703886</ele>
        <time>2021-11-14T17:55:50.334Z</time>
      </trkpt>
      <trkpt lat="47.679500" lon="7.810889">
        <ele>395.865097</ele>
        <time>2021-11-14T17:55:53.461Z</time>
      </trkpt>
      <trkpt lat="47.679610" lon="7.810461">
        <ele>394.173616</ele>
        <time>2021-11-14T17:55:56.349Z</time>
      </trkpt>
      <trkpt lat="47.679764" lon="7.810248">
        <ele>393.019622</ele>
        <time>2021-11-14T17:55:58.237Z</time>
      </trkpt>
      <trkpt lat="47.680117" lon="7.810231">
        <ele>391.082780</ele>
        <time>2021-11-14T17:56:01.493Z</time>
      </trkpt>
      <trkpt lat="47.680344" lon="7.810270">
        <ele>389.829630</ele>
        <time>2021-11-14T17:56:03.653Z</time>
      </trkpt>
      <trkpt lat="47.680478" lon="7.810261">
        <ele>389.300027</ele>
        <time>2021-11-14T17:56:04.902Z</time>
      </trkpt>
      <trkpt lat="47.680747" lon="7.810201">
        <ele>388.442388</ele>
        <time>2021-11-14T17:56:07.516Z</time>
      </trkpt>
      <trkpt lat="47.680942" lon="7.809996">
        <ele>387.689156</ele>
        <time>2021-11-14T17:56:09.915Z</time>
      </trkpt>
      <trkpt lat="47.680998" lon="7.809904">
        <ele>387.425884</ele>
        <time>2021-11-14T17:56:10.690Z</time>
      </trkpt>
      <trkpt lat="47.681079" lon="7.809770">
        <ele>387.043616</ele>
        <time>2021-11-14T17:56:11.877Z</time>
      </trkpt>
      <trkpt lat="47.681122" lon="7.809701">
        <ele>386.844034</ele>
        <time>2021-11-14T17:56:12.598Z</time>
      </trkpt>
      <trkpt lat="47.681184" lon="7.809580">
        <ele>386.521261</ele>
        <time>2021-11-14T17:56:13.662Z</time>
      </trkpt>
      <trkpt lat="47.681323" lon="7.809226">
        <ele>385.651364</ele>
        <time>2021-11-14T17:56:16.483Z</time>
      </trkpt>
      <trkpt lat="47.681416" lon="7.808985">
        <ele>385.061719</ele>
        <time>2021-11-14T17:56:18.384Z</time>
      </trkpt>
      <trkpt lat="47.681479" lon="7.808934">
        <ele>384.835501</ele>
        <time>2021-11-14T17:56:19.140Z</time>
      </trkpt>
      <trkpt lat="47.681525" lon="7.808831">
        <ele>384.573133</ele>
        <time>2021-11-14T17:56:20.166Z</time>
      </trkpt>
      <trkpt lat="47.681566" lon="7.808766">
        <ele>384.384064</ele>
        <time>2021-11-14T17:56:20.920Z</time>
      </trkpt>
      <trkpt lat="47.681743" lon="7.808468">
        <ele>384.008121</ele>
        <time>2021-11-14T17:56:24.027Z</time>
      </trkpt>
      <trkpt lat="47.681980" lon="7.808264">
        <ele>384.244270</ele>
        <time>2021-11-14T17:56:27.306Z</time>
      </trkpt>
      <trkpt lat="47.682788" lon="7.807894">
        <ele>384.973206</ele>
        <time>2021-11-14T17:56:43.710Z</time>
      </trkpt>
      <trkpt lat="47.683018" lon="7.807663">
        <ele>385.212564</ele>
        <time>2021-11-14T17:56:50.070Z</time>
      </trkpt>
      <trkpt lat="47.683100" lon="7.807543">
        <ele>385.311803</ele>
        <time>2021-11-14T17:56:52.948Z</time>
      </trkpt>
      <trkpt lat="47.683227" lon="7.807391">
        <ele>385.452410</ele>
        <time>2021-11-14T17:56:56.342Z</time>
      </trkpt>
      <trkpt lat="47.683298" lon="7.807196">
        <ele>385.927723</ele>
        <time>2021-11-14T17:57:00.773Z</time>
      </trkpt>
      <trkpt lat="47.683414" lon="7.806933">
        <ele>386.625608</ele>
        <time>2021-11-14T17:57:05.757Z</time>
      </trkpt>
      <trkpt lat="47.683440" lon="7.806883">
        <ele>386.765840</ele>
        <time>2021-11-14T17:57:07.465Z</time>
      </trkpt>
      <trkpt lat="47.683762" lon="7.806139">
        <ele>388.729037</ele>
        <time>2021-11-14T17:57:24.369Z</time>
      </trkpt>
      <trkpt lat="47.684002" lon="7.805825">
        <ele>389.783485</ele>
        <time>2021-11-14T17:57:34.516Z</time>
      </trkpt>
      <trkpt lat="47.685433" lon="7.804734">
        <ele>394.025796</ele>
        <time>2021-11-14T17:58:19.836Z</time>
      </trkpt>
      <trkpt lat="47.685474" lon="7.804690">
        <ele>394.144724</ele>
        <time>2021-11-14T17:58:21.528Z</time>
      </trkpt>
      <trkpt lat="47.685544" lon="7.804620">
        <ele>394.343131</ele>
        <time>2021-11-14T17:58:22.705Z</time>
      </trkpt>
      <trkpt lat="47.686085" lon="7.803707">
        <ele>395.369054</ele>
        <time>2021-11-14T17:58:37.165Z</time>
      </trkpt>
      <trkpt lat="47.686282" lon="7.803470">
        <ele>395.141541</ele>
        <time>2021-11-14T17:58:40.677Z</time>
      </trkpt>
      <trkpt lat="47.686515" lon="7.803165">
        <ele>394.862823</ele>
        <time>2021-11-14T17:58:44.762Z</time>
      </trkpt>
      <trkpt lat="47.686861" lon="7.802763">
        <ele>394.468596</ele>
        <time>2021-11-14T17:58:49.682Z</time>
      </trkpt>
      <trkpt lat="47.686988" lon="7.802664">
        <ele>394.339877</ele>
        <time>2021-11-14T17:58:51.333Z</time>
      </trkpt>
      <trkpt lat="47.687345" lon="7.802442">
        <ele>393.982613</ele>
        <time>2021-11-14T17:58:55.663Z</time>
      </trkpt>
      <trkpt lat="47.687529" lon="7.802242">
        <ele>393.588445</ele>
        <time>2021-11-14T17:58:58.177Z</time>
      </trkpt>
      <trkpt lat="47.688168" lon="7.801084">
        <ele>391.845849</ele>
        <time>2021-11-14T17:59:09.353Z</time>
      </trkpt>
      <trkpt lat="47.688515" lon="7.800635">
        <ele>391.050279</ele>
        <time>2021-11-14T17:59:14.732Z</time>
      </trkpt>
      <trkpt lat="47.688706" lon="7.800220">
        <ele>390.463418</ele>
        <time>2021-11-14T17:59:18.705Z</time>
      </trkpt>
      <trkpt lat="47.688835" lon="7.799732">
        <ele>389.850711</ele>
        <time>2021-11-14T17:59:22.562Z</time>
      </trkpt>
      <trkpt lat="47.688987" lon="7.799109">
        <ele>389.076287</ele>
        <time>2021-11-14T17:59:27.470Z</time>
      </trkpt>
      <trkpt lat="47.689229" lon="7.798474">
        <ele>388.223512</ele>
        <time>2021-11-14T17:59:32.966Z</time>
      </trkpt>
      <trkpt lat="47.689312" lon="7.798158">
        <ele>387.827099</ele>
        <time>2021-11-14T17:59:35.520Z</time>
      </trkpt>
      <trkpt lat="47.689375" lon="7.798016">
        <ele>387.683586</ele>
        <time>2021-11-14T17:59:36.851Z</time>
      </trkpt>
      <trkpt lat="47.689359" lon="7.797846">
        <ele>387.560614</ele>
        <time>2021-11-14T17:59:38.094Z</time>
      </trkpt>
      <trkpt lat="47.689337" lon="7.797614">
        <ele>387.392769</ele>
        <time>2021-11-14T17:59:40.121Z</time>
      </trkpt>
      <trkpt lat="47.689304" lon="7.797526">
        <ele>387.320604</ele>
        <time>2021-11-14T17:59:40.988Z</time>
      </trkpt>
      <trkpt lat="47.689267" lon="7.797481">
        <ele>387.269713</ele>
        <time>2021-11-14T17:59:41.541Z</time>
      </trkpt>
      <trkpt lat="47.689198" lon="7.797440">
        <ele>387.190624</ele>
        <time>2021-11-14T17:59:42.383Z</time>
      </trkpt>
      <trkpt lat="47.688818" lon="7.797354">
        <ele>386.781546</ele>
        <time>2021-11-14T17:59:46.990Z</time>
      </trkpt>
      <trkpt lat="47.688760" lon="7.797271">
        <ele>386.695838</ele>
        <time>2021-11-14T17:59:48.048Z</time>
      </trkpt>
      <trkpt lat="47.688677" lon="7.797115">
        <ele>386.553386</ele>
        <time>2021-11-14T17:59:49.659Z</time>
      </trkpt>
      <trkpt lat="47.688460" lon="7.796657">
        <ele>386.152147</ele>
        <time>2021-11-14T17:59:54.025Z</time>
      </trkpt>
      <trkpt lat="47.688430" lon="7.796592">
        <ele>386.095687</ele>
        <time>2021-11-14T17:59:54.626Z</time>
      </trkpt>
      <trkpt lat="47.688376" lon="7.796471">
        <ele>385.991682</ele>
        <time>2021-11-14T17:59:55.848Z</time>
      </trkpt>
      <trkpt lat="47.688243" lon="7.796236">
        <ele>385.899731</ele>
        <time>2021-11-14T17:59:58.833Z</time>
      </trkpt>
      <trkpt lat="47.688100" lon="7.796113">
        <ele>385.988203</ele>
        <time>2021-11-14T18:00:01.268Z</time>
      </trkpt>
      <trkpt lat="47.687750" lon="7.795967">
        <ele>386.182845</ele>
        <time>2021-11-14T18:00:07.174Z</time>
      </trkpt>
      <trkpt lat="47.687733" lon="7.795960">
        <ele>386.192290</ele>
        <time>2021-11-14T18:00:07.588Z</time>
      </trkpt>
      <trkpt lat="47.687589" lon="7.795875">
        <ele>386.275252</ele>
        <time>2021-11-14T18:00:10.153Z</time>
      </trkpt>
      <trkpt lat="47.687244" lon="7.795566">
        <ele>386.490946</ele>
        <time>2021-11-14T18:00:17.143Z</time>
      </trkpt>
      <trkpt lat="47.686773" lon="7.795244">
        <ele>386.768548</ele>
        <time>2021-11-14T18:00:27.126Z</time>
      </trkpt>
      <trkpt lat="47.686447" lon="7.795085">
        <ele>387.305490</ele>
        <time>2021-11-14T18:00:33.799Z</time>
      </trkpt>
      <trkpt lat="47.685757" lon="7.794995">
        <ele>388.666053</ele>
        <time>2021-11-14T18:00:48.753Z</time>
      </trkpt>
      <trkpt lat="47.685630" lon="7.794901">
        <ele>388.944768</ele>
        <time>2021-11-14T18:00:52.237Z</time>
      </trkpt>
      <trkpt lat="47.685562" lon="7.794813">
        <ele>389.121918</ele>
        <time>2021-11-14T18:00:54.366Z</time>
      </trkpt>
      <trkpt lat="47.685487" lon="7.794521">
        <ele>389.535193</ele>
        <time>2021-11-14T18:00:59.597Z</time>
      </trkpt>
      <trkpt lat="47.685483" lon="7.793624">
        <ele>390.795323</ele>
        <time>2021-11-14T18:01:14.609Z</time>
      </trkpt>
      <trkpt lat="47.685522" lon="7.793290">
        <ele>391.333562</ele>
        <time>2021-11-14T18:01:20.384Z</time>
      </trkpt>
      <trkpt lat="47.685569" lon="7.792956">
        <ele>391.875343</ele>
        <time>2021-11-14T18:01:26.114Z</time>
      </trkpt>
      <trkpt lat="47.685693" lon="7.792135">
        <ele>393.211316</ele>
        <time>2021-11-14T18:01:39.927Z</time>
      </trkpt>
      <trkpt lat="47.685714" lon="7.791960">
        <ele>393.493558</ele>
        <time>2021-11-14T18:01:42.894Z</time>
      </trkpt>
      <trkpt lat="47.685710" lon="7.791673">
        <ele>393.949348</ele>
        <time>2021-11-14T18:01:47.566Z</time>
      </trkpt>
      <trkpt lat="47.685709" lon="7.791561">
        <ele>394.127195</ele>
        <time>2021-11-14T18:01:49.355Z</time>
      </trkpt>
      <trkpt lat="47.685466" lon="7.790442">
        <ele>395.697818</ele>
        <time>2021-11-14T18:02:07.682Z</time>
      </trkpt>
      <trkpt lat="47.685435" lon="7.790058">
        <ele>396.181850</ele>
        <time>2021-11-14T18:02:13.200Z</time>
      </trkpt>
      <trkpt lat="47.685517" lon="7.789491">
        <ele>396.907660</ele>
        <time>2021-11-14T18:02:21.340Z</time>
      </trkpt>
      <trkpt lat="47.685712" lon="7.788776">
        <ele>397.873149</ele>
        <time>2021-11-14T18:02:32.447Z</time>
      </trkpt>
      <trkpt lat="47.685727" lon="7.788724">
        <ele>397.946221</ele>
        <time>2021-11-14T18:02:33.712Z</time>
      </trkpt>
      <trkpt lat="47.685949" lon="7.787951">
        <ele>399.476927</ele>
        <time>2021-11-14T18:02:46.422Z</time>
      </trkpt>
      <trkpt lat="47.686130" lon="7.787340">
        <ele>400.692778</ele>
        <time>2021-11-14T18:02:57.814Z</time>
      </trkpt>
      <trkpt lat="47.686302" lon="7.786331">
        <ele>402.588556</ele>
        <time>2021-11-14T18:03:17.135Z</time>
      </trkpt>
      <trkpt lat="47.686331" lon="7.786036">
        <ele>403.338667</ele>
        <time>2021-11-14T18:03:22.843Z</time>
      </trkpt>
      <trkpt lat="47.686340" lon="7.785785">
        <ele>404.087156</ele>
        <time>2021-11-14T18:03:27.857Z</time>
      </trkpt>
      <trkpt lat="47.686341" lon="7.785005">
        <ele>406.409848</ele>
        <time>2021-11-14T18:03:43.893Z</time>
      </trkpt>
      <trkpt lat="47.686252" lon="7.784253">
        <ele>408.683503</ele>
        <time>2021-11-14T18:04:02.192Z</time>
      </trkpt>
      <trkpt lat="47.685935" lon="7.782954">
        <ele>412.142504</ele>
        <time>2021-11-14T18:04:34.412Z</time>
      </trkpt>
      <trkpt lat="47.685771" lon="7.782429">
        <ele>413.311222</ele>
        <time>2021-11-14T18:04:46.734Z</time>
      </trkpt>
      <trkpt lat="47.685457" lon="7.781526">
        <ele>415.363565</ele>
        <time>2021-11-14T18:05:04.155Z</time>
      </trkpt>
      <trkpt lat="47.685192" lon="7.780420">
        <ele>415.054966</ele>
        <time>2021-11-14T18:05:16.404Z</time>
      </trkpt>
      <trkpt lat="47.685111" lon="7.779800">
        <ele>414.164159</ele>
        <time>2021-11-14T18:05:20.896Z</time>
      </trkpt>
      <trkpt lat="47.685066" lon="7.779203">
        <ele>413.316845</ele>
        <time>2021-11-14T18:05:24.977Z</time>
      </trkpt>
      <trkpt lat="47.685010" lon="7.778565">
        <ele>412.409346</ele>
        <time>2021-11-14T18:05:29.229Z</time>
      </trkpt>
      <trkpt lat="47.684693" lon="7.776536">
        <ele>406.453054</ele>
        <time>2021-11-14T18:05:42.695Z</time>
      </trkpt>
      <trkpt lat="47.684265" lon="7.774268">
        <ele>400.182033</ele>
        <time>2021-11-14T18:05:58.199Z</time>
      </trkpt>
      <trkpt lat="47.683952" lon="7.772543">
        <ele>395.913887</ele>
        <time>2021-11-14T18:06:10.135Z</time>
      </trkpt>
      <trkpt lat="47.683943" lon="7.772495">
        <ele>395.805523</ele>
        <time>2021-11-14T18:06:10.466Z</time>
      </trkpt>
      <trkpt lat="47.683865" lon="7.772140">
        <ele>394.993392</ele>
        <time>2021-11-14T18:06:13.031Z</time>
      </trkpt>
      <trkpt lat="47.683745" lon="7.771752">
        <ele>394.064785</ele>
        <time>2021-11-14T18:06:15.958Z</time>
      </trkpt>
      <trkpt lat="47.683569" lon="7.771339">
        <ele>393.001764</ele>
        <time>2021-11-14T18:06:19.326Z</time>
      </trkpt>
      <trkpt lat="47.683285" lon="7.770864">
        <ele>391.663928</ele>
        <time>2021-11-14T18:06:23.728Z</time>
      </trkpt>
      <trkpt lat="47.682798" lon="7.770327">
        <ele>389.937810</ele>
        <time>2021-11-14T18:06:30.005Z</time>
      </trkpt>
      <trkpt lat="47.681387" lon="7.769148">
        <ele>385.886571</ele>
        <time>2021-11-14T18:06:46.770Z</time>
      </trkpt>
      <trkpt lat="47.680608" lon="7.768711">
        <ele>384.373261</ele>
        <time>2021-11-14T18:06:55.901Z</time>
      </trkpt>
      <trkpt lat="47.680291" lon="7.768374">
        <ele>383.664807</ele>
        <time>2021-11-14T18:07:01.627Z</time>
      </trkpt>
      <trkpt lat="47.680112" lon="7.768210">
        <ele>383.359104</ele>
        <time>2021-11-14T18:07:04.421Z</time>
      </trkpt>
      <trkpt lat="47.679654" lon="7.767908">
        <ele>382.667638</ele>
        <time>2021-11-14T18:07:10.749Z</time>
      </trkpt>
      <trkpt lat="47.679576" lon="7.767868">
        <ele>382.553773</ele>
        <time>2021-11-14T18:07:11.683Z</time>
      </trkpt>
      <trkpt lat="47.679489" lon="7.767825">
        <ele>382.427251</ele>
        <time>2021-11-14T18:07:12.686Z</time>
      </trkpt>
      <trkpt lat="47.679333" lon="7.767766">
        <ele>382.205120</ele>
        <time>2021-11-14T18:07:14.617Z</time>
      </trkpt>
      <trkpt lat="47.679217" lon="7.767752">
        <ele>382.044526</ele>
        <time>2021-11-14T18:07:15.904Z</time>
      </trkpt>
      <trkpt lat="47.679131" lon="7.767730">
        <ele>381.924109</ele>
        <time>2021-11-14T18:07:16.807Z</time>
      </trkpt>
      <trkpt lat="47.679013" lon="7.767707">
        <ele>381.759887</ele>
        <time>2021-11-14T18:07:18.259Z</time>
      </trkpt>
      <trkpt lat="47.678987" lon="7.767687">
        <ele>381.719484</ele>
        <time>2021-11-14T18:07:18.560Z</time>
      </trkpt>
      <trkpt lat="47.678922" lon="7.767592">
        <ele>381.593649</ele>
        <time>2021-11-14T18:07:19.556Z</time>
      </trkpt>
      <trkpt lat="47.678899" lon="7.767537">
        <ele>381.533497</ele>
        <time>2021-11-14T18:07:20.035Z</time>
      </trkpt>
      <trkpt lat="47.678852" lon="7.767327">
        <ele>381.327899</ele>
        <time>2021-11-14T18:07:21.655Z</time>
      </trkpt>
      <trkpt lat="47.678702" lon="7.766832">
        <ele>380.759727</ele>
        <time>2021-11-14T18:07:25.684Z</time>
      </trkpt>
      <trkpt lat="47.678683" lon="7.766771">
        <ele>380.683764</ele>
        <time>2021-11-14T18:07:26.221Z</time>
      </trkpt>
      <trkpt lat="47.678569" lon="7.766392">
        <ele>380.214615</ele>
        <time>2021-11-14T18:07:29.296Z</time>
      </trkpt>
      <trkpt lat="47.678412" lon="7.765986">
        <ele>379.685453</ele>
        <time>2021-11-14T18:07:32.870Z</time>
      </trkpt>
      <trkpt lat="47.678382" lon="7.765906">
        <ele>379.581958</ele>
        <time>2021-11-14T18:07:33.577Z</time>
      </trkpt>
      <trkpt lat="47.678359" lon="7.765855">
        <ele>379.512582</ele>
        <time>2021-11-14T18:07:34.084Z</time>
      </trkpt>
      <trkpt lat="47.678344" lon="7.765825">
        <ele>379.470348</ele>
        <time>2021-11-14T18:07:34.379Z</time>
      </trkpt>
      <trkpt lat="47.678233" lon="7.765617">
        <ele>379.170377</ele>
        <time>2021-11-14T18:07:36.261Z</time>
      </trkpt>
      <trkpt lat="47.678197" lon="7.765565">
        <ele>379.086081</ele>
        <time>2021-11-14T18:07:36.794Z</time>
      </trkpt>
      <trkpt lat="47.678111" lon="7.765484">
        <ele>378.915138</ele>
        <time>2021-11-14T18:07:37.853Z</time>
      </trkpt>
      <trkpt lat="47.678286" lon="7.765274">
        <ele>378.537477</ele>
        <time>2021-11-14T18:07:40.284Z</time>
      </trkpt>
      <trkpt lat="47.678334" lon="7.765216">
        <ele>378.433606</ele>
        <time>2021-11-14T18:07:40.993Z</time>
      </trkpt>
      <trkpt lat="47.678542" lon="7.765070">
        <ele>378.116070</ele>
        <time>2021-11-14T18:07:43.738Z</time>
      </trkpt>
      <trkpt lat="47.678967" lon="7.764958">
        <ele>378.350850</ele>
        <time>2021-11-14T18:07:50.037Z</time>
      </trkpt>
      <trkpt lat="47.679104" lon="7.764907">
        <ele>378.427673</ele>
        <time>2021-11-14T18:07:52.479Z</time>
      </trkpt>
      <trkpt lat="47.679269" lon="7.764798">
        <ele>378.525898</ele>
        <time>2021-11-14T18:07:55.638Z</time>
      </trkpt>
      <trkpt lat="47.679782" lon="7.764295">
        <ele>378.860252</ele>
        <time>2021-11-14T18:08:07.053Z</time>
      </trkpt>
      <trkpt lat="47.679898" lon="7.764308">
        <ele>378.923527</ele>
        <time>2021-11-14T18:08:09.306Z</time>
      </trkpt>
      <trkpt lat="47.680143" lon="7.764322">
        <ele>379.056888</ele>
        <time>2021-11-14T18:08:14.730Z</time>
      </trkpt>
      <trkpt lat="47.680321" lon="7.764329">
        <ele>379.260515</ele>
        <time>2021-11-14T18:08:18.597Z</time>
      </trkpt>
      <trkpt lat="47.680440" lon="7.764296">
        <ele>379.418702</ele>
        <time>2021-11-14T18:08:21.272Z</time>
      </trkpt>
      <trkpt lat="47.680498" lon="7.764261">
        <ele>379.500507</ele>
        <time>2021-11-14T18:08:22.523Z</time>
      </trkpt>
      <trkpt lat="47.680576" lon="7.764209">
        <ele>379.612227</ele>
        <time>2021-11-14T18:08:24.246Z</time>
      </trkpt>
      <trkpt lat="47.680745" lon="7.764080">
        <ele>379.860518</ele>
        <time>2021-11-14T18:08:28.042Z</time>
      </trkpt>
      <trkpt lat="47.680776" lon="7.764053">
        <ele>379.907477</ele>
        <time>2021-11-14T18:08:28.589Z</time>
      </trkpt>
      <trkpt lat="47.680914" lon="7.763931">
        <ele>380.117328</ele>
        <time>2021-11-14T18:08:31.733Z</time>
      </trkpt>
      <trkpt lat="47.681103" lon="7.763764">
        <ele>380.404694</ele>
        <time>2021-11-14T18:08:36.006Z</time>
      </trkpt>
      <trkpt lat="47.681230" lon="7.763651">
        <ele>380.598145</ele>
        <time>2021-11-14T18:08:38.980Z</time>
      </trkpt>
      <trkpt lat="47.681384" lon="7.763509">
        <ele>380.835003</ele>
        <time>2021-11-14T18:08:42.581Z</time>
      </trkpt>
      <trkpt lat="47.681593" lon="7.763218">
        <ele>381.209336</ele>
        <time>2021-11-14T18:08:48.248Z</time>
      </trkpt>
      <trkpt lat="47.681960" lon="7.762650">
        <ele>382.004761</ele>
        <time>2021-11-14T18:08:58.709Z</time>
      </trkpt>
      <trkpt lat="47.682202" lon="7.762374">
        <ele>382.489950</ele>
        <time>2021-11-14T18:09:05.490Z</time>
      </trkpt>
      <trkpt lat="47.683058" lon="7.761671">
        <ele>384.045385</ele>
        <time>2021-11-14T18:09:27.150Z</time>
      </trkpt>
      <trkpt lat="47.683505" lon="7.761027">
        <ele>384.849851</ele>
        <time>2021-11-14T18:09:39.628Z</time>
      </trkpt>
      <trkpt lat="47.684182" lon="7.760350">
        <ele>385.825080</ele>
        <time>2021-11-14T18:09:54.691Z</time>
      </trkpt>
      <trkpt lat="47.684321" lon="7.760151">
        <ele>386.055768</ele>
        <time>2021-11-14T18:09:58.287Z</time>
      </trkpt>
      <trkpt lat="47.685049" lon="7.758639">
        <ele>388.467818</ele>
        <time>2021-11-14T18:10:24.396Z</time>
      </trkpt>
      <trkpt lat="47.685154" lon="7.758467">
        <ele>388.808329</ele>
        <time>2021-11-14T18:10:28.426Z</time>
      </trkpt>
      <trkpt lat="47.685573" lon="7.757979">
        <ele>389.968212</ele>
        <time>2021-11-14T18:10:41.992Z</time>
      </trkpt>
      <trkpt lat="47.685687" lon="7.757729">
        <ele>390.447613</ele>
        <time>2021-11-14T18:10:47.621Z</time>
      </trkpt>
      <trkpt lat="47.685831" lon="7.757444">
        <ele>391.315599</ele>
        <time>2021-11-14T18:10:54.387Z</time>
      </trkpt>
      <trkpt lat="47.685859" lon="7.757372">
        <ele>391.518137</ele>
        <time>2021-11-14T18:10:56.001Z</time>
      </trkpt>
      <trkpt lat="47.685982" lon="7.757084">
        <ele>392.348913</ele>
        <time>2021-11-14T18:11:02.379Z</time>
      </trkpt>
      <trkpt lat="47.686067" lon="7.756879">
        <ele>392.935368</ele>
        <time>2021-11-14T18:11:07.438Z</time>
      </trkpt>
      <trkpt lat="47.687429" lon="7.753576">
        <ele>403.178731</ele>
        <time>2021-11-14T18:12:25.869Z</time>
      </trkpt>
      <trkpt lat="47.688799" lon="7.751864">
        <ele>412.341208</ele>
        <time>2021-11-14T18:13:30.583Z</time>
      </trkpt>
      <trkpt lat="47.688927" lon="7.751630">
        <ele>413.415933</ele>
        <time>2021-11-14T18:13:38.212Z</time>
      </trkpt>
      <trkpt lat="47.689065" lon="7.751268">
        <ele>414.597705</ele>
        <time>2021-11-14T18:13:49.549Z</time>
      </trkpt>
      <trkpt lat="47.689162" lon="7.750758">
        <ele>415.943737</ele>
        <time>2021-11-14T18:14:02.574Z</time>
      </trkpt>
      <trkpt lat="47.689265" lon="7.749474">
        <ele>419.227966</ele>
        <time>2021-11-14T18:14:28.262Z</time>
      </trkpt>
      <trkpt lat="47.689288" lon="7.749330">
        <ele>419.603856</ele>
        <time>2021-11-14T18:14:31.485Z</time>
      </trkpt>
      <trkpt lat="47.689310" lon="7.749200">
        <ele>419.944309</ele>
        <time>2021-11-14T18:14:33.517Z</time>
      </trkpt>
      <trkpt lat="47.689421" lon="7.748621">
        <ele>420.401630</ele>
        <time>2021-11-14T18:14:41.661Z</time>
      </trkpt>
      <trkpt lat="47.689456" lon="7.748313">
        <ele>420.177495</ele>
        <time>2021-11-14T18:14:45.345Z</time>
      </trkpt>
      <trkpt lat="47.689387" lon="7.746843">
        <ele>419.120122</ele>
        <time>2021-11-14T18:14:56.974Z</time>
      </trkpt>
      <trkpt lat="47.689598" lon="7.745786">
        <ele>416.953637</ele>
        <time>2021-11-14T18:15:04.423Z</time>
      </trkpt>
      <trkpt lat="47.689494" lon="7.744812">
        <ele>413.759314</ele>
        <time>2021-11-14T18:15:10.848Z</time>
      </trkpt>
      <trkpt lat="47.689696" lon="7.743353">
        <ele>408.348329</ele>
        <time>2021-11-14T18:15:20.056Z</time>
      </trkpt>
      <trkpt lat="47.689694" lon="7.743050">
        <ele>406.858120</ele>
        <time>2021-11-14T18:15:21.854Z</time>
      </trkpt>
      <trkpt lat="47.689689" lon="7.742165">
        <ele>402.505584</ele>
        <time>2021-11-14T18:15:27.158Z</time>
      </trkpt>
      <trkpt lat="47.689662" lon="7.741645">
        <ele>399.940654</ele>
        <time>2021-11-14T18:15:30.281Z</time>
      </trkpt>
      <trkpt lat="47.689593" lon="7.741255">
        <ele>397.957511</ele>
        <time>2021-11-14T18:15:32.682Z</time>
      </trkpt>
      <trkpt lat="47.689525" lon="7.740902">
        <ele>396.328532</ele>
        <time>2021-11-14T18:15:34.857Z</time>
      </trkpt>
      <trkpt lat="47.689519" lon="7.740778">
        <ele>395.856919</ele>
        <time>2021-11-14T18:15:35.593Z</time>
      </trkpt>
      <trkpt lat="47.689508" lon="7.740589">
        <ele>395.137265</ele>
        <time>2021-11-14T18:15:36.750Z</time>
      </trkpt>
      <trkpt lat="47.689552" lon="7.740318">
        <ele>394.079733</ele>
        <time>2021-11-14T18:15:38.410Z</time>
      </trkpt>
      <trkpt lat="47.689653" lon="7.740135">
        <ele>393.182007</ele>
        <time>2021-11-14T18:15:39.880Z</time>
      </trkpt>
      <trkpt lat="47.689975" lon="7.739810">
        <ele>390.988164</ele>
        <time>2021-11-14T18:15:43.452Z</time>
      </trkpt>
      <trkpt lat="47.690181" lon="7.739276">
        <ele>388.653358</ele>
        <time>2021-11-14T18:15:47.329Z</time>
      </trkpt>
      <trkpt lat="47.690269" lon="7.739099">
        <ele>387.818621</ele>
        <time>2021-11-14T18:15:48.756Z</time>
      </trkpt>
      <trkpt lat="47.690374" lon="7.739013">
        <ele>387.142916</ele>
        <time>2021-11-14T18:15:50.050Z</time>
      </trkpt>
      <trkpt lat="47.690436" lon="7.738893">
        <ele>386.698347</ele>
        <time>2021-11-14T18:15:51.145Z</time>
      </trkpt>
      <trkpt lat="47.690534" lon="7.738217">
        <ele>385.620410</ele>
        <time>2021-11-14T18:15:56.062Z</time>
      </trkpt>
      <trkpt lat="47.690466" lon="7.738254">
        <ele>385.452707</ele>
        <time>2021-11-14T18:15:56.850Z</time>
      </trkpt>
      <trkpt lat="47.690414" lon="7.738257">
        <ele>385.332195</ele>
        <time>2021-11-14T18:15:57.440Z</time>
      </trkpt>
      <trkpt lat="47.690373" lon="7.738251">
        <ele>385.236788</ele>
        <time>2021-11-14T18:15:57.907Z</time>
      </trkpt>
      <trkpt lat="47.690188" lon="7.738141">
        <ele>384.775325</ele>
        <time>2021-11-14T18:16:00.052Z</time>
      </trkpt>
      <trkpt lat="47.689715" lon="7.737879">
        <ele>383.606292</ele>
        <time>2021-11-14T18:16:05.549Z</time>
      </trkpt>
      <trkpt lat="47.689192" lon="7.737735">
        <ele>382.407379</ele>
        <time>2021-11-14T18:16:11.497Z</time>
      </trkpt>
      <trkpt lat="47.688900" lon="7.737742">
        <ele>381.820451</ele>
        <time>2021-11-14T18:16:14.760Z</time>
      </trkpt>
      <trkpt lat="47.688795" lon="7.737743">
        <ele>381.609421</ele>
        <time>2021-11-14T18:16:15.913Z</time>
      </trkpt>
      <trkpt lat="47.688176" lon="7.737850">
        <ele>380.356984</ele>
        <time>2021-11-14T18:16:22.860Z</time>
      </trkpt>
      <trkpt lat="47.688003" lon="7.737904">
        <ele>380.001702</ele>
        <time>2021-11-14T18:16:24.756Z</time>
      </trkpt>
      <trkpt lat="47.686856" lon="7.738288">
        <ele>377.662786</ele>
        <time>2021-11-14T18:16:37.415Z</time>
      </trkpt>
      <trkpt lat="47.685871" lon="7.738439">
        <ele>375.707672</ele>
        <time>2021-11-14T18:16:48.406Z</time>
      </trkpt>
      <trkpt lat="47.685295" lon="7.738591">
        <ele>374.743721</ele>
        <time>2021-11-14T18:16:55.048Z</time>
      </trkpt>
      <trkpt lat="47.684782" lon="7.738700">
        <ele>373.936717</ele>
        <time>2021-11-14T18:17:00.904Z</time>
      </trkpt>
      <trkpt lat="47.684345" lon="7.738781">
        <ele>373.250917</ele>
        <time>2021-11-14T18:17:05.926Z</time>
      </trkpt>
      <trkpt lat="47.683955" lon="7.738770">
        <ele>372.647770</ele>
        <time>2021-11-14T18:17:10.464Z</time>
      </trkpt>
      <trkpt lat="47.683619" lon="7.738743">
        <ele>372.300422</ele>
        <time>2021-11-14T18:17:14.477Z</time>
      </trkpt>
      <trkpt lat="47.683198" lon="7.738684">
        <ele>371.863908</ele>
        <time>2021-11-14T18:17:19.603Z</time>
      </trkpt>
      <trkpt lat="47.681369" lon="7.738489">
        <ele>369.926447</ele>
        <time>2021-11-14T18:17:42.341Z</time>
      </trkpt>
      <trkpt lat="47.680533" lon="7.738227">
        <ele>368.997003</ele>
        <time>2021-11-14T18:17:52.568Z</time>
      </trkpt>
      <trkpt lat="47.680227" lon="7.738094">
        <ele>368.629450</ele>
        <time>2021-11-14T18:17:56.309Z</time>
      </trkpt>
      <trkpt lat="47.679681" lon="7.737780">
        <ele>367.924069</ele>
        <time>2021-11-14T18:18:03.142Z</time>
      </trkpt>
      <trkpt lat="47.679312" lon="7.737558">
        <ele>367.444429</ele>
        <time>2021-11-14T18:18:07.685Z</time>
      </trkpt>
      <trkpt lat="47.679182" lon="7.737480">
        <ele>367.275515</ele>
        <time>2021-11-14T18:18:09.226Z</time>
      </trkpt>
      <trkpt lat="47.678261" lon="7.737149">
        <ele>366.793069</ele>
        <time>2021-11-14T18:18:21.329Z</time>
      </trkpt>
      <trkpt lat="47.677732" lon="7.737060">
        <ele>366.931575</ele>
        <time>2021-11-14T18:18:29.472Z</time>
      </trkpt>
      <trkpt lat="47.676927" lon="7.737026">
        <ele>367.141090</ele>
        <time>2021-11-14T18:18:44.796Z</time>
      </trkpt>
      <trkpt lat="47.674982" lon="7.736550">
        <ele>368.040311</ele>
        <time>2021-11-14T18:19:20.679Z</time>
      </trkpt>
      <trkpt lat="47.674295" lon="7.736409">
        <ele>366.901422</ele>
        <time>2021-11-14T18:19:28.542Z</time>
      </trkpt>
      <trkpt lat="47.673855" lon="7.736387">
        <ele>366.178460</ele>
        <time>2021-11-14T18:19:33.280Z</time>
      </trkpt>
      <trkpt lat="47.673492" lon="7.736461">
        <ele>365.576765</ele>
        <time>2021-11-14T18:19:37.120Z</time>
      </trkpt>
      <trkpt lat="47.673344" lon="7.736511">
        <ele>365.319906</ele>
        <time>2021-11-14T18:19:38.693Z</time>
      </trkpt>
      <trkpt lat="47.673154" lon="7.736575">
        <ele>364.900692</ele>
        <time>2021-11-14T18:19:40.719Z</time>
      </trkpt>
      <trkpt lat="47.672890" lon="7.736693">
        <ele>364.307463</ele>
        <time>2021-11-14T18:19:43.574Z</time>
      </trkpt>
      <trkpt lat="47.671561" lon="7.737762">
        <ele>361.380570</ele>
        <time>2021-11-14T18:20:00.313Z</time>
      </trkpt>
      <trkpt lat="47.671278" lon="7.738030">
        <ele>361.209113</ele>
        <time>2021-11-14T18:20:03.922Z</time>
      </trkpt>
      <trkpt lat="47.671021" lon="7.738380">
        <ele>361.030983</ele>
        <time>2021-11-14T18:20:08.056Z</time>
      </trkpt>
      <trkpt lat="47.670753" lon="7.738859">
        <ele>360.816761</ele>
        <time>2021-11-14T18:20:13.648Z</time>
      </trkpt>
      <trkpt lat="47.670331" lon="7.739901">
        <ele>361.296221</ele>
        <time>2021-11-14T18:20:30.122Z</time>
      </trkpt>
      <trkpt lat="47.670203" lon="7.740193">
        <ele>361.830277</ele>
        <time>2021-11-14T18:20:36.297Z</time>
      </trkpt>
      <trkpt lat="47.669750" lon="7.740792">
        <ele>363.210943</ele>
        <time>2021-11-14T18:20:49.760Z</time>
      </trkpt>
      <trkpt lat="47.669494" lon="7.740943">
        <ele>363.837942</ele>
        <time>2021-11-14T18:20:56.722Z</time>
      </trkpt>
      <trkpt lat="47.669351" lon="7.740999">
        <ele>364.174570</ele>
        <time>2021-11-14T18:21:00.931Z</time>
      </trkpt>
      <trkpt lat="47.669055" lon="7.741049">
        <ele>364.904556</ele>
        <time>2021-11-14T18:21:09.568Z</time>
      </trkpt>
      <trkpt lat="47.668124" lon="7.740949">
        <ele>367.593005</ele>
        <time>2021-11-14T18:21:36.426Z</time>
      </trkpt>
      <trkpt lat="47.667361" lon="7.741151">
        <ele>369.825232</ele>
        <time>2021-11-14T18:21:53.631Z</time>
      </trkpt>
      <trkpt lat="47.666724" lon="7.741022">
        <ele>371.620329</ele>
        <time>2021-11-14T18:22:10.909Z</time>
      </trkpt>
      <trkpt lat="47.665679" lon="7.741103">
        <ele>374.541535</ele>
        <time>2021-11-14T18:22:39.455Z</time>
      </trkpt>
      <trkpt lat="47.665373" lon="7.741092">
        <ele>374.951915</ele>
        <time>2021-11-14T18:22:47.336Z</time>
      </trkpt>
      <trkpt lat="47.664884" lon="7.741112">
        <ele>375.188870</ele>
        <time>2021-11-14T18:22:57.853Z</time>
      </trkpt>
      <trkpt lat="47.664445" lon="7.741223">
        <ele>375.404577</ele>
        <time>2021-11-14T18:23:06.027Z</time>
      </trkpt>
      <trkpt lat="47.663991" lon="7.741248">
        <ele>375.624639</ele>
        <time>2021-11-14T18:23:12.508Z</time>
      </trkpt>
      <trkpt lat="47.663281" lon="7.741134">
        <ele>373.433392</ele>
        <time>2021-11-14T18:23:20.126Z</time>
      </trkpt>
      <trkpt lat="47.662726" lon="7.741265">
        <ele>370.835597</ele>
        <time>2021-11-14T18:23:25.276Z</time>
      </trkpt>
      <trkpt lat="47.661687" lon="7.741310">
        <ele>365.791397</ele>
        <time>2021-11-14T18:23:34.904Z</time>
      </trkpt>
      <trkpt lat="47.661674" lon="7.741304">
        <ele>365.717596</ele>
        <time>2021-11-14T18:23:35.019Z</time>
      </trkpt>
      <trkpt lat="47.661611" lon="7.741276">
        <ele>365.361088</ele>
        <time>2021-11-14T18:23:35.601Z</time>
      </trkpt>
      <trkpt lat="47.661483" lon="7.741188">
        <ele>364.596398</ele>
        <time>2021-11-14T18:23:36.973Z</time>
      </trkpt>
      <trkpt lat="47.661424" lon="7.741131">
        <ele>364.214799</ele>
        <time>2021-11-14T18:23:37.683Z</time>
      </trkpt>
      <trkpt lat="47.661298" lon="7.741035">
        <ele>363.447046</ele>
        <time>2021-11-14T18:23:38.972Z</time>
      </trkpt>
      <trkpt lat="47.660437" lon="7.740780">
        <ele>358.687452</ele>
        <time>2021-11-14T18:23:47.159Z</time>
      </trkpt>
      <trkpt lat="47.660092" lon="7.740956">
        <ele>357.067242</ele>
        <time>2021-11-14T18:23:50.515Z</time>
      </trkpt>
      <trkpt lat="47.659914" lon="7.741102">
        <ele>356.377497</ele>
        <time>2021-11-14T18:23:52.609Z</time>
      </trkpt>
      <trkpt lat="47.659389" lon="7.741651">
        <ele>354.199455</ele>
        <time>2021-11-14T18:23:59.214Z</time>
      </trkpt>
      <trkpt lat="47.658430" lon="7.742636">
        <ele>352.458486</ele>
        <time>2021-11-14T18:24:10.930Z</time>
      </trkpt>
      <trkpt lat="47.657946" lon="7.742967">
        <ele>353.683526</ele>
        <time>2021-11-14T18:24:22.780Z</time>
      </trkpt>
      <trkpt lat="47.657396" lon="7.743356">
        <ele>355.084070</ele>
        <time>2021-11-14T18:24:43.914Z</time>
      </trkpt>
      <trkpt lat="47.656895" lon="7.743736">
        <ele>357.102839</ele>
        <time>2021-11-14T18:25:06.551Z</time>
      </trkpt>
      <trkpt lat="47.656798" lon="7.743812">
        <ele>357.624541</ele>
        <time>2021-11-14T18:25:10.318Z</time>
      </trkpt>
      <trkpt lat="47.656699" lon="7.743927">
        <ele>358.222460</ele>
        <time>2021-11-14T18:25:15.542Z</time>
      </trkpt>
      <trkpt lat="47.656638" lon="7.744059">
        <ele>358.735343</ele>
        <time>2021-11-14T18:25:20.680Z</time>
      </trkpt>
      <trkpt lat="47.656592" lon="7.744040">
        <ele>358.962457</ele>
        <time>2021-11-14T18:25:22.248Z</time>
      </trkpt>
      <trkpt lat="47.656129" lon="7.743833">
        <ele>361.262466</ele>
        <time>2021-11-14T18:25:41.923Z</time>
      </trkpt>
      <trkpt lat="47.654324" lon="7.743075">
        <ele>365.500517</ele>
        <time>2021-11-14T18:26:25.412Z</time>
      </trkpt>
      <trkpt lat="47.653639" lon="7.742914">
        <ele>365.880323</ele>
        <time>2021-11-14T18:26:33.396Z</time>
      </trkpt>
      <trkpt lat="47.653011" lon="7.743041">
        <ele>365.112386</ele>
        <time>2021-11-14T18:26:40.819Z</time>
      </trkpt>
      <trkpt lat="47.652352" lon="7.743329">
        <ele>364.280034</ele>
        <time>2021-11-14T18:26:49.088Z</time>
      </trkpt>
      <trkpt lat="47.651664" lon="7.743365">
        <ele>362.802223</ele>
        <time>2021-11-14T18:26:57.477Z</time>
      </trkpt>
      <trkpt lat="47.650941" lon="7.743251">
        <ele>360.592740</ele>
        <time>2021-11-14T18:27:05.384Z</time>
      </trkpt>
      <trkpt lat="47.650238" lon="7.743181">
        <ele>358.451594</ele>
        <time>2021-11-14T18:27:12.218Z</time>
      </trkpt>
      <trkpt lat="47.649349" lon="7.742957">
        <ele>352.101124</ele>
        <time>2021-11-14T18:27:20.345Z</time>
      </trkpt>
      <trkpt lat="47.648726" lon="7.742773">
        <ele>347.585323</ele>
        <time>2021-11-14T18:27:25.945Z</time>
      </trkpt>
      <trkpt lat="47.648686" lon="7.742761">
        <ele>347.295209</ele>
        <time>2021-11-14T18:27:26.302Z</time>
      </trkpt>
      <trkpt lat="47.648430" lon="7.742708">
        <ele>345.489525</ele>
        <time>2021-11-14T18:27:28.573Z</time>
      </trkpt>
      <trkpt lat="47.647923" lon="7.742761">
        <ele>342.585337</ele>
        <time>2021-11-14T18:27:33.084Z</time>
      </trkpt>
      <trkpt lat="47.647668" lon="7.742782">
        <ele>341.126019</ele>
        <time>2021-11-14T18:27:35.378Z</time>
      </trkpt>
      <trkpt lat="47.647263" lon="7.742628">
        <ele>338.737112</ele>
        <time>2021-11-14T18:27:39.243Z</time>
      </trkpt>
      <trkpt lat="47.647031" lon="7.742584">
        <ele>337.400680</ele>
        <time>2021-11-14T18:27:41.533Z</time>
      </trkpt>
      <trkpt lat="47.646932" lon="7.742608">
        <ele>336.827497</ele>
        <time>2021-11-14T18:27:42.477Z</time>
      </trkpt>
      <trkpt lat="47.646840" lon="7.742630">
        <ele>336.295028</ele>
        <time>2021-11-14T18:27:43.445Z</time>
      </trkpt>
      <trkpt lat="47.646642" lon="7.742762">
        <ele>335.249195</ele>
        <time>2021-11-14T18:27:45.669Z</time>
      </trkpt>
      <trkpt lat="47.646406" lon="7.742933">
        <ele>334.762379</ele>
        <time>2021-11-14T18:27:48.452Z</time>
      </trkpt>
      <trkpt lat="47.646017" lon="7.743245">
        <ele>333.942747</ele>
        <time>2021-11-14T18:27:53.277Z</time>
      </trkpt>
      <trkpt lat="47.645911" lon="7.743330">
        <ele>333.719413</ele>
        <time>2021-11-14T18:27:54.596Z</time>
      </trkpt>
      <trkpt lat="47.645734" lon="7.743440">
        <ele>333.363708</ele>
        <time>2021-11-14T18:27:56.936Z</time>
      </trkpt>
      <trkpt lat="47.645188" lon="7.743513">
        <ele>332.347485</ele>
        <time>2021-11-14T18:28:03.448Z</time>
      </trkpt>
      <trkpt lat="47.645131" lon="7.743484">
        <ele>332.235789</ele>
        <time>2021-11-14T18:28:04.180Z</time>
      </trkpt>
      <trkpt lat="47.645054" lon="7.743433">
        <ele>332.079487</ele>
        <time>2021-11-14T18:28:05.203Z</time>
      </trkpt>
      <trkpt lat="47.644925" lon="7.743203">
        <ele>331.872703</ele>
        <time>2021-11-14T18:28:07.668Z</time>
      </trkpt>
      <trkpt lat="47.644734" lon="7.742487">
        <ele>331.441528</ele>
        <time>2021-11-14T18:28:14.072Z</time>
      </trkpt>
      <trkpt lat="47.644669" lon="7.742280">
        <ele>331.313656</ele>
        <time>2021-11-14T18:28:15.976Z</time>
      </trkpt>
      <trkpt lat="47.644599" lon="7.742155">
        <ele>331.222647</ele>
        <time>2021-11-14T18:28:17.330Z</time>
      </trkpt>
      <trkpt lat="47.644397" lon="7.741849">
        <ele>330.982779</ele>
        <time>2021-11-14T18:28:20.961Z</time>
      </trkpt>
      <trkpt lat="47.644276" lon="7.741683">
        <ele>330.845845</ele>
        <time>2021-11-14T18:28:23.056Z</time>
      </trkpt>
      <trkpt lat="47.644182" lon="7.741417">
        <ele>330.677664</ele>
        <time>2021-11-14T18:28:25.614Z</time>
      </trkpt>
      <trkpt lat="47.644157" lon="7.741340">
        <ele>330.629805</ele>
        <time>2021-11-14T18:28:26.356Z</time>
      </trkpt>
      <trkpt lat="47.644056" lon="7.741009">
        <ele>330.464323</ele>
        <time>2021-11-14T18:28:29.590Z</time>
      </trkpt>
      <trkpt lat="47.644034" lon="7.740945">
        <ele>330.441601</ele>
        <time>2021-11-14T18:28:30.223Z</time>
      </trkpt>
      <trkpt lat="47.643938" lon="7.740664">
        <ele>330.341962</ele>
        <time>2021-11-14T18:28:33.068Z</time>
      </trkpt>
      <trkpt lat="47.643881" lon="7.740570">
        <ele>330.301967</ele>
        <time>2021-11-14T18:28:34.194Z</time>
      </trkpt>
      <trkpt lat="47.643783" lon="7.740468">
        <ele>330.245783</ele>
        <time>2021-11-14T18:28:35.753Z</time>
      </trkpt>
      <trkpt lat="47.643656" lon="7.740319">
        <ele>330.169795</ele>
        <time>2021-11-14T18:28:37.944Z</time>
      </trkpt>
      <trkpt lat="47.643591" lon="7.740215">
        <ele>330.124932</ele>
        <time>2021-11-14T18:28:39.224Z</time>
      </trkpt>
      <trkpt lat="47.643475" lon="7.739785">
        <ele>329.978447</ele>
        <time>2021-11-14T18:28:43.339Z</time>
      </trkpt>
      <trkpt lat="47.643301" lon="7.739935">
        <ele>329.883994</ele>
        <time>2021-11-14T18:28:46.019Z</time>
      </trkpt>
      <trkpt lat="47.643168" lon="7.740007">
        <ele>329.817541</ele>
        <time>2021-11-14T18:28:47.952Z</time>
      </trkpt>
      <trkpt lat="47.643121" lon="7.740032">
        <ele>329.794105</ele>
        <time>2021-11-14T18:28:48.641Z</time>
      </trkpt>
      <trkpt lat="47.642972" lon="7.740117">
        <ele>329.719177</ele>
        <time>2021-11-14T18:28:50.813Z</time>
      </trkpt>
      <trkpt lat="47.642922" lon="7.740181">
        <ele>329.688184</ele>
        <time>2021-11-14T18:28:51.730Z</time>
      </trkpt>
      <trkpt lat="47.642911" lon="7.740194">
        <ele>329.681584</ele>
        <time>2021-11-14T18:28:51.911Z</time>
      </trkpt>
      <trkpt lat="47.642862" lon="7.740256">
        <ele>329.664759</ele>
        <time>2021-11-14T18:28:52.778Z</time>
      </trkpt>
      <trkpt lat="47.642822" lon="7.740329">
        <ele>329.657196</ele>
        <time>2021-11-14T18:28:53.590Z</time>
      </trkpt>
      <trkpt lat="47.642798" lon="7.740374">
        <ele>329.652583</ele>
        <time>2021-11-14T18:28:54.148Z</time>
      </trkpt>
      <trkpt lat="47.642647" lon="7.740709">
        <ele>329.620186</ele>
        <time>2021-11-14T18:28:57.908Z</time>
      </trkpt>
      <trkpt lat="47.642519" lon="7.740966">
        <ele>329.594498</ele>
        <time>2021-11-14T18:29:01.015Z</time>
      </trkpt>
      <trkpt lat="47.642394" lon="7.741202">
        <ele>329.570369</ele>
        <time>2021-11-14T18:29:03.844Z</time>
      </trkpt>
      <trkpt lat="47.642274" lon="7.741453">
        <ele>329.545631</ele>
        <time>2021-11-14T18:29:06.927Z</time>
      </trkpt>
      <trkpt lat="47.642209" lon="7.741595">
        <ele>329.531833</ele>
        <time>2021-11-14T18:29:08.525Z</time>
      </trkpt>
      <trkpt lat="47.642066" lon="7.741908">
        <ele>329.501436</ele>
        <time>2021-11-14T18:29:12.305Z</time>
      </trkpt>
      <trkpt lat="47.641997" lon="7.741966">
        <ele>329.491976</ele>
        <time>2021-11-14T18:29:13.466Z</time>
      </trkpt>
      <trkpt lat="47.641954" lon="7.741976">
        <ele>329.486783</ele>
        <time>2021-11-14T18:29:14.040Z</time>
      </trkpt>
      <trkpt lat="47.641958" lon="7.742061">
        <ele>329.479934</ele>
        <time>2021-11-14T18:29:14.914Z</time>
      </trkpt>
      <trkpt lat="47.641960" lon="7.742153">
        <ele>329.472536</ele>
        <time>2021-11-14T18:29:15.889Z</time>
      </trkpt>
      <trkpt lat="47.641952" lon="7.742244">
        <ele>329.465159</ele>
        <time>2021-11-14T18:29:16.873Z</time>
      </trkpt>
      <trkpt lat="47.641935" lon="7.742324">
        <ele>329.458417</ele>
        <time>2021-11-14T18:29:17.749Z</time>
      </trkpt>
      <trkpt lat="47.641903" lon="7.742471">
        <ele>329.480499</ele>
        <time>2021-11-14T18:29:19.270Z</time>
      </trkpt>
      <trkpt lat="47.641887" lon="7.742564">
        <ele>329.503201</ele>
        <time>2021-11-14T18:29:20.172Z</time>
      </trkpt>
      <trkpt lat="47.641875" lon="7.742622">
        <ele>329.517552</ele>
        <time>2021-11-14T18:29:20.847Z</time>
      </trkpt>
      <trkpt lat="47.641858" lon="7.742708">
        <ele>329.538750</ele>
        <time>2021-11-14T18:29:21.874Z</time>
      </trkpt>
      <trkpt lat="47.641802" lon="7.742982">
        <ele>329.606474</ele>
        <time>2021-11-14T18:29:24.932Z</time>
      </trkpt>
      <trkpt lat="47.641773" lon="7.743087">
        <ele>329.633315</ele>
        <time>2021-11-14T18:29:26.065Z</time>
      </trkpt>
      <trkpt lat="47.641651" lon="7.743319">
        <ele>329.702924</ele>
        <time>2021-11-14T18:29:29.414Z</time>
      </trkpt>
      <trkpt lat="47.641543" lon="7.743498">
        <ele>329.759756</ele>
        <time>2021-11-14T18:29:31.847Z</time>
      </trkpt>
      <trkpt lat="47.641440" lon="7.743669">
        <ele>329.814008</ele>
        <time>2021-11-14T18:29:34.471Z</time>
      </trkpt>
      <trkpt lat="47.641133" lon="7.744182">
        <ele>329.976298</ele>
        <time>2021-11-14T18:29:42.331Z</time>
      </trkpt>
      <trkpt lat="47.641118" lon="7.744203">
        <ele>329.983537</ele>
        <time>2021-11-14T18:29:42.721Z</time>
      </trkpt>
      <trkpt lat="47.641021" lon="7.744322">
        <ele>330.027716</ele>
        <time>2021-11-14T18:29:44.877Z</time>
      </trkpt>
      <trkpt lat="47.641089" lon="7.744504">
        <ele>330.076940</ele>
        <time>2021-11-14T18:29:47.384Z</time>
      </trkpt>
      <trkpt lat="47.641098" lon="7.744530">
        <ele>330.083853</ele>
        <time>2021-11-14T18:29:47.664Z</time>
      </trkpt>
      <trkpt lat="47.641149" lon="7.744754">
        <ele>330.176592</ele>
        <time>2021-11-14T18:29:50.304Z</time>
      </trkpt>
      <trkpt lat="47.641056" lon="7.744855">
        <ele>330.244824</ele>
        <time>2021-11-14T18:29:52.283Z</time>
      </trkpt>
      <trkpt lat="47.640998" lon="7.744824">
        <ele>330.281324</ele>
        <time>2021-11-14T18:29:53.260Z</time>
      </trkpt>
      <trkpt lat="47.640958" lon="7.744746">
        <ele>330.320429</ele>
        <time>2021-11-14T18:29:54.268Z</time>
      </trkpt>
      <trkpt lat="47.640859" lon="7.744671">
        <ele>330.386241</ele>
        <time>2021-11-14T18:29:56.065Z</time>
      </trkpt>
      <trkpt lat="47.640802" lon="7.744697">
        <ele>330.421548</ele>
        <time>2021-11-14T18:29:57.023Z</time>
      </trkpt>
      <trkpt lat="47.640698" lon="7.744798">
        <ele>330.495137</ele>
        <time>2021-11-14T18:29:59.087Z</time>
      </trkpt>
      <trkpt lat="47.640175" lon="7.745392">
        <ele>330.885069</ele>
        <time>2021-11-14T18:30:09.390Z</time>
      </trkpt>
      <trkpt lat="47.639940" lon="7.745029">
        <ele>331.085897</ele>
        <time>2021-11-14T18:30:14.785Z</time>
      </trkpt>
      <trkpt lat="47.639661" lon="7.744599">
        <ele>333.043631</ele>
        <time>2021-11-14T18:30:23.207Z</time>
      </trkpt>
      <trkpt lat="47.639286" lon="7.744230">
        <ele>335.959175</ele>
        <time>2021-11-14T18:30:34.613Z</time>
      </trkpt>
      <trkpt lat="47.639124" lon="7.743936">
        <ele>337.617403</ele>
        <time>2021-11-14T18:30:44.959Z</time>
      </trkpt>
      <trkpt lat="47.639034" lon="7.743640">
        <ele>339.035277</ele>
        <time>2021-11-14T18:30:55.685Z</time>
      </trkpt>
      <trkpt lat="47.638834" lon="7.743716">
        <ele>340.373068</ele>
        <time>2021-11-14T18:31:07.972Z</time>
      </trkpt>
      <trkpt lat="47.638586" lon="7.743801">
        <ele>342.022385</ele>
        <time>2021-11-14T18:31:24.171Z</time>
      </trkpt>
      <trkpt lat="47.638337" lon="7.743810">
        <ele>344.364527</ele>
        <time>2021-11-14T18:31:38.576Z</time>
      </trkpt>
      <trkpt lat="47.638011" lon="7.743662">
        <ele>348.511234</ele>
        <time>2021-11-14T18:31:59.922Z</time>
      </trkpt>
      <trkpt lat="47.637785" lon="7.743491">
        <ele>351.596856</ele>
        <time>2021-11-14T18:32:16.852Z</time>
      </trkpt>
      <trkpt lat="47.637644" lon="7.743238">
        <ele>354.287809</ele>
        <time>2021-11-14T18:32:32.801Z</time>
      </trkpt>
      <trkpt lat="47.637552" lon="7.742900">
        <ele>357.275551</ele>
        <time>2021-11-14T18:32:48.567Z</time>
      </trkpt>
      <trkpt lat="47.637523" lon="7.742385">
        <ele>361.511227</ele>
        <time>2021-11-14T18:33:11.423Z</time>
      </trkpt>
      <trkpt lat="47.637556" lon="7.741902">
        <ele>365.154324</ele>
        <time>2021-11-14T18:33:32.109Z</time>
      </trkpt>
      <trkpt lat="47.637528" lon="7.741566">
        <ele>366.772928</ele>
        <time>2021-11-14T18:33:46.360Z</time>
      </trkpt>
      <trkpt lat="47.637507" lon="7.741319">
        <ele>367.963161</ele>
        <time>2021-11-14T18:33:56.073Z</time>
      </trkpt>
      <trkpt lat="47.637359" lon="7.740737">
        <ele>370.937176</ele>
        <time>2021-11-14T18:34:13.425Z</time>
      </trkpt>
      <trkpt lat="47.637115" lon="7.740401">
        <ele>373.298862</ele>
        <time>2021-11-14T18:34:24.178Z</time>
      </trkpt>
      <trkpt lat="47.636771" lon="7.740116">
        <ele>376.094171</ele>
        <time>2021-11-14T18:34:37.299Z</time>
      </trkpt>
      <trkpt lat="47.636317" lon="7.740109">
        <ele>378.728370</ele>
        <time>2021-11-14T18:34:52.805Z</time>
      </trkpt>
      <trkpt lat="47.636139" lon="7.739987">
        <ele>379.682627</ele>
        <time>2021-11-14T18:34:59.279Z</time>
      </trkpt>
      <trkpt lat="47.635963" lon="7.739717">
        <ele>380.914631</ele>
        <time>2021-11-14T18:35:07.880Z</time>
      </trkpt>
      <trkpt lat="47.635790" lon="7.739028">
        <ele>383.326038</ele>
        <time>2021-11-14T18:35:25.205Z</time>
      </trkpt>
      <trkpt lat="47.635441" lon="7.738683">
        <ele>385.366968</ele>
        <time>2021-11-14T18:35:40.309Z</time>
      </trkpt>
      <trkpt lat="47.634316" lon="7.737920">
        <ele>390.524920</ele>
        <time>2021-11-14T18:36:21.472Z</time>
      </trkpt>
      <trkpt lat="47.632595" lon="7.737266">
        <ele>396.503801</ele>
        <time>2021-11-14T18:37:10.114Z</time>
      </trkpt>
      <trkpt lat="47.632395" lon="7.737249">
        <ele>397.080576</ele>
        <time>2021-11-14T18:37:15.156Z</time>
      </trkpt>
      <trkpt lat="47.632230" lon="7.737357">
        <ele>397.599799</ele>
        <time>2021-11-14T18:37:19.796Z</time>
      </trkpt>
      <trkpt lat="47.631655" lon="7.738144">
        <ele>399.815814</ele>
        <time>2021-11-14T18:37:38.836Z</time>
      </trkpt>
      <trkpt lat="47.631444" lon="7.738356">
        <ele>400.526876</ele>
        <time>2021-11-14T18:37:45.639Z</time>
      </trkpt>
      <trkpt lat="47.631083" lon="7.738808">
        <ele>401.844929</ele>
        <time>2021-11-14T18:37:57.494Z</time>
      </trkpt>
      <trkpt lat="47.630948" lon="7.739058">
        <ele>402.447370</ele>
        <time>2021-11-14T18:38:03.569Z</time>
      </trkpt>
      <trkpt lat="47.630898" lon="7.739304">
        <ele>402.930560</ele>
        <time>2021-11-14T18:38:07.703Z</time>
      </trkpt>
      <trkpt lat="47.630891" lon="7.739335">
        <ele>402.992042</ele>
        <time>2021-11-14T18:38:08.285Z</time>
      </trkpt>
      <trkpt lat="47.630944" lon="7.739673">
        <ele>403.644636</ele>
        <time>2021-11-14T18:38:15.179Z</time>
      </trkpt>
      <trkpt lat="47.630907" lon="7.739873">
        <ele>404.154932</ele>
        <time>2021-11-14T18:38:18.618Z</time>
      </trkpt>
      <trkpt lat="47.630897" lon="7.740046">
        <ele>404.597597</ele>
        <time>2021-11-14T18:38:22.465Z</time>
      </trkpt>
      <trkpt lat="47.630863" lon="7.740423">
        <ele>405.567288</ele>
        <time>2021-11-14T18:38:29.053Z</time>
      </trkpt>
      <trkpt lat="47.630897" lon="7.740602">
        <ele>406.041411</ele>
        <time>2021-11-14T18:38:32.913Z</time>
      </trkpt>
      <trkpt lat="47.631280" lon="7.741275">
        <ele>408.287088</ele>
        <time>2021-11-14T18:38:49.867Z</time>
      </trkpt>
      <trkpt lat="47.631424" lon="7.741490">
        <ele>409.059868</ele>
        <time>2021-11-14T18:38:56.678Z</time>
      </trkpt>
      <trkpt lat="47.631477" lon="7.741795">
        <ele>409.862861</ele>
        <time>2021-11-14T18:39:03.602Z</time>
      </trkpt>
      <trkpt lat="47.631282" lon="7.742608">
        <ele>412.559050</ele>
        <time>2021-11-14T18:39:23.138Z</time>
      </trkpt>
      <trkpt lat="47.631260" lon="7.742819">
        <ele>413.276272</ele>
        <time>2021-11-14T18:39:28.112Z</time>
      </trkpt>
      <trkpt lat="47.631202" lon="7.744011">
        <ele>417.290849</ele>
        <time>2021-11-14T18:39:56.413Z</time>
      </trkpt>
      <trkpt lat="47.631185" lon="7.744218">
        <ele>417.991346</ele>
        <time>2021-11-14T18:40:01.201Z</time>
      </trkpt>
      <trkpt lat="47.631075" lon="7.745596">
        <ele>422.454929</ele>
        <time>2021-11-14T18:40:35.252Z</time>
      </trkpt>
      <trkpt lat="47.631034" lon="7.745824">
        <ele>423.198426</ele>
        <time>2021-11-14T18:40:40.338Z</time>
      </trkpt>
      <trkpt lat="47.630948" lon="7.746031">
        <ele>423.964604</ele>
        <time>2021-11-14T18:40:46.192Z</time>
      </trkpt>
      <trkpt lat="47.630697" lon="7.746375">
        <ele>425.562054</ele>
        <time>2021-11-14T18:40:57.470Z</time>
      </trkpt>
      <trkpt lat="47.629711" lon="7.747557">
        <ele>430.916038</ele>
        <time>2021-11-14T18:41:36.089Z</time>
      </trkpt>
      <trkpt lat="47.629452" lon="7.747871">
        <ele>432.232016</ele>
        <time>2021-11-14T18:41:46.326Z</time>
      </trkpt>
      <trkpt lat="47.629212" lon="7.748211">
        <ele>433.537613</ele>
        <time>2021-11-14T18:41:56.391Z</time>
      </trkpt>
      <trkpt lat="47.628729" lon="7.749001">
        <ele>436.282743</ele>
        <time>2021-11-14T18:42:18.472Z</time>
      </trkpt>
      <trkpt lat="47.628604" lon="7.749202">
        <ele>436.965235</ele>
        <time>2021-11-14T18:42:23.749Z</time>
      </trkpt>
      <trkpt lat="47.628584" lon="7.749233">
        <ele>437.072324</ele>
        <time>2021-11-14T18:42:25.424Z</time>
      </trkpt>
      <trkpt lat="47.627609" lon="7.750299">
        <ele>441.556670</ele>
        <time>2021-11-14T18:43:01.744Z</time>
      </trkpt>
      <trkpt lat="47.625761" lon="7.752304">
        <ele>446.330834</ele>
        <time>2021-11-14T18:43:56.997Z</time>
      </trkpt>
      <trkpt lat="47.624838" lon="7.753339">
        <ele>447.144392</ele>
        <time>2021-11-14T18:44:15.087Z</time>
      </trkpt>
      <trkpt lat="47.624277" lon="7.754101">
        <ele>447.027610</ele>
        <time>2021-11-14T18:44:24.964Z</time>
      </trkpt>
      <trkpt lat="47.622712" lon="7.756863">
        <ele>445.721750</ele>
        <time>2021-11-14T18:44:58.000Z</time>
      </trkpt>
      <trkpt lat="47.622511" lon="7.757074">
        <ele>445.554778</ele>
        <time>2021-11-14T18:45:01.080Z</time>
      </trkpt>
      <trkpt lat="47.622401" lon="7.757191">
        <ele>445.462995</ele>
        <time>2021-11-14T18:45:02.612Z</time>
      </trkpt>
      <trkpt lat="47.621775" lon="7.757496">
        <ele>444.942687</ele>
        <time>2021-11-14T18:45:10.207Z</time>
      </trkpt>
      <trkpt lat="47.621392" lon="7.757689">
        <ele>444.605092</ele>
        <time>2021-11-14T18:45:14.901Z</time>
      </trkpt>
      <trkpt lat="47.621012" lon="7.757974">
        <ele>444.249715</ele>
        <time>2021-11-14T18:45:20.216Z</time>
      </trkpt>
      <trkpt lat="47.620828" lon="7.758215">
        <ele>444.044861</ele>
        <time>2021-11-14T18:45:23.549Z</time>
      </trkpt>
      <trkpt lat="47.620566" lon="7.758657">
        <ele>444.110853</ele>
        <time>2021-11-14T18:45:29.255Z</time>
      </trkpt>
      <trkpt lat="47.620058" lon="7.759513">
        <ele>445.597160</ele>
        <time>2021-11-14T18:45:43.493Z</time>
      </trkpt>
      <trkpt lat="47.619245" lon="7.761370">
        <ele>448.556417</ele>
        <time>2021-11-14T18:46:25.979Z</time>
      </trkpt>
      <trkpt lat="47.618940" lon="7.761783">
        <ele>449.404891</ele>
        <time>2021-11-14T18:46:36.524Z</time>
      </trkpt>
      <trkpt lat="47.618742" lon="7.761992">
        <ele>449.904189</ele>
        <time>2021-11-14T18:46:41.789Z</time>
      </trkpt>
      <trkpt lat="47.618586" lon="7.762088">
        <ele>450.251203</ele>
        <time>2021-11-14T18:46:45.201Z</time>
      </trkpt>
      <trkpt lat="47.618125" lon="7.762615">
        <ele>450.655972</ele>
        <time>2021-11-14T18:46:54.558Z</time>
      </trkpt>
      <trkpt lat="47.617894" lon="7.763136">
        <ele>449.968129</ele>
        <time>2021-11-14T18:46:59.808Z</time>
      </trkpt>
      <trkpt lat="47.617858" lon="7.763622">
        <ele>449.428835</ele>
        <time>2021-11-14T18:47:03.563Z</time>
      </trkpt>
      <trkpt lat="47.617849" lon="7.763863">
        <ele>449.162600</ele>
        <time>2021-11-14T18:47:05.313Z</time>
      </trkpt>
      <trkpt lat="47.617934" lon="7.764271">
        <ele>448.691565</ele>
        <time>2021-11-14T18:47:08.249Z</time>
      </trkpt>
      <trkpt lat="47.618136" lon="7.764529">
        <ele>448.255397</ele>
        <time>2021-11-14T18:47:10.932Z</time>
      </trkpt>
      <trkpt lat="47.617927" lon="7.765048">
        <ele>447.490785</ele>
        <time>2021-11-14T18:47:15.135Z</time>
      </trkpt>
      <trkpt lat="47.617756" lon="7.765839">
        <ele>446.385890</ele>
        <time>2021-11-14T18:47:21.107Z</time>
      </trkpt>
      <trkpt lat="47.617587" lon="7.766558">
        <ele>445.373069</ele>
        <time>2021-11-14T18:47:26.897Z</time>
      </trkpt>
      <trkpt lat="47.617431" lon="7.767002">
        <ele>444.707090</ele>
        <time>2021-11-14T18:47:31.029Z</time>
      </trkpt>
      <trkpt lat="47.617229" lon="7.767356">
        <ele>444.198277</ele>
        <time>2021-11-14T18:47:34.889Z</time>
      </trkpt>
      <trkpt lat="47.616591" lon="7.768154">
        <ele>442.971304</ele>
        <time>2021-11-14T18:47:44.888Z</time>
      </trkpt>
      <trkpt lat="47.616428" lon="7.768317">
        <ele>442.682280</ele>
        <time>2021-11-14T18:47:47.314Z</time>
      </trkpt>
      <trkpt lat="47.616270" lon="7.768392">
        <ele>442.438370</ele>
        <time>2021-11-14T18:47:49.134Z</time>
      </trkpt>
      <trkpt lat="47.615847" lon="7.768379">
        <ele>441.758692</ele>
        <time>2021-11-14T18:47:53.827Z</time>
      </trkpt>
      <trkpt lat="47.615686" lon="7.768286">
        <ele>441.230959</ele>
        <time>2021-11-14T18:47:55.700Z</time>
      </trkpt>
      <trkpt lat="47.615034" lon="7.767629">
        <ele>438.823450</ele>
        <time>2021-11-14T18:48:03.782Z</time>
      </trkpt>
      <trkpt lat="47.614847" lon="7.767530">
        <ele>438.216983</ele>
        <time>2021-11-14T18:48:05.757Z</time>
      </trkpt>
      <trkpt lat="47.614663" lon="7.767520">
        <ele>437.654586</ele>
        <time>2021-11-14T18:48:07.617Z</time>
      </trkpt>
      <trkpt lat="47.614123" lon="7.767665">
        <ele>435.955037</ele>
        <time>2021-11-14T18:48:12.979Z</time>
      </trkpt>
      <trkpt lat="47.613763" lon="7.767578">
        <ele>434.775528</ele>
        <time>2021-11-14T18:48:16.612Z</time>
      </trkpt>
      <trkpt lat="47.613205" lon="7.767665">
        <ele>432.961137</ele>
        <time>2021-11-14T18:48:22.363Z</time>
      </trkpt>
      <trkpt lat="47.613003" lon="7.767758">
        <ele>432.277174</ele>
        <time>2021-11-14T18:48:24.483Z</time>
      </trkpt>
      <trkpt lat="47.612771" lon="7.767909">
        <ele>431.457895</ele>
        <time>2021-11-14T18:48:27.082Z</time>
      </trkpt>
      <trkpt lat="47.612502" lon="7.768119">
        <ele>430.482598</ele>
        <time>2021-11-14T18:48:30.211Z</time>
      </trkpt>
      <trkpt lat="47.611960" lon="7.768717">
        <ele>428.497178</ele>
        <time>2021-11-14T18:48:37.243Z</time>
      </trkpt>
      <trkpt lat="47.611843" lon="7.768871">
        <ele>428.037421</ele>
        <time>2021-11-14T18:48:38.847Z</time>
      </trkpt>
      <trkpt lat="47.611735" lon="7.769126">
        <ele>427.440702</ele>
        <time>2021-11-14T18:48:40.909Z</time>
      </trkpt>
      <trkpt lat="47.611495" lon="7.770538">
        <ele>424.592997</ele>
        <time>2021-11-14T18:48:51.017Z</time>
      </trkpt>
      <trkpt lat="47.611349" lon="7.770818">
        <ele>423.928459</ele>
        <time>2021-11-14T18:48:53.357Z</time>
      </trkpt>
      <trkpt lat="47.610490" lon="7.771899">
        <ele>420.791490</ele>
        <time>2021-11-14T18:49:05.084Z</time>
      </trkpt>
      <trkpt lat="47.610258" lon="7.772352">
        <ele>419.738308</ele>
        <time>2021-11-14T18:49:09.218Z</time>
      </trkpt>
      <trkpt lat="47.610187" lon="7.772679">
        <ele>419.111046</ele>
        <time>2021-11-14T18:49:11.822Z</time>
      </trkpt>
      <trkpt lat="47.610132" lon="7.773138">
        <ele>418.259834</ele>
        <time>2021-11-14T18:49:15.161Z</time>
      </trkpt>
      <trkpt lat="47.610139" lon="7.773592">
        <ele>417.430669</ele>
        <time>2021-11-14T18:49:18.365Z</time>
      </trkpt>
      <trkpt lat="47.610312" lon="7.774653">
        <ele>415.437561</ele>
        <time>2021-11-14T18:49:25.995Z</time>
      </trkpt>
      <trkpt lat="47.610473" lon="7.775477">
        <ele>412.445244</ele>
        <time>2021-11-14T18:49:31.700Z</time>
      </trkpt>
      <trkpt lat="47.610502" lon="7.776042">
        <ele>410.441165</ele>
        <time>2021-11-14T18:49:35.296Z</time>
      </trkpt>
      <trkpt lat="47.610448" lon="7.776605">
        <ele>408.429890</ele>
        <time>2021-11-14T18:49:38.823Z</time>
      </trkpt>
      <trkpt lat="47.610341" lon="7.777059">
        <ele>406.728884</ele>
        <time>2021-11-14T18:49:41.770Z</time>
      </trkpt>
      <trkpt lat="47.610133" lon="7.777501">
        <ele>404.268924</ele>
        <time>2021-11-14T18:49:45.030Z</time>
      </trkpt>
      <trkpt lat="47.609368" lon="7.778574">
        <ele>396.050197</ele>
        <time>2021-11-14T18:49:54.343Z</time>
      </trkpt>
      <trkpt lat="47.608894" lon="7.779407">
        <ele>390.404571</ele>
        <time>2021-11-14T18:50:00.800Z</time>
      </trkpt>
      <trkpt lat="47.608573" lon="7.780374">
        <ele>385.054059</ele>
        <time>2021-11-14T18:50:07.204Z</time>
      </trkpt>
      <trkpt lat="47.608399" lon="7.780950">
        <ele>381.920877</ele>
        <time>2021-11-14T18:50:10.985Z</time>
      </trkpt>
      <trkpt lat="47.608295" lon="7.781364">
        <ele>379.727739</ele>
        <time>2021-11-14T18:50:13.698Z</time>
      </trkpt>
      <trkpt lat="47.608309" lon="7.781587">
        <ele>378.643732</ele>
        <time>2021-11-14T18:50:15.101Z</time>
      </trkpt>
      <trkpt lat="47.608437" lon="7.781938">
        <ele>377.624363</ele>
        <time>2021-11-14T18:50:17.604Z</time>
      </trkpt>
      <trkpt lat="47.608448" lon="7.782041">
        <ele>377.357975</ele>
        <time>2021-11-14T18:50:18.273Z</time>
      </trkpt>
      <trkpt lat="47.608319" lon="7.782746">
        <ele>375.491942</ele>
        <time>2021-11-14T18:50:23.014Z</time>
      </trkpt>
      <trkpt lat="47.608293" lon="7.782840">
        <ele>375.232402</ele>
        <time>2021-11-14T18:50:23.671Z</time>
      </trkpt>
      <trkpt lat="47.608067" lon="7.783679">
        <ele>372.924484</ele>
        <time>2021-11-14T18:50:29.850Z</time>
      </trkpt>
      <trkpt lat="47.608000" lon="7.783873">
        <ele>372.367683</ele>
        <time>2021-11-14T18:50:31.408Z</time>
      </trkpt>
      <trkpt lat="47.607811" lon="7.784422">
        <ele>371.489742</ele>
        <time>2021-11-14T18:50:36.150Z</time>
      </trkpt>
      <trkpt lat="47.607784" lon="7.784501">
        <ele>371.411463</ele>
        <time>2021-11-14T18:50:36.829Z</time>
      </trkpt>
      <trkpt lat="47.607357" lon="7.785276">
        <ele>370.526887</ele>
        <time>2021-11-14T18:50:45.659Z</time>
      </trkpt>
      <trkpt lat="47.607244" lon="7.785405">
        <ele>370.339961</ele>
        <time>2021-11-14T18:50:47.311Z</time>
      </trkpt>
      <trkpt lat="47.607090" lon="7.785536">
        <ele>370.107240</ele>
        <time>2021-11-14T18:50:49.543Z</time>
      </trkpt>
      <trkpt lat="47.606894" lon="7.785802">
        <ele>369.758980</ele>
        <time>2021-11-14T18:50:52.648Z</time>
      </trkpt>
      <trkpt lat="47.606482" lon="7.786756">
        <ele>367.893284</ele>
        <time>2021-11-14T18:51:01.339Z</time>
      </trkpt>
      <trkpt lat="47.606236" lon="7.787573">
        <ele>366.182217</ele>
        <time>2021-11-14T18:51:07.574Z</time>
      </trkpt>
      <trkpt lat="47.606058" lon="7.787870">
        <ele>365.422310</ele>
        <time>2021-11-14T18:51:10.292Z</time>
      </trkpt>
      <trkpt lat="47.605245" lon="7.789093">
        <ele>361.489737</ele>
        <time>2021-11-14T18:51:21.443Z</time>
      </trkpt>
      <trkpt lat="47.604933" lon="7.789879">
        <ele>359.245443</ele>
        <time>2021-11-14T18:51:27.546Z</time>
      </trkpt>
      <trkpt lat="47.604861" lon="7.790465">
        <ele>357.804871</ele>
        <time>2021-11-14T18:51:31.671Z</time>
      </trkpt>
      <trkpt lat="47.604776" lon="7.790738">
        <ele>357.401172</ele>
        <time>2021-11-14T18:51:33.800Z</time>
      </trkpt>
      <trkpt lat="47.604673" lon="7.790747">
        <ele>357.195727</ele>
        <time>2021-11-14T18:51:34.896Z</time>
      </trkpt>
      <trkpt lat="47.604312" lon="7.790667">
        <ele>356.468940</ele>
        <time>2021-11-14T18:51:38.869Z</time>
      </trkpt>
      <trkpt lat="47.604020" lon="7.790669">
        <ele>355.887516</ele>
        <time>2021-11-14T18:51:42.116Z</time>
      </trkpt>
      <trkpt lat="47.603500" lon="7.790696">
        <ele>354.851480</ele>
        <time>2021-11-14T18:51:47.961Z</time>
      </trkpt>
      <trkpt lat="47.603379" lon="7.790683">
        <ele>354.609919</ele>
        <time>2021-11-14T18:51:49.309Z</time>
      </trkpt>
      <trkpt lat="47.603218" lon="7.790665">
        <ele>354.288433</ele>
        <time>2021-11-14T18:51:51.155Z</time>
      </trkpt>
      <trkpt lat="47.602292" lon="7.790564">
        <ele>353.307888</ele>
        <time>2021-11-14T18:52:02.432Z</time>
      </trkpt>
      <trkpt lat="47.601954" lon="7.790533">
        <ele>352.956341</ele>
        <time>2021-11-14T18:52:06.646Z</time>
      </trkpt>
      <trkpt lat="47.601768" lon="7.790511">
        <ele>352.762642</ele>
        <time>2021-11-14T18:52:09.024Z</time>
      </trkpt>
      <trkpt lat="47.601359" lon="7.790478">
        <ele>352.319659</ele>
        <time>2021-11-14T18:52:14.136Z</time>
      </trkpt>
      <trkpt lat="47.601073" lon="7.790573">
        <ele>351.905055</ele>
        <time>2021-11-14T18:52:17.771Z</time>
      </trkpt>
      <trkpt lat="47.600304" lon="7.790832">
        <ele>350.789515</ele>
        <time>2021-11-14T18:52:27.161Z</time>
      </trkpt>
      <trkpt lat="47.600211" lon="7.790869">
        <ele>350.653303</ele>
        <time>2021-11-14T18:52:28.283Z</time>
      </trkpt>
      <trkpt lat="47.600151" lon="7.790895">
        <ele>350.564877</ele>
        <time>2021-11-14T18:52:29.000Z</time>
      </trkpt>
      <trkpt lat="47.599667" lon="7.791105">
        <ele>349.851501</ele>
        <time>2021-11-14T18:52:34.705Z</time>
      </trkpt>
      <trkpt lat="47.598592" lon="7.791580">
        <ele>346.951132</ele>
        <time>2021-11-14T18:52:46.463Z</time>
      </trkpt>
      <trkpt lat="47.598252" lon="7.791731">
        <ele>346.030930</ele>
        <time>2021-11-14T18:52:50.089Z</time>
      </trkpt>
      <trkpt lat="47.598017" lon="7.791913">
        <ele>345.343560</ele>
        <time>2021-11-14T18:52:52.798Z</time>
      </trkpt>
      <trkpt lat="47.597848" lon="7.792115">
        <ele>344.825585</ele>
        <time>2021-11-14T18:52:55.062Z</time>
      </trkpt>
      <trkpt lat="47.597646" lon="7.792396">
        <ele>344.188346</ele>
        <time>2021-11-14T18:52:57.957Z</time>
      </trkpt>
      <trkpt lat="47.596504" lon="7.792669">
        <ele>341.526917</ele>
        <time>2021-11-14T18:53:10.483Z</time>
      </trkpt>
      <trkpt lat="47.595750" lon="7.792802">
        <ele>339.954258</ele>
        <time>2021-11-14T18:53:18.870Z</time>
      </trkpt>
      <trkpt lat="47.595245" lon="7.792802">
        <ele>338.953087</ele>
        <time>2021-11-14T18:53:24.400Z</time>
      </trkpt>
      <trkpt lat="47.595133" lon="7.792800">
        <ele>338.731029</ele>
        <time>2021-11-14T18:53:25.641Z</time>
      </trkpt>
      <trkpt lat="47.594154" lon="7.792816">
        <ele>337.087720</ele>
        <time>2021-11-14T18:53:36.455Z</time>
      </trkpt>
      <trkpt lat="47.594082" lon="7.792808">
        <ele>337.006830</ele>
        <time>2021-11-14T18:53:37.265Z</time>
      </trkpt>
      <trkpt lat="47.593971" lon="7.792763">
        <ele>336.877909</ele>
        <time>2021-11-14T18:53:39.038Z</time>
      </trkpt>
      <trkpt lat="47.593728" lon="7.792495">
        <ele>336.538624</ele>
        <time>2021-11-14T18:53:43.931Z</time>
      </trkpt>
      <trkpt lat="47.593198" lon="7.791524">
        <ele>335.594812</ele>
        <time>2021-11-14T18:53:58.453Z</time>
      </trkpt>
      <trkpt lat="47.592913" lon="7.791301">
        <ele>335.578645</ele>
        <time>2021-11-14T18:54:05.813Z</time>
      </trkpt>
      <trkpt lat="47.592574" lon="7.791231">
        <ele>335.781155</ele>
        <time>2021-11-14T18:54:14.672Z</time>
      </trkpt>
      <trkpt lat="47.592294" lon="7.791165">
        <ele>335.948900</ele>
        <time>2021-11-14T18:54:21.511Z</time>
      </trkpt>
      <trkpt lat="47.592223" lon="7.791117">
        <ele>335.995069</ele>
        <time>2021-11-14T18:54:23.334Z</time>
      </trkpt>
      <trkpt lat="47.592139" lon="7.791043">
        <ele>336.052878</ele>
        <time>2021-11-14T18:54:24.750Z</time>
      </trkpt>
      <trkpt lat="47.592020" lon="7.790907">
        <ele>336.141772</ele>
        <time>2021-11-14T18:54:27.940Z</time>
      </trkpt>
      <trkpt lat="47.591651" lon="7.790400">
        <ele>336.439416</ele>
        <time>2021-11-14T18:54:36.113Z</time>
      </trkpt>
      <trkpt lat="47.591450" lon="7.790091">
        <ele>336.496681</ele>
        <time>2021-11-14T18:54:40.869Z</time>
      </trkpt>
      <trkpt lat="47.591284" lon="7.789842">
        <ele>336.453400</ele>
        <time>2021-11-14T18:54:44.302Z</time>
      </trkpt>
      <trkpt lat="47.590789" lon="7.789356">
        <ele>336.344581</ele>
        <time>2021-11-14T18:54:54.901Z</time>
      </trkpt>
      <trkpt lat="47.590651" lon="7.789288">
        <ele>336.317926</ele>
        <time>2021-11-14T18:54:56.669Z</time>
      </trkpt>
      <trkpt lat="47.590583" lon="7.789238">
        <ele>336.304014</ele>
        <time>2021-11-14T18:54:58.046Z</time>
      </trkpt>
      <trkpt lat="47.590433" lon="7.789180">
        <ele>336.275600</ele>
        <time>2021-11-14T18:55:00.061Z</time>
      </trkpt>
      <trkpt lat="47.590193" lon="7.788979">
        <ele>336.225077</ele>
        <time>2021-11-14T18:55:03.616Z</time>
      </trkpt>
      <trkpt lat="47.590084" lon="7.788866">
        <ele>336.200698</ele>
        <time>2021-11-14T18:55:05.138Z</time>
      </trkpt>
      <trkpt lat="47.589969" lon="7.788952">
        <ele>336.036494</ele>
        <time>2021-11-14T18:55:06.551Z</time>
      </trkpt>
      <trkpt lat="47.589648" lon="7.789139">
        <ele>335.446777</ele>
        <time>2021-11-14T18:55:10.423Z</time>
      </trkpt>
      <trkpt lat="47.588924" lon="7.789149">
        <ele>334.208765</ele>
        <time>2021-11-14T18:55:18.607Z</time>
      </trkpt>
      <trkpt lat="47.588623" lon="7.789048">
        <ele>333.681073</ele>
        <time>2021-11-14T18:55:22.213Z</time>
      </trkpt>
      <trkpt lat="47.588438" lon="7.788977">
        <ele>333.354319</ele>
        <time>2021-11-14T18:55:24.197Z</time>
      </trkpt>
      <trkpt lat="47.587697" lon="7.788612">
        <ele>331.991869</ele>
        <time>2021-11-14T18:55:32.738Z</time>
      </trkpt>
      <trkpt lat="47.587461" lon="7.788566">
        <ele>331.574744</ele>
        <time>2021-11-14T18:55:35.302Z</time>
      </trkpt>
      <trkpt lat="47.586929" lon="7.788594">
        <ele>330.641880</ele>
        <time>2021-11-14T18:55:41.006Z</time>
      </trkpt>
      <trkpt lat="47.586523" lon="7.788744">
        <ele>329.960834</ele>
        <time>2021-11-14T18:55:46.060Z</time>
      </trkpt>
      <trkpt lat="47.585521" lon="7.789426">
        <ele>329.770045</ele>
        <time>2021-11-14T18:56:02.546Z</time>
      </trkpt>
      <trkpt lat="47.584464" lon="7.789827">
        <ele>328.827511</ele>
        <time>2021-11-14T18:56:19.387Z</time>
      </trkpt>
      <trkpt lat="47.584293" lon="7.789957">
        <ele>328.455832</ele>
        <time>2021-11-14T18:56:22.036Z</time>
      </trkpt>
      <trkpt lat="47.584135" lon="7.790107">
        <ele>328.092959</ele>
        <time>2021-11-14T18:56:24.135Z</time>
      </trkpt>
      <trkpt lat="47.583511" lon="7.790796">
        <ele>326.588135</ele>
        <time>2021-11-14T18:56:32.323Z</time>
      </trkpt>
      <trkpt lat="47.583202" lon="7.791051">
        <ele>325.636606</ele>
        <time>2021-11-14T18:56:35.733Z</time>
      </trkpt>
      <trkpt lat="47.582779" lon="7.791262">
        <ele>323.925606</ele>
        <time>2021-11-14T18:56:39.958Z</time>
      </trkpt>
      <trkpt lat="47.582412" lon="7.791278">
        <ele>322.518019</ele>
        <time>2021-11-14T18:56:43.444Z</time>
      </trkpt>
      <trkpt lat="47.582261" lon="7.791284">
        <ele>321.938918</ele>
        <time>2021-11-14T18:56:44.948Z</time>
      </trkpt>
      <trkpt lat="47.582013" lon="7.791256">
        <ele>320.985399</ele>
        <time>2021-11-14T18:56:47.328Z</time>
      </trkpt>
      <trkpt lat="47.582013" lon="7.791256">
        <ele>320.985399</ele>
        <time>2021-11-14T18:56:47.386Z</time>
      </trkpt>
      <trkpt lat="47.581708" lon="7.791259">
        <ele>319.816086</ele>
        <time>2021-11-14T18:56:50.468Z</time>
      </trkpt>
      <trkpt lat="47.581189" lon="7.791372">
        <ele>318.437811</ele>
        <time>2021-11-14T18:56:56.124Z</time>
      </trkpt>
      <trkpt lat="47.580737" lon="7.791705">
        <ele>317.332352</ele>
        <time>2021-11-14T18:57:01.772Z</time>
      </trkpt>
      <trkpt lat="47.580645" lon="7.791792">
        <ele>317.093352</ele>
        <time>2021-11-14T18:57:02.982Z</time>
      </trkpt>
      <trkpt lat="47.579608" lon="7.792763">
        <ele>313.439957</ele>
        <time>2021-11-14T18:57:16.465Z</time>
      </trkpt>
      <trkpt lat="47.579133" lon="7.793208">
        <ele>310.935959</ele>
        <time>2021-11-14T18:57:21.915Z</time>
      </trkpt>
      <trkpt lat="47.578861" lon="7.793502">
        <ele>309.435862</ele>
        <time>2021-11-14T18:57:25.079Z</time>
      </trkpt>
      <trkpt lat="47.578748" lon="7.793671">
        <ele>308.720552</ele>
        <time>2021-11-14T18:57:26.514Z</time>
      </trkpt>
      <trkpt lat="47.578632" lon="7.793843">
        <ele>307.989418</ele>
        <time>2021-11-14T18:57:28.063Z</time>
      </trkpt>
      <trkpt lat="47.578556" lon="7.793956">
        <ele>307.509739</ele>
        <time>2021-11-14T18:57:29.016Z</time>
      </trkpt>
      <trkpt lat="47.578357" lon="7.794270">
        <ele>305.888807</ele>
        <time>2021-11-14T18:57:31.664Z</time>
      </trkpt>
      <trkpt lat="47.578357" lon="7.794270">
        <ele>305.888807</ele>
        <time>2021-11-14T18:57:31.669Z</time>
      </trkpt>
      <trkpt lat="47.578242" lon="7.794472">
        <ele>304.861397</ele>
        <time>2021-11-14T18:57:33.244Z</time>
      </trkpt>
      <trkpt lat="47.578016" lon="7.794883">
        <ele>302.800344</ele>
        <time>2021-11-14T18:57:36.486Z</time>
      </trkpt>
      <trkpt lat="47.577627" lon="7.795646">
        <ele>299.082834</ele>
        <time>2021-11-14T18:57:42.431Z</time>
      </trkpt>
      <trkpt lat="47.577551" lon="7.795780">
        <ele>298.402345</ele>
        <time>2021-11-14T18:57:43.586Z</time>
      </trkpt>
      <trkpt lat="47.577456" lon="7.795967">
        <ele>297.492408</ele>
        <time>2021-11-14T18:57:45.075Z</time>
      </trkpt>
      <trkpt lat="47.577380" lon="7.796116">
        <ele>296.868788</ele>
        <time>2021-11-14T18:57:46.303Z</time>
      </trkpt>
      <trkpt lat="47.577291" lon="7.796229">
        <ele>296.546086</ele>
        <time>2021-11-14T18:57:47.449Z</time>
      </trkpt>
      <trkpt lat="47.577222" lon="7.796219">
        <ele>296.355167</ele>
        <time>2021-11-14T18:57:48.112Z</time>
      </trkpt>
      <trkpt lat="47.577124" lon="7.796239">
        <ele>296.082747</ele>
        <time>2021-11-14T18:57:49.085Z</time>
      </trkpt>
      <trkpt lat="47.576960" lon="7.796396">
        <ele>295.545128</ele>
        <time>2021-11-14T18:57:51.087Z</time>
      </trkpt>
      <trkpt lat="47.576906" lon="7.796519">
        <ele>295.272500</ele>
        <time>2021-11-14T18:57:52.052Z</time>
      </trkpt>
      <trkpt lat="47.576884" lon="7.796617">
        <ele>295.080627</ele>
        <time>2021-11-14T18:57:52.794Z</time>
      </trkpt>
      <trkpt lat="47.576845" lon="7.796669">
        <ele>294.936175</ele>
        <time>2021-11-14T18:57:53.348Z</time>
      </trkpt>
      <trkpt lat="47.576565" lon="7.796902">
        <ele>294.051918</ele>
        <time>2021-11-14T18:57:56.712Z</time>
      </trkpt>
      <trkpt lat="47.576087" lon="7.797118">
        <ele>292.675788</ele>
        <time>2021-11-14T18:58:02.232Z</time>
      </trkpt>
      <trkpt lat="47.575978" lon="7.797131">
        <ele>292.374651</ele>
        <time>2021-11-14T18:58:03.408Z</time>
      </trkpt>
      <trkpt lat="47.575955" lon="7.797114">
        <ele>292.303876</ele>
        <time>2021-11-14T18:58:03.686Z</time>
      </trkpt>
      <trkpt lat="47.575928" lon="7.797105">
        <ele>292.227666</ele>
        <time>2021-11-14T18:58:03.998Z</time>
      </trkpt>
      <trkpt lat="47.575913" lon="7.797101">
        <ele>292.185696</ele>
        <time>2021-11-14T18:58:04.184Z</time>
      </trkpt>
      <trkpt lat="47.575798" lon="7.797141">
        <ele>291.967156</ele>
        <time>2021-11-14T18:58:05.557Z</time>
      </trkpt>
      <trkpt lat="47.575766" lon="7.797180">
        <ele>291.934783</ele>
        <time>2021-11-14T18:58:06.126Z</time>
      </trkpt>
      <trkpt lat="47.575752" lon="7.797206">
        <ele>291.917246</ele>
        <time>2021-11-14T18:58:06.419Z</time>
      </trkpt>
      <trkpt lat="47.575736" lon="7.797256">
        <ele>291.888072</ele>
        <time>2021-11-14T18:58:06.881Z</time>
      </trkpt>
      <trkpt lat="47.575731" lon="7.797285">
        <ele>291.872293</ele>
        <time>2021-11-14T18:58:07.103Z</time>
      </trkpt>
      <trkpt lat="47.575703" lon="7.797314">
        <ele>291.845601</ele>
        <time>2021-11-14T18:58:07.483Z</time>
      </trkpt>
      <trkpt lat="47.575578" lon="7.797427">
        <ele>291.731190</ele>
        <time>2021-11-14T18:58:09.209Z</time>
      </trkpt>
      <trkpt lat="47.575499" lon="7.797497">
        <ele>291.659268</ele>
        <time>2021-11-14T18:58:10.365Z</time>
      </trkpt>
      <trkpt lat="47.575391" lon="7.797551">
        <ele>291.570200</ele>
        <time>2021-11-14T18:58:11.769Z</time>
      </trkpt>
      <trkpt lat="47.575240" lon="7.797626">
        <ele>291.445755</ele>
        <time>2021-11-14T18:58:13.824Z</time>
      </trkpt>
      <trkpt lat="47.575009" lon="7.797739">
        <ele>291.255668</ele>
        <time>2021-11-14T18:58:16.980Z</time>
      </trkpt>
      <trkpt lat="47.574910" lon="7.797787">
        <ele>291.174272</ele>
        <time>2021-11-14T18:58:18.395Z</time>
      </trkpt>
      <trkpt lat="47.574296" lon="7.798050">
        <ele>290.674838</ele>
        <time>2021-11-14T18:58:27.199Z</time>
      </trkpt>
      <trkpt lat="47.573813" lon="7.798212">
        <ele>290.361912</ele>
        <time>2021-11-14T18:58:33.677Z</time>
      </trkpt>
      <trkpt lat="47.573410" lon="7.798344">
        <ele>290.114959</ele>
        <time>2021-11-14T18:58:39.055Z</time>
      </trkpt>
      <trkpt lat="47.573055" lon="7.798459">
        <ele>289.897530</ele>
        <time>2021-11-14T18:58:43.727Z</time>
      </trkpt>
      <trkpt lat="47.572628" lon="7.798599">
        <ele>289.635857</ele>
        <time>2021-11-14T18:58:49.383Z</time>
      </trkpt>
      <trkpt lat="47.572527" lon="7.798632">
        <ele>289.573973</ele>
        <time>2021-11-14T18:58:50.692Z</time>
      </trkpt>
      <trkpt lat="47.572308" lon="7.798703">
        <ele>289.393940</ele>
        <time>2021-11-14T18:58:53.639Z</time>
      </trkpt>
      <trkpt lat="47.571985" lon="7.798809">
        <ele>289.092592</ele>
        <time>2021-11-14T18:58:57.881Z</time>
      </trkpt>
      <trkpt lat="47.571921" lon="7.798830">
        <ele>289.032883</ele>
        <time>2021-11-14T18:58:58.659Z</time>
      </trkpt>
      <trkpt lat="47.571202" lon="7.799089">
        <ele>288.358876</ele>
        <time>2021-11-14T18:59:07.500Z</time>
      </trkpt>
      <trkpt lat="47.569912" lon="7.799564">
        <ele>287.342236</ele>
        <time>2021-11-14T18:59:24.269Z</time>
      </trkpt>
      <trkpt lat="47.569327" lon="7.799762">
        <ele>286.938810</ele>
        <time>2021-11-14T18:59:31.728Z</time>
      </trkpt>
      <trkpt lat="47.569185" lon="7.799810">
        <ele>286.840891</ele>
        <time>2021-11-14T18:59:33.727Z</time>
      </trkpt>
      <trkpt lat="47.568384" lon="7.800059">
        <ele>286.448628</ele>
        <time>2021-11-14T18:59:45.280Z</time>
      </trkpt>
      <trkpt lat="47.568315" lon="7.800179">
        <ele>286.406123</ele>
        <time>2021-11-14T18:59:46.704Z</time>
      </trkpt>
      <trkpt lat="47.568315" lon="7.800179">
        <ele>286.406123</ele>
        <time>2021-11-14T18:59:46.735Z</time>
      </trkpt>
      <trkpt lat="47.568185" lon="7.800003">
        <ele>286.335771</ele>
        <time>2021-11-14T18:59:49.542Z</time>
      </trkpt>
      <trkpt lat="47.567987" lon="7.799745">
        <ele>286.230430</ele>
        <time>2021-11-14T18:59:53.216Z</time>
      </trkpt>
      <trkpt lat="47.567788" lon="7.799488">
        <ele>286.124966</ele>
        <time>2021-11-14T18:59:56.735Z</time>
      </trkpt>
      <trkpt lat="47.567386" lon="7.798946">
        <ele>285.824448</ele>
        <time>2021-11-14T19:00:03.643Z</time>
      </trkpt>
      <trkpt lat="47.567213" lon="7.798707">
        <ele>285.582852</ele>
        <time>2021-11-14T19:00:06.539Z</time>
      </trkpt>
      <trkpt lat="47.567200" lon="7.798690">
        <ele>285.565142</ele>
        <time>2021-11-14T19:00:06.737Z</time>
      </trkpt>
      <trkpt lat="47.567008" lon="7.798425">
        <ele>285.297128</ele>
        <time>2021-11-14T19:00:10.044Z</time>
      </trkpt>
      <trkpt lat="47.566478" lon="7.797694">
        <ele>284.557537</ele>
        <time>2021-11-14T19:00:18.837Z</time>
      </trkpt>
      <trkpt lat="47.566034" lon="7.797091">
        <ele>283.942919</ele>
        <time>2021-11-14T19:00:25.859Z</time>
      </trkpt>
      <trkpt lat="47.565783" lon="7.796749">
        <ele>283.595726</ele>
        <time>2021-11-14T19:00:29.859Z</time>
      </trkpt>
      <trkpt lat="47.565062" lon="7.795783">
        <ele>282.605999</ele>
        <time>2021-11-14T19:00:41.873Z</time>
      </trkpt>
      <trkpt lat="47.564953" lon="7.795641">
        <ele>282.458219</ele>
        <time>2021-11-14T19:00:43.735Z</time>
      </trkpt>
      <trkpt lat="47.564352" lon="7.794822">
        <ele>281.773408</ele>
        <time>2021-11-14T19:00:54.066Z</time>
      </trkpt>
      <trkpt lat="47.563816" lon="7.794115">
        <ele>281.203630</ele>
        <time>2021-11-14T19:01:02.980Z</time>
      </trkpt>
      <trkpt lat="47.563536" lon="7.793741">
        <ele>280.904314</ele>
        <time>2021-11-14T19:01:07.783Z</time>
      </trkpt>
      <trkpt lat="47.563214" lon="7.793312">
        <ele>280.810865</ele>
        <time>2021-11-14T19:01:13.291Z</time>
      </trkpt>
      <trkpt lat="47.562862" lon="7.792861">
        <ele>280.745937</ele>
        <time>2021-11-14T19:01:19.491Z</time>
      </trkpt>
      <trkpt lat="47.562390" lon="7.792229">
        <ele>280.657176</ele>
        <time>2021-11-14T19:01:29.292Z</time>
      </trkpt>
      <trkpt lat="47.562130" lon="7.791878">
        <ele>280.625123</ele>
        <time>2021-11-14T19:01:35.099Z</time>
      </trkpt>
      <trkpt lat="47.561593" lon="7.791131">
        <ele>280.860922</ele>
        <time>2021-11-14T19:01:47.791Z</time>
      </trkpt>
      <trkpt lat="47.561363" lon="7.790838">
        <ele>280.958026</ele>
        <time>2021-11-14T19:01:52.809Z</time>
      </trkpt>
      <trkpt lat="47.561126" lon="7.790525">
        <ele>281.059662</ele>
        <time>2021-11-14T19:01:57.819Z</time>
      </trkpt>
      <trkpt lat="47.560580" lon="7.789953">
        <ele>281.066702</ele>
        <time>2021-11-14T19:02:07.877Z</time>
      </trkpt>
      <trkpt lat="47.560493" lon="7.789865">
        <ele>281.017920</ele>
        <time>2021-11-14T19:02:09.342Z</time>
      </trkpt>
      <trkpt lat="47.559770" lon="7.789125">
        <ele>280.610987</ele>
        <time>2021-11-14T19:02:21.270Z</time>
      </trkpt>
      <trkpt lat="47.559689" lon="7.789033">
        <ele>280.563724</ele>
        <time>2021-11-14T19:02:22.601Z</time>
      </trkpt>
      <trkpt lat="47.559136" lon="7.788426">
        <ele>279.955358</ele>
        <time>2021-11-14T19:02:31.071Z</time>
      </trkpt>
      <trkpt lat="47.559038" lon="7.788318">
        <ele>279.751362</ele>
        <time>2021-11-14T19:02:32.478Z</time>
      </trkpt>
      <trkpt lat="47.558938" lon="7.788209">
        <ele>279.544009</ele>
        <time>2021-11-14T19:02:34.044Z</time>
      </trkpt>
      <trkpt lat="47.558870" lon="7.788106">
        <ele>279.381589</ele>
        <time>2021-11-14T19:02:35.318Z</time>
      </trkpt>
      <trkpt lat="47.558737" lon="7.787923">
        <ele>279.078436</ele>
        <time>2021-11-14T19:02:37.400Z</time>
      </trkpt>
      <trkpt lat="47.558569" lon="7.787725">
        <ele>278.719889</ele>
        <time>2021-11-14T19:02:40.055Z</time>
      </trkpt>
      <trkpt lat="47.558519" lon="7.787666">
        <ele>278.613129</ele>
        <time>2021-11-14T19:02:40.744Z</time>
      </trkpt>
      <trkpt lat="47.558139" lon="7.787200">
        <ele>277.789243</ele>
        <time>2021-11-14T19:02:46.280Z</time>
      </trkpt>
      <trkpt lat="47.558113" lon="7.787162">
        <ele>277.728245</ele>
        <time>2021-11-14T19:02:46.681Z</time>
      </trkpt>
      <trkpt lat="47.558016" lon="7.786910">
        <ele>277.401230</ele>
        <time>2021-11-14T19:02:48.738Z</time>
      </trkpt>
      <trkpt lat="47.557963" lon="7.786759">
        <ele>276.999597</ele>
        <time>2021-11-14T19:02:49.905Z</time>
      </trkpt>
      <trkpt lat="47.557910" lon="7.786611">
        <ele>276.532597</ele>
        <time>2021-11-14T19:02:51.075Z</time>
      </trkpt>
      <trkpt lat="47.557893" lon="7.786568">
        <ele>276.393692</ele>
        <time>2021-11-14T19:02:51.421Z</time>
      </trkpt>
      <trkpt lat="47.557859" lon="7.786519">
        <ele>276.197801</ele>
        <time>2021-11-14T19:02:51.888Z</time>
      </trkpt>
      <trkpt lat="47.557823" lon="7.786486">
        <ele>276.022961</ele>
        <time>2021-11-14T19:02:52.294Z</time>
      </trkpt>
      <trkpt lat="47.557711" lon="7.786536">
        <ele>275.539836</ele>
        <time>2021-11-14T19:02:53.432Z</time>
      </trkpt>
      <trkpt lat="47.557562" lon="7.786575">
        <ele>274.914902</ele>
        <time>2021-11-14T19:02:54.897Z</time>
      </trkpt>
      <trkpt lat="47.557490" lon="7.786586">
        <ele>274.615948</ele>
        <time>2021-11-14T19:02:55.588Z</time>
      </trkpt>
      <trkpt lat="47.557180" lon="7.786638">
        <ele>273.327394</ele>
        <time>2021-11-14T19:02:58.532Z</time>
      </trkpt>
      <trkpt lat="47.557118" lon="7.786638">
        <ele>273.071318</ele>
        <time>2021-11-14T19:02:59.113Z</time>
      </trkpt>
      <trkpt lat="47.557035" lon="7.786628">
        <ele>272.727377</ele>
        <time>2021-11-14T19:02:59.890Z</time>
      </trkpt>
      <trkpt lat="47.556958" lon="7.786609">
        <ele>272.404968</ele>
        <time>2021-11-14T19:03:00.630Z</time>
      </trkpt>
      <trkpt lat="47.556914" lon="7.786662">
        <ele>272.170768</ele>
        <time>2021-11-14T19:03:01.168Z</time>
      </trkpt>
      <trkpt lat="47.556883" lon="7.786718">
        <ele>271.968882</ele>
        <time>2021-11-14T19:03:01.623Z</time>
      </trkpt>
      <trkpt lat="47.556812" lon="7.787001">
        <ele>271.127322</ele>
        <time>2021-11-14T19:03:03.569Z</time>
      </trkpt>
      <trkpt lat="47.556783" lon="7.787207">
        <ele>270.540771</ele>
        <time>2021-11-14T19:03:04.932Z</time>
      </trkpt>
      <trkpt lat="47.556658" lon="7.787468">
        <ele>269.803632</ele>
        <time>2021-11-14T19:03:07.016Z</time>
      </trkpt>
      <trkpt lat="47.556539" lon="7.787710">
        <ele>269.440473</ele>
        <time>2021-11-14T19:03:08.986Z</time>
      </trkpt>
      <trkpt lat="47.556357" lon="7.788058">
        <ele>268.906500</ele>
        <time>2021-11-14T19:03:11.952Z</time>
      </trkpt>
      <trkpt lat="47.556249" lon="7.788270">
        <ele>268.584343</ele>
        <time>2021-11-14T19:03:13.772Z</time>
      </trkpt>
      <trkpt lat="47.556137" lon="7.788488">
        <ele>268.252044</ele>
        <time>2021-11-14T19:03:15.679Z</time>
      </trkpt>
      <trkpt lat="47.556111" lon="7.788537">
        <ele>268.176445</ele>
        <time>2021-11-14T19:03:16.105Z</time>
      </trkpt>
      <trkpt lat="47.556069" lon="7.788614">
        <ele>268.056366</ele>
        <time>2021-11-14T19:03:16.849Z</time>
      </trkpt>
      <trkpt lat="47.555936" lon="7.788828">
        <ele>267.703522</ele>
        <time>2021-11-14T19:03:19.093Z</time>
      </trkpt>
      <trkpt lat="47.555085" lon="7.789685">
        <ele>267.802313</ele>
        <time>2021-11-14T19:04:01.425Z</time>
      </trkpt>
      <trkpt lat="47.555062" lon="7.789726">
        <ele>267.888293</ele>
        <time>2021-11-14T19:04:03.149Z</time>
      </trkpt>
      <trkpt lat="47.555052" lon="7.789771">
        <ele>267.964698</ele>
        <time>2021-11-14T19:04:04.602Z</time>
      </trkpt>
      <trkpt lat="47.555031" lon="7.789894">
        <ele>268.169308</ele>
        <time>2021-11-14T19:04:08.832Z</time>
      </trkpt>
      <trkpt lat="47.554999" lon="7.790090">
        <ele>268.494515</ele>
        <time>2021-11-14T19:04:15.984Z</time>
      </trkpt>
      <trkpt lat="47.554865" lon="7.790678">
        <ele>269.495386</ele>
        <time>2021-11-14T19:04:37.140Z</time>
      </trkpt>
      <trkpt lat="47.554858" lon="7.790696">
        <ele>269.528889</ele>
        <time>2021-11-14T19:04:38.138Z</time>
      </trkpt>
      <trkpt lat="47.554788" lon="7.790844">
        <ele>269.820347</ele>
        <time>2021-11-14T19:04:43.703Z</time>
      </trkpt>
      <trkpt lat="47.554756" lon="7.790897">
        <ele>269.935033</ele>
        <time>2021-11-14T19:04:46.269Z</time>
      </trkpt>
      <trkpt lat="47.554911" lon="7.791459">
        <ele>270.914133</ele>
        <time>2021-11-14T19:05:06.104Z</time>
      </trkpt>
      <trkpt lat="47.555027" lon="7.791948">
        <ele>271.630445</ele>
        <time>2021-11-14T19:05:22.343Z</time>
      </trkpt>
      <trkpt lat="47.555085" lon="7.792163">
        <ele>271.945205</ele>
        <time>2021-11-14T19:05:29.623Z</time>
      </trkpt>
      <trkpt lat="47.555127" lon="7.792307">
        <ele>272.158459</ele>
        <time>2021-11-14T19:05:34.022Z</time>
      </trkpt>
      <trkpt lat="47.555237" lon="7.792734">
        <ele>272.779780</ele>
        <time>2021-11-14T19:05:48.152Z</time>
      </trkpt>
      <trkpt lat="47.555277" lon="7.793131">
        <ele>273.325447</ele>
        <time>2021-11-14T19:06:00.292Z</time>
      </trkpt>
      <trkpt lat="47.555274" lon="7.793423">
        <ele>273.722441</ele>
        <time>2021-11-14T19:06:08.951Z</time>
      </trkpt>
      <trkpt lat="47.555281" lon="7.793955">
        <ele>274.445784</ele>
        <time>2021-11-14T19:06:24.474Z</time>
      </trkpt>
      <trkpt lat="47.555282" lon="7.794033">
        <ele>274.551837</ele>
        <time>2021-11-14T19:06:26.756Z</time>
      </trkpt>
      <trkpt lat="47.555288" lon="7.794318">
        <ele>275.002340</ele>
        <time>2021-11-14T19:06:35.270Z</time>
      </trkpt>
      <trkpt lat="47.555288" lon="7.794496">
        <ele>275.290720</ele>
        <time>2021-11-14T19:06:40.321Z</time>
      </trkpt>
      <trkpt lat="47.555141" lon="7.794516">
        <ele>275.645092</ele>
        <time>2021-11-14T19:06:46.720Z</time>
      </trkpt>
      <trkpt lat="47.555010" lon="7.794553">
        <ele>275.965232</ele>
        <time>2021-11-14T19:06:52.573Z</time>
      </trkpt>
      <trkpt lat="47.555010" lon="7.794553">
        <ele>275.965232</ele>
        <time>2021-11-14T19:06:52.635Z</time>
      </trkpt>
      <trkpt lat="47.554864" lon="7.794599">
        <ele>276.323555</ele>
        <time>2021-11-14T19:06:58.991Z</time>
      </trkpt>
      <trkpt lat="47.554495" lon="7.794723">
        <ele>277.231869</ele>
        <time>2021-11-14T19:07:16.394Z</time>
      </trkpt>
      <trkpt lat="47.554352" lon="7.794791">
        <ele>277.592399</ele>
        <time>2021-11-14T19:07:23.644Z</time>
      </trkpt>
      <trkpt lat="47.554254" lon="7.794823">
        <ele>277.833302</ele>
        <time>2021-11-14T19:07:28.383Z</time>
      </trkpt>
      <trkpt lat="47.554004" lon="7.794824">
        <ele>278.433453</ele>
        <time>2021-11-14T19:07:40.658Z</time>
      </trkpt>
      <trkpt lat="47.553930" lon="7.794811">
        <ele>278.612341</ele>
        <time>2021-11-14T19:07:44.575Z</time>
      </trkpt>
      <trkpt lat="47.553883" lon="7.794947">
        <ele>278.859890</ele>
        <time>2021-11-14T19:07:47.856Z</time>
      </trkpt>
      <trkpt lat="47.553854" lon="7.795042">
        <ele>279.093167</ele>
        <time>2021-11-14T19:07:50.205Z</time>
      </trkpt>
      <trkpt lat="47.553847" lon="7.795063">
        <ele>279.155669</ele>
        <time>2021-11-14T19:07:50.762Z</time>
      </trkpt>
      <trkpt lat="47.553724" lon="7.795281">
        <ele>279.913931</ele>
        <time>2021-11-14T19:07:57.946Z</time>
      </trkpt>
      <trkpt lat="47.553702" lon="7.795313">
        <ele>280.035829</ele>
        <time>2021-11-14T19:07:59.050Z</time>
      </trkpt>
      <trkpt lat="47.553628" lon="7.795414">
        <ele>280.433644</ele>
        <time>2021-11-14T19:08:02.669Z</time>
      </trkpt>
      <trkpt lat="47.553580" lon="7.795460">
        <ele>280.659675</ele>
        <time>2021-11-14T19:08:04.773Z</time>
      </trkpt>
      <trkpt lat="47.553379" lon="7.795607">
        <ele>281.545974</ele>
        <time>2021-11-14T19:08:12.790Z</time>
      </trkpt>
      <trkpt lat="47.553256" lon="7.795697">
        <ele>282.088390</ele>
        <time>2021-11-14T19:08:17.743Z</time>
      </trkpt>
      <trkpt lat="47.553218" lon="7.795662">
        <ele>282.265307</ele>
        <time>2021-11-14T19:08:18.929Z</time>
      </trkpt>
      <trkpt lat="47.553188" lon="7.795642">
        <ele>282.395381</ele>
        <time>2021-11-14T19:08:19.862Z</time>
      </trkpt>
      <trkpt lat="47.553162" lon="7.795633">
        <ele>282.500954</ele>
        <time>2021-11-14T19:08:20.794Z</time>
      </trkpt>
      <trkpt lat="47.553139" lon="7.795630">
        <ele>282.592248</ele>
        <time>2021-11-14T19:08:21.476Z</time>
      </trkpt>
      <trkpt lat="47.552930" lon="7.795600">
        <ele>283.422508</ele>
        <time>2021-11-14T19:08:27.758Z</time>
      </trkpt>
      <trkpt lat="47.552886" lon="7.795976">
        <ele>284.440875</ele>
        <time>2021-11-14T19:08:35.370Z</time>
      </trkpt>
      <trkpt lat="47.552817" lon="7.796239">
        <ele>285.193883</ele>
        <time>2021-11-14T19:08:41.561Z</time>
      </trkpt>
      <trkpt lat="47.552762" lon="7.796425">
        <ele>285.735795</ele>
        <time>2021-11-14T19:08:46.124Z</time>
      </trkpt>
      <trkpt lat="47.552700" lon="7.796570">
        <ele>286.211854</ele>
        <time>2021-11-14T19:08:50.153Z</time>
      </trkpt>
      <trkpt lat="47.552493" lon="7.797048">
        <ele>287.906110</ele>
        <time>2021-11-14T19:09:03.133Z</time>
      </trkpt>
      <trkpt lat="47.552152" lon="7.797876">
        <ele>290.799743</ele>
        <time>2021-11-14T19:09:25.155Z</time>
      </trkpt>
      <trkpt lat="47.552084" lon="7.798083">
        <ele>291.486528</ele>
        <time>2021-11-14T19:09:30.659Z</time>
      </trkpt>
      <trkpt lat="47.551948" lon="7.798607">
        <ele>293.161329</ele>
        <time>2021-11-14T19:09:43.117Z</time>
      </trkpt>
      <trkpt lat="47.551805" lon="7.799326">
        <ele>294.769746</ele>
        <time>2021-11-14T19:09:57.254Z</time>
      </trkpt>
      <trkpt lat="47.551793" lon="7.799434">
        <ele>294.950498</ele>
        <time>2021-11-14T19:09:59.798Z</time>
      </trkpt>
      <trkpt lat="47.551754" lon="7.799766">
        <ele>295.507006</ele>
        <time>2021-11-14T19:10:05.853Z</time>
      </trkpt>
      <trkpt lat="47.551712" lon="7.800249">
        <ele>296.311227</ele>
        <time>2021-11-14T19:10:14.833Z</time>
      </trkpt>
      <trkpt lat="47.551704" lon="7.800451">
        <ele>296.645385</ele>
        <time>2021-11-14T19:10:18.215Z</time>
      </trkpt>
      <trkpt lat="47.551672" lon="7.801147">
        <ele>297.797427</ele>
        <time>2021-11-14T19:10:28.022Z</time>
      </trkpt>
      <trkpt lat="47.551669" lon="7.801438">
        <ele>298.278042</ele>
        <time>2021-11-14T19:10:31.571Z</time>
      </trkpt>
      <trkpt lat="47.551666" lon="7.801632">
        <ele>298.455117</ele>
        <time>2021-11-14T19:10:34.349Z</time>
      </trkpt>
      <trkpt lat="47.551669" lon="7.801853">
        <ele>298.566282</ele>
        <time>2021-11-14T19:10:36.861Z</time>
      </trkpt>
      <trkpt lat="47.551671" lon="7.802077">
        <ele>298.678944</ele>
        <time>2021-11-14T19:10:39.432Z</time>
      </trkpt>
      <trkpt lat="47.551679" lon="7.802228">
        <ele>298.755116</ele>
        <time>2021-11-14T19:10:40.907Z</time>
      </trkpt>
      <trkpt lat="47.551688" lon="7.802394">
        <ele>298.838868</ele>
        <time>2021-11-14T19:10:42.786Z</time>
      </trkpt>
      <trkpt lat="47.551700" lon="7.802648">
        <ele>298.966920</ele>
        <time>2021-11-14T19:10:45.503Z</time>
      </trkpt>
      <trkpt lat="47.551732" lon="7.803125">
        <ele>299.207989</ele>
        <time>2021-11-14T19:10:50.871Z</time>
      </trkpt>
      <trkpt lat="47.551744" lon="7.803277">
        <ele>299.284953</ele>
        <time>2021-11-14T19:10:52.552Z</time>
      </trkpt>
      <trkpt lat="47.551751" lon="7.803369">
        <ele>299.331513</ele>
        <time>2021-11-14T19:10:53.668Z</time>
      </trkpt>
      <trkpt lat="47.551692" lon="7.803510">
        <ele>299.414946</ele>
        <time>2021-11-14T19:10:56.390Z</time>
      </trkpt>
      <trkpt lat="47.551741" lon="7.804294">
        <ele>299.808176</ele>
        <time>2021-11-14T19:11:09.445Z</time>
      </trkpt>
      <trkpt lat="47.551744" lon="7.804473">
        <ele>299.895079</ele>
        <time>2021-11-14T19:11:12.017Z</time>
      </trkpt>
      <trkpt lat="47.551731" lon="7.804667">
        <ele>299.989697</ele>
        <time>2021-11-14T19:11:16.035Z</time>
      </trkpt>
      <trkpt lat="47.551709" lon="7.805000">
        <ele>300.152088</ele>
        <time>2021-11-14T19:11:20.575Z</time>
      </trkpt>
      <trkpt lat="47.551681" lon="7.805477">
        <ele>300.384469</ele>
        <time>2021-11-14T19:11:28.322Z</time>
      </trkpt>
      <trkpt lat="47.551671" lon="7.806117">
        <ele>300.695171</ele>
        <time>2021-11-14T19:11:38.411Z</time>
      </trkpt>
      <trkpt lat="47.551651" lon="7.806246">
        <ele>300.759410</ele>
        <time>2021-11-14T19:11:41.313Z</time>
      </trkpt>
      <trkpt lat="47.551895" lon="7.806278">
        <ele>300.935557</ele>
        <time>2021-11-14T19:11:44.839Z</time>
      </trkpt>
      <trkpt lat="47.552015" lon="7.806307">
        <ele>301.022990</ele>
        <time>2021-11-14T19:11:47.709Z</time>
      </trkpt>
      <trkpt lat="47.552068" lon="7.806445">
        <ele>300.991293</ele>
        <time>2021-11-14T19:11:49.166Z</time>
      </trkpt>
      <trkpt lat="47.552398" lon="7.808880">
        <ele>300.427052</ele>
        <time>2021-11-14T19:12:11.309Z</time>
      </trkpt>
      <trkpt lat="47.552566" lon="7.810386">
        <ele>299.735963</ele>
        <time>2021-11-14T19:12:24.320Z</time>
      </trkpt>
      <trkpt lat="47.552711" lon="7.812955">
        <ele>298.597561</ele>
        <time>2021-11-14T19:12:46.929Z</time>
      </trkpt>
      <trkpt lat="47.552844" lon="7.816432">
        <ele>297.395297</ele>
        <time>2021-11-14T19:13:17.421Z</time>
      </trkpt>
      <trkpt lat="47.552948" lon="7.819358">
        <ele>297.745037</ele>
        <time>2021-11-14T19:13:48.652Z</time>
      </trkpt>
      <trkpt lat="47.552896" lon="7.820699">
        <ele>298.349446</ele>
        <time>2021-11-14T19:14:04.735Z</time>
      </trkpt>
      <trkpt lat="47.552567" lon="7.824508">
        <ele>300.247492</ele>
        <time>2021-11-14T19:14:51.220Z</time>
      </trkpt>
      <trkpt lat="47.552491" lon="7.827227">
        <ele>301.611358</ele>
        <time>2021-11-14T19:15:22.960Z</time>
      </trkpt>
      <trkpt lat="47.552515" lon="7.828094">
        <ele>302.456352</ele>
        <time>2021-11-14T19:15:34.670Z</time>
      </trkpt>
      <trkpt lat="47.552477" lon="7.828294">
        <ele>302.701155</ele>
        <time>2021-11-14T19:15:37.287Z</time>
      </trkpt>
      <trkpt lat="47.552421" lon="7.828481">
        <ele>302.942197</ele>
        <time>2021-11-14T19:15:40.218Z</time>
      </trkpt>
      <trkpt lat="47.552404" lon="7.828582">
        <ele>303.064842</ele>
        <time>2021-11-14T19:15:41.903Z</time>
      </trkpt>
      <trkpt lat="47.552416" lon="7.828822">
        <ele>303.348389</ele>
        <time>2021-11-14T19:15:45.137Z</time>
      </trkpt>
      <trkpt lat="47.552554" lon="7.829266">
        <ele>303.924325</ele>
        <time>2021-11-14T19:15:52.488Z</time>
      </trkpt>
      <trkpt lat="47.552645" lon="7.830686">
        <ele>306.084288</ele>
        <time>2021-11-14T19:16:15.794Z</time>
      </trkpt>
      <trkpt lat="47.552690" lon="7.832598">
        <ele>309.834725</ele>
        <time>2021-11-14T19:16:51.271Z</time>
      </trkpt>
      <trkpt lat="47.552616" lon="7.832891">
        <ele>310.420699</ele>
        <time>2021-11-14T19:16:56.635Z</time>
      </trkpt>
      <trkpt lat="47.552556" lon="7.832977">
        <ele>310.643755</ele>
        <time>2021-11-14T19:16:59.366Z</time>
      </trkpt>
      <trkpt lat="47.552511" lon="7.833072">
        <ele>310.853057</ele>
        <time>2021-11-14T19:17:01.392Z</time>
      </trkpt>
      <trkpt lat="47.552467" lon="7.833198">
        <ele>311.108892</ele>
        <time>2021-11-14T19:17:03.794Z</time>
      </trkpt>
      <trkpt lat="47.552452" lon="7.833284">
        <ele>311.269076</ele>
        <time>2021-11-14T19:17:05.405Z</time>
      </trkpt>
      <trkpt lat="47.552696" lon="7.833789">
        <ele>312.389079</ele>
        <time>2021-11-14T19:17:16.436Z</time>
      </trkpt>
      <trkpt lat="47.552700" lon="7.833938">
        <ele>312.657989</ele>
        <time>2021-11-14T19:17:19.381Z</time>
      </trkpt>
      <trkpt lat="47.552714" lon="7.835010">
        <ele>314.591533</ele>
        <time>2021-11-14T19:17:37.858Z</time>
      </trkpt>
      <trkpt lat="47.552719" lon="7.836790">
        <ele>316.656172</ele>
        <time>2021-11-14T19:18:03.141Z</time>
      </trkpt>
      <trkpt lat="47.552697" lon="7.838068">
        <ele>318.038902</ele>
        <time>2021-11-14T19:18:20.862Z</time>
      </trkpt>
      <trkpt lat="47.552736" lon="7.838578">
        <ele>318.577060</ele>
        <time>2021-11-14T19:18:27.992Z</time>
      </trkpt>
      <trkpt lat="47.552802" lon="7.839009">
        <ele>319.040450</ele>
        <time>2021-11-14T19:18:34.133Z</time>
      </trkpt>
      <trkpt lat="47.552807" lon="7.839028">
        <ele>319.061832</ele>
        <time>2021-11-14T19:18:34.492Z</time>
      </trkpt>
      <trkpt lat="47.552939" lon="7.839526">
        <ele>319.622810</ele>
        <time>2021-11-14T19:18:42.013Z</time>
      </trkpt>
      <trkpt lat="47.553231" lon="7.841529">
        <ele>321.638615</ele>
        <time>2021-11-14T19:19:12.063Z</time>
      </trkpt>
      <trkpt lat="47.553216" lon="7.841849">
        <ele>321.936574</ele>
        <time>2021-11-14T19:19:16.572Z</time>
      </trkpt>
      <trkpt lat="47.553123" lon="7.842222">
        <ele>322.305935</ele>
        <time>2021-11-14T19:19:21.802Z</time>
      </trkpt>
      <trkpt lat="47.553133" lon="7.842431">
        <ele>322.500560</ele>
        <time>2021-11-14T19:19:24.932Z</time>
      </trkpt>
      <trkpt lat="47.552833" lon="7.842495">
        <ele>322.917713</ele>
        <time>2021-11-14T19:19:32.175Z</time>
      </trkpt>
      <trkpt lat="47.552380" lon="7.842592">
        <ele>323.212715</ele>
        <time>2021-11-14T19:19:42.683Z</time>
      </trkpt>
      <trkpt lat="47.551922" lon="7.842704">
        <ele>323.391003</ele>
        <time>2021-11-14T19:19:52.605Z</time>
      </trkpt>
      <trkpt lat="47.551668" lon="7.842770">
        <ele>323.490048</ele>
        <time>2021-11-14T19:19:58.159Z</time>
      </trkpt>
      <trkpt lat="47.551454" lon="7.842815">
        <ele>323.573065</ele>
        <time>2021-11-14T19:20:02.338Z</time>
      </trkpt>
      <trkpt lat="47.551243" lon="7.842849">
        <ele>323.654583</ele>
        <time>2021-11-14T19:20:06.328Z</time>
      </trkpt>
      <trkpt lat="47.549927" lon="7.842747">
        <ele>324.917769</ele>
        <time>2021-11-14T19:20:36.035Z</time>
      </trkpt>
      <trkpt lat="47.549582" lon="7.842702">
        <ele>325.311109</ele>
        <time>2021-11-14T19:20:44.953Z</time>
      </trkpt>
      <trkpt lat="47.549188" lon="7.842622">
        <ele>325.762768</ele>
        <time>2021-11-14T19:20:56.386Z</time>
      </trkpt>
      <trkpt lat="47.548105" lon="7.842284">
        <ele>327.986852</ele>
        <time>2021-11-14T19:21:29.453Z</time>
      </trkpt>
      <trkpt lat="47.547674" lon="7.842266">
        <ele>328.870176</ele>
        <time>2021-11-14T19:21:41.744Z</time>
      </trkpt>
      <trkpt lat="47.547549" lon="7.842268">
        <ele>329.126274</ele>
        <time>2021-11-14T19:21:44.941Z</time>
      </trkpt>
      <trkpt lat="47.547448" lon="7.842262">
        <ele>329.333355</ele>
        <time>2021-11-14T19:21:47.526Z</time>
      </trkpt>
      <trkpt lat="47.547354" lon="7.842839">
        <ele>329.940914</ele>
        <time>2021-11-14T19:21:57.539Z</time>
      </trkpt>
      <trkpt lat="47.547313" lon="7.843735">
        <ele>330.777046</ele>
        <time>2021-11-14T19:22:13.529Z</time>
      </trkpt>
      <trkpt lat="47.547295" lon="7.844722">
        <ele>331.696324</ele>
        <time>2021-11-14T19:22:30.299Z</time>
      </trkpt>
      <trkpt lat="47.547274" lon="7.845536">
        <ele>332.582257</ele>
        <time>2021-11-14T19:22:44.008Z</time>
      </trkpt>
      <trkpt lat="47.547259" lon="7.845850">
        <ele>332.954460</ele>
        <time>2021-11-14T19:22:49.841Z</time>
      </trkpt>
      <trkpt lat="47.547124" lon="7.848795">
        <ele>336.473238</ele>
        <time>2021-11-14T19:23:45.508Z</time>
      </trkpt>
      <trkpt lat="47.547143" lon="7.849985">
        <ele>337.911362</ele>
        <time>2021-11-14T19:24:07.277Z</time>
      </trkpt>
      <trkpt lat="47.547141" lon="7.850355">
        <ele>338.355673</ele>
        <time>2021-11-14T19:24:14.176Z</time>
      </trkpt>
      <trkpt lat="47.546945" lon="7.851719">
        <ele>339.238917</ele>
        <time>2021-11-14T19:24:38.543Z</time>
      </trkpt>
      <trkpt lat="47.546582" lon="7.856413">
        <ele>340.679891</ele>
        <time>2021-11-14T19:25:46.855Z</time>
      </trkpt>
      <trkpt lat="47.546537" lon="7.857497">
        <ele>340.866585</ele>
        <time>2021-11-14T19:26:02.163Z</time>
      </trkpt>
      <trkpt lat="47.546487" lon="7.859119">
        <ele>341.184406</ele>
        <time>2021-11-14T19:26:25.611Z</time>
      </trkpt>
      <trkpt lat="47.546526" lon="7.861665">
        <ele>341.257077</ele>
        <time>2021-11-14T19:27:02.785Z</time>
      </trkpt>
      <trkpt lat="47.546592" lon="7.863006">
        <ele>340.651164</ele>
        <time>2021-11-14T19:27:19.252Z</time>
      </trkpt>
      <trkpt lat="47.546877" lon="7.864345">
        <ele>339.312179</ele>
        <time>2021-11-14T19:27:34.421Z</time>
      </trkpt>
      <trkpt lat="47.546885" lon="7.864500">
        <ele>339.105815</ele>
        <time>2021-11-14T19:27:36.100Z</time>
      </trkpt>
      <trkpt lat="47.546894" lon="7.864837">
        <ele>338.658097</ele>
        <time>2021-11-14T19:27:39.579Z</time>
      </trkpt>
      <trkpt lat="47.546889" lon="7.865225">
        <ele>338.142932</ele>
        <time>2021-11-14T19:27:43.700Z</time>
      </trkpt>
      <trkpt lat="47.546819" lon="7.865489">
        <ele>337.766400</ele>
        <time>2021-11-14T19:27:46.778Z</time>
      </trkpt>
      <trkpt lat="47.546510" lon="7.865766">
        <ele>337.056095</ele>
        <time>2021-11-14T19:27:52.473Z</time>
      </trkpt>
      <trkpt lat="47.546327" lon="7.865959">
        <ele>336.728143</ele>
        <time>2021-11-14T19:27:55.804Z</time>
      </trkpt>
      <trkpt lat="47.546096" lon="7.866147">
        <ele>336.466649</ele>
        <time>2021-11-14T19:27:59.870Z</time>
      </trkpt>
      <trkpt lat="47.545240" lon="7.866887">
        <ele>335.483341</ele>
        <time>2021-11-14T19:28:16.544Z</time>
      </trkpt>
      <trkpt lat="47.545160" lon="7.866985">
        <ele>335.380348</ele>
        <time>2021-11-14T19:28:18.500Z</time>
      </trkpt>
      <trkpt lat="47.545003" lon="7.867278">
        <ele>335.129810</ele>
        <time>2021-11-14T19:28:24.168Z</time>
      </trkpt>
      <trkpt lat="47.544568" lon="7.867693">
        <ele>335.627028</ele>
        <time>2021-11-14T19:28:36.959Z</time>
      </trkpt>
      <trkpt lat="47.544469" lon="7.867776">
        <ele>335.771609</ele>
        <time>2021-11-14T19:28:39.821Z</time>
      </trkpt>
      <trkpt lat="47.544410" lon="7.867825">
        <ele>335.857577</ele>
        <time>2021-11-14T19:28:41.909Z</time>
      </trkpt>
      <trkpt lat="47.544246" lon="7.867967">
        <ele>336.099010</ele>
        <time>2021-11-14T19:28:46.593Z</time>
      </trkpt>
      <trkpt lat="47.544214" lon="7.867988">
        <ele>336.143494</ele>
        <time>2021-11-14T19:28:47.440Z</time>
      </trkpt>
      <trkpt lat="47.543801" lon="7.868269">
        <ele>336.721128</ele>
        <time>2021-11-14T19:28:59.044Z</time>
      </trkpt>
      <trkpt lat="47.543657" lon="7.868359">
        <ele>336.919772</ele>
        <time>2021-11-14T19:29:03.394Z</time>
      </trkpt>
      <trkpt lat="47.543201" lon="7.868657">
        <ele>337.345554</ele>
        <time>2021-11-14T19:29:13.829Z</time>
      </trkpt>
      <trkpt lat="47.543105" lon="7.868711">
        <ele>337.345554</ele>
        <time>2021-11-14T19:29:16.475Z</time>
      </trkpt>
      <trkpt lat="47.543049" lon="7.868759">
        <ele>337.345554</ele>
        <time>2021-11-14T19:29:17.854Z</time>
      </trkpt>
      <trkpt lat="47.542722" lon="7.869201">
        <ele>337.345554</ele>
        <time>2021-11-14T19:29:27.453Z</time>
      </trkpt>
      <trkpt lat="47.542696" lon="7.869257">
        <ele>337.345554</ele>
        <time>2021-11-14T19:29:28.199Z</time>
      </trkpt>
      <trkpt lat="47.542657" lon="7.869354">
        <ele>337.345554</ele>
        <time>2021-11-14T19:29:29.607Z</time>
      </trkpt>
      <trkpt lat="47.542512" lon="7.869553">
        <ele>337.345554</ele>
        <time>2021-11-14T19:29:33.537Z</time>
      </trkpt>
    </trkseg>
  </trk>
</gpx>